[[{"header":{"parameterUnit":"m.s-1","parameterCategory":1,"la1":31.0,"la2":29.5877,"lo1":-88.7671,"lo2":-86.6584,"dy":0.0162,"dx":0.0185,"nx":115,"ny":88,"refTime":"2026-05-13T00:00:00:Z","depth":0,"parameterNumber":2,"parameterNumberName":"U-component_of_WINDS"},"data":[0.0,0.0,0.0,0.0,0.0,0.0,0.0,0.0,0.0,0.0,0.0,0.0,0.0,0.0,0.0,0.0,0.0,0.0,0.0,0.0,0.0,0.0,0.0,0.0,0.0,0.0,0.0,0.0,0.0,0.0,0.0,0.0,0.0,0.0,0.0,0.0,0.0,0.0,0.0,0.0,0.0,0.0,0.0,0.0,0.0,0.0,0.0,0.0,0.0,0.0,0.0,0.0,0.0,0.0,0.0,0.0,0.0,0.0,0.0,0.0,0.0,0.0,0.0,0.0,0.0,0.0,0.0,0.0,0.0,0.0,0.0,0.0,0.0,0.0,0.0,0.0,0.0,0.0,0.0,0.0,0.0,0.0,0.0,0.0,0.0,0.0,0.0,0.0,0.0,0.0,0.0,0.0,0.0,0.0,0.0,0.0,0.0,0.0,0.0,0.0,0.0,0.0,0.0,0.0,0.0,0.0,0.0,0.0,0.0,0.0,0.0,0.0,0.0,0.0,0.0,0.0,0.0,0.0,0.0,0.0,0.0,0.0,0.0,0.0,0.0,0.0,0.0,0.0,0.0,0.0,0.0,0.0,0.0,0.0,0.0,0.0,0.0,0.0,0.0,0.0,0.0,0.0,0.0,0.0,0.0,0.0,0.0,0.0,0.0,0.0,0.0,0.0,0.0,0.0,0.0,0.0,0.0,0.0,0.0,0.0,0.0,0.0,0.0,0.0,0.0,0.0,0.0,0.0,0.0,0.0,0.0,0.0,0.0,0.0,0.0,0.0,0.0,0.0,0.0,0.0,0.0,0.0,0.0,0.0,0.0,0.0,0.0,0.0,0.0,0.0,0.0,0.0,0.0,0.0,0.0,0.0,0.0,0.0,0.0,0.0,0.0,0.0,0.0,0.0,0.0,0.0,0.0,0.0,0.0,0.0,0.0,0.0,0.0,0.0,0.0,0.0,0.0,0.0,0.0,0.0,0.0,0.0,0.0,0.0,0.0,0.0,0.0,0.0,0.0,0.0,0.0,0.0,0.0,0.0,0.0,0.0,0.0,0.0,0.0,0.0,0.0,0.0,0.0,0.0,0.0,0.0,0.0,0.0,0.0,0.0,0.0,0.0,0.0,0.0,0.0,0.0,0.0,0.0,0.0,0.0,0.0,0.0,0.0,0.0,0.0,0.0,0.0,0.0,0.0,0.0,0.0,0.0,0.0,0.0,0.0,0.0,0.0,0.0,0.0,0.0,0.0,0.0,0.0,0.0,0.0,0.0,0.0,0.0,0.0,0.0,0.0,0.0,0.0,0.0,0.0,0.0,0.0,0.0,0.0,0.0,0.0,0.0,0.0,0.0,0.0,0.0,0.0,0.0,0.0,0.0,0.0,0.0,0.0,0.0,0.0,0.0,0.0,0.0,0.0,0.0,0.0,0.0,0.0,0.0,0.0,0.0,0.0,0.0,0.0,0.0,0.0,0.0,0.0,0.0,0.0,0.0,0.0,0.0,0.0,0.0,0.0,0.0,0.0,0.0,0.0,0.0,0.0,0.0,0.0,0.0,0.0,0.0,0.0,0.0,0.0,0.0,0.0,0.0,0.0,0.0,0.0,0.0,0.0,0.0,0.0,0.0,0.0,0.0,0.0,0.0,0.0,0.0,0.0,0.0,0.0,0.0,0.0,0.0,0.0,0.0,0.0,0.0,0.0,0.0,0.0,0.0,0.0,0.0,0.0,0.0,0.0,0.0,0.0,0.0,0.0,0.0,0.0,0.0,0.0,0.0,0.0,0.0,0.0,0.0,0.0,0.0,0.0,0.0,0.0,0.0,0.0,0.0,0.0,0.0,0.0,0.0,0.0,0.0,0.0,0.0,0.0,0.0,0.0,0.0,0.0,0.0,0.0,0.0,0.0,0.0,0.0,0.0,0.0,0.0,0.0,0.0,0.0,0.0,0.0,0.0,0.0,0.0,0.0,0.0,0.0,0.0,0.0,0.0,0.0,0.0,0.0,0.0,0.0,0.0,0.0,0.0,0.0,0.0,0.0,0.0,0.0,0.0,0.0,0.0,0.0,0.0,0.0,0.0,0.0,0.0,0.0,0.0,0.0,0.0,0.0,0.0,0.0,0.0,0.0,0.0,0.0,0.0,0.0,0.0,0.0,0.0,0.0,0.0,0.0,0.0,0.0,0.0,0.0,0.0,0.0,0.0,0.0,0.0,0.0,0.0,0.0,0.0,0.0,0.0,0.0,0.0,0.0,0.0,0.0,0.0,0.0,0.0,0.0,0.0,0.0,0.0,0.0,0.0,0.0,0.0,0.0,0.0,0.0,0.0,0.0,0.0,0.0,0.0,0.0,0.0,0.0,0.0,0.0,0.0,0.0,0.0,0.0,0.0,0.0,0.0,0.0,0.0,0.0,0.0,0.0,0.0,0.0,0.0,0.0,0.0,0.0,0.0,0.0,0.0,0.0,0.0,0.0,0.0,0.0,0.0,0.0,0.0,0.0,0.0,0.0,0.0,0.0,0.0,0.0,0.0,0.0,0.0,0.0,0.0,0.0,0.0,0.0,0.0,0.0,0.0,0.0,0.0,0.0,0.0,0.0,0.0,0.0,0.0,0.0,0.0,0.0,0.0,0.0,0.0,0.0,0.0,0.0,0.0,0.0,0.0,0.0,0.0,0.0,0.0,0.0,0.0,0.0,0.0,0.0,0.0,0.0,0.0,0.0,0.0,0.0,0.0,0.0,0.0,0.0,0.0,0.0,0.0,0.0,0.0,0.0,0.0,0.0,0.0,0.0,0.0,0.0,0.0,0.0,0.0,0.0,0.0,0.0,0.0,0.0,0.0,0.0,0.0,0.0,0.0,0.0,0.0,0.0,0.0,0.0,0.0,0.0,0.0,0.0,0.0,0.0,0.0,0.0,0.0,0.0,0.0,0.0,0.0,0.0,0.0,0.0,0.0,0.0,0.0,0.0,0.0,0.0,0.0,0.0,0.0,0.0,0.0,0.0,0.0,0.0,0.0,0.0,0.0,0.0,0.0,0.0,0.0,0.0,0.0,0.0,0.0,0.0,0.0,0.0,0.0,0.0,0.0,0.0,0.0,0.0,0.0,0.0,0.0,0.0,0.0,0.0,0.0,0.0,0.0,0.0,0.0,0.0,0.0,0.0,0.0,0.0,0.0,0.0,0.0,0.0,0.0,0.0,0.0,0.0,0.0,0.0,0.0,0.0,0.0,0.0,0.0,0.0,0.0,0.0,0.0,0.0,0.0,0.0,0.0,0.0,0.0,0.0,0.0,0.0,0.0,0.0,0.0,0.0,0.0,0.0,0.0,0.0,0.0,0.0,0.0,0.0,0.0,0.0,0.0,0.0,0.0,0.0,0.0,0.0,0.0,0.0,0.0,0.0,0.0,0.0,0.0,0.0,0.0,0.0,0.0,0.0,0.0,0.0,0.0,0.0,0.0,0.0,0.0,0.0,0.0,0.0,0.0,0.0,0.0,0.0,0.0,0.0,0.0,0.0,0.0,0.0,0.0,0.0,0.0,0.0,0.0,0.0,0.0,0.0,0.0,0.0,0.0,0.0,0.0,0.0,0.0,0.0,0.0,0.0,0.0,0.0,0.0,0.0,0.0,0.0,0.0,0.0,0.0,0.0,0.0,0.0,0.0,0.0,0.0,0.0,0.0,0.0,0.0,0.0,0.0,0.0,0.0,0.0,0.0,0.0,0.0,0.0,0.0,0.0,0.0,0.0,0.0,0.0,0.0,0.0,0.0,0.0,0.0,0.0,0.0,0.0,0.0,0.0,0.0,0.0,0.0,0.0,0.0,0.0,0.0,0.0,0.0,0.0,0.0,0.0,0.0,0.0,0.0,0.0,0.0,0.0,0.0,0.0,0.0,0.0,0.0,0.0,0.0,0.0,0.0,0.0,0.0,0.0,0.0,0.0,0.0,0.0,0.0,0.0,0.0,0.0,0.0,0.0,0.0,0.0,0.0,0.0,0.0,0.0,0.0,0.0,0.0,0.0,0.0,0.0,0.0,0.0,0.0,0.0,0.0,0.0,0.0,0.0,0.0,0.0,0.0,0.0,0.0,0.0,0.0,0.0,0.0,0.0,0.0,0.0,0.0,0.0,0.0,0.0,0.0,0.0,0.0,0.0,0.0,0.0,0.0,0.0,0.0,0.0,0.0,0.0,0.0,0.0,0.0,0.0,0.0,0.0,0.0,0.0,0.0,0.0,0.0,0.0,0.0,0.0,0.0,0.0,0.0,0.0,0.0,0.0,0.0,2.5349,0.0,0.0,0.0,0.0,0.0,0.0,0.0,0.0,0.0,0.0,0.0,0.0,0.0,0.0,0.0,0.0,0.0,0.0,0.0,0.0,0.0,0.0,0.0,0.0,0.0,0.0,0.0,0.0,0.0,0.0,0.0,0.0,0.0,0.0,0.0,0.0,0.0,0.0,0.0,0.0,0.0,0.0,0.0,0.0,0.0,0.0,0.0,0.0,0.0,0.0,0.0,0.0,0.0,0.0,0.0,0.0,0.0,0.0,0.0,0.0,0.0,0.0,0.0,0.0,0.0,0.0,0.0,0.0,0.0,0.0,0.0,0.0,0.0,0.0,0.0,0.0,0.0,0.0,0.0,0.0,0.0,0.0,0.0,0.0,0.0,0.0,0.0,0.0,0.0,0.0,0.0,0.0,0.0,0.0,0.0,0.0,0.0,0.0,0.0,0.0,0.0,0.0,0.0,0.0,0.0,0.0,0.0,0.0,0.0,0.0,2.8621,2.8668,2.7841,2.6696,2.5389,0.0,0.0,0.0,0.0,0.0,0.0,0.0,0.0,0.0,0.0,0.0,0.0,0.0,0.0,0.0,0.0,0.0,0.0,0.0,0.0,0.0,0.0,0.0,0.0,0.0,0.0,0.0,0.0,0.0,0.0,0.0,0.0,0.0,0.0,0.0,0.0,0.0,0.0,0.0,0.0,0.0,0.0,0.0,0.0,0.0,0.0,0.0,0.0,0.0,0.0,0.0,0.0,0.0,0.0,0.0,0.0,0.0,0.0,0.0,0.0,0.0,0.0,0.0,0.0,0.0,0.0,0.0,0.0,0.0,0.0,0.0,0.0,0.0,0.0,0.0,0.0,0.0,0.0,0.0,0.0,0.0,0.0,0.0,0.0,0.0,0.0,0.0,0.0,0.0,0.0,0.0,0.0,0.0,0.0,0.0,0.0,0.0,0.0,0.0,0.0,0.0,0.0,0.0,0.0,0.0,0.0,0.0,0.0,0.0,0.0,0.0,0.0,2.8809,2.7778,2.5996,0.0,0.0,0.0,0.0,0.0,0.0,0.0,0.0,0.0,0.0,0.0,0.0,0.0,0.0,0.0,0.0,0.0,0.0,0.0,0.0,0.0,0.0,0.0,0.0,0.0,0.0,0.0,0.0,0.0,0.0,0.0,0.0,0.0,0.0,0.0,0.0,0.0,0.0,0.0,0.0,0.0,0.0,0.0,0.0,0.0,0.0,0.0,0.0,0.0,0.0,0.0,0.0,0.0,0.0,0.0,0.0,0.0,0.0,0.0,0.0,0.0,0.0,0.0,0.0,0.0,0.0,0.0,0.0,0.0,0.0,0.0,0.0,0.0,0.0,0.0,0.0,0.0,0.0,0.0,0.0,0.0,0.0,0.0,0.0,0.0,0.0,0.0,0.0,0.0,0.0,0.0,0.0,0.0,0.0,0.0,0.0,0.0,0.0,0.0,0.0,0.0,0.0,0.0,0.0,0.0,0.0,0.0,0.0,0.0,0.0,2.961,3.0489,3.0458,0.0,2.7914,0.0,0.0,0.0,0.0,0.0,0.0,0.0,0.0,0.0,0.0,0.0,0.0,0.0,0.0,0.0,0.0,0.0,0.0,0.0,0.0,0.0,0.0,0.0,0.0,0.0,0.0,0.0,0.0,0.0,0.0,0.0,0.0,0.0,0.0,0.0,0.0,0.0,0.0,0.0,0.0,0.0,0.0,0.0,0.0,0.0,0.0,0.0,0.0,0.0,0.0,0.0,0.0,0.0,0.0,0.0,0.0,0.0,0.0,0.0,0.0,0.0,0.0,0.0,0.0,0.0,0.0,0.0,0.0,0.0,0.0,0.0,0.0,0.0,0.0,0.0,0.0,0.0,0.0,0.0,0.0,0.0,0.0,0.0,0.0,0.0,0.0,0.0,0.0,0.0,0.0,0.0,0.0,0.0,0.0,0.0,0.0,0.0,0.0,0.0,0.0,0.0,0.0,0.0,0.0,0.0,0.0,0.0,0.0,0.0,0.0,3.0006,3.1668,3.0367,2.911,0.0,0.0,0.0,0.0,0.0,0.0,0.0,0.0,0.0,0.0,0.0,0.0,0.0,0.0,0.0,0.0,0.0,0.0,0.0,0.0,0.0,0.0,0.0,0.0,0.0,0.0,0.0,0.0,0.0,0.0,0.0,0.0,0.0,0.0,0.0,0.0,0.0,0.0,0.0,0.0,0.0,0.0,0.0,0.0,0.0,0.0,0.0,0.0,0.0,0.0,0.0,0.0,0.0,0.0,0.0,0.0,0.0,0.0,0.0,0.0,0.0,0.0,0.0,0.0,0.0,0.0,0.0,0.0,0.0,0.0,0.0,0.0,0.0,0.0,0.0,0.0,0.0,0.0,0.0,0.0,0.0,0.0,0.0,0.0,0.0,0.0,0.0,0.0,0.0,0.0,0.0,0.0,0.0,0.0,0.0,0.0,0.0,0.0,0.0,0.0,0.0,0.0,0.0,0.0,0.0,0.0,0.0,0.0,0.0,0.0,3.034,0.0,3.2153,3.0639,2.9179,2.7999,0.0,0.0,0.0,0.0,0.0,0.0,0.0,0.0,0.0,0.0,0.0,0.0,0.0,0.0,0.0,0.0,0.0,0.0,0.0,0.0,0.0,0.0,0.0,0.0,0.0,0.0,0.0,0.0,0.0,0.0,0.0,0.0,0.0,0.0,0.0,0.0,0.0,0.0,0.0,0.0,0.0,0.0,0.0,0.0,0.0,0.0,0.0,0.0,0.0,0.0,0.0,0.0,0.0,0.0,0.0,0.0,0.0,0.0,0.0,0.0,0.0,0.0,0.0,0.0,0.0,0.0,0.0,0.0,0.0,0.0,0.0,0.0,0.0,0.0,0.0,0.0,0.0,0.0,0.0,0.0,0.0,0.0,0.0,0.0,0.0,0.0,0.0,0.0,0.0,0.0,0.0,0.0,0.0,0.0,0.0,0.0,0.0,0.0,0.0,0.0,0.0,0.0,0.0,0.0,0.0,0.0,0.0,0.0,0.0,3.21,3.1914,3.2203,3.1895,3.0606,0.0,0.0,0.0,0.0,0.0,0.0,0.0,0.0,0.0,0.0,0.0,0.0,0.0,0.0,0.0,0.0,0.0,0.0,0.0,0.0,0.0,0.0,0.0,0.0,0.0,0.0,0.0,0.0,0.0,0.0,0.0,0.0,0.0,0.0,0.0,0.0,0.0,0.0,0.0,0.0,0.0,0.0,0.0,0.0,0.0,0.0,0.0,0.0,0.0,0.0,0.0,0.0,0.0,0.0,0.0,0.0,0.0,0.0,0.0,0.0,0.0,0.0,0.0,0.0,0.0,0.0,0.0,0.0,0.0,0.0,0.0,0.0,0.0,0.0,0.0,0.0,0.0,0.0,0.0,0.0,0.0,0.0,0.0,0.0,0.0,0.0,0.0,0.0,0.0,0.0,0.0,0.0,0.0,0.0,0.0,0.0,0.0,0.0,0.0,0.0,0.0,0.0,0.0,0.0,0.0,0.0,0.0,0.0,0.0,3.121,3.1681,3.2147,3.2582,3.1138,3.0053,0.0,0.0,0.0,0.0,0.0,0.0,0.0,0.0,0.0,0.0,0.0,0.0,0.0,0.0,0.0,0.0,0.0,0.0,0.0,0.0,0.0,0.0,0.0,0.0,0.0,0.0,0.0,0.0,0.0,0.0,0.0,0.0,0.0,0.0,0.0,0.0,0.0,0.0,0.0,0.0,0.0,0.0,0.0,0.0,0.0,0.0,0.0,0.0,0.0,0.0,0.0,0.0,0.0,0.0,0.0,0.0,0.0,0.0,0.0,0.0,0.0,0.0,0.0,0.0,0.0,0.0,0.0,0.0,0.0,0.0,0.0,0.0,0.0,0.0,0.0,0.0,0.0,0.0,0.0,0.0,0.0,0.0,0.0,0.0,0.0,0.0,0.0,0.0,0.0,0.0,0.0,0.0,0.0,0.0,0.0,0.0,0.0,0.0,0.0,0.0,0.0,0.0,0.0,0.0,0.0,0.0,0.0,0.0,0.0,3.0429,0.0,3.1945,0.0,3.0525,2.9481,0.0,0.0,0.0,0.0,0.0,0.0,0.0,0.0,0.0,0.0,0.0,0.0,0.0,0.0,0.0,0.0,0.0,0.0,0.0,0.0,0.0,0.0,0.0,0.0,0.0,0.0,0.0,0.0,0.0,0.0,0.0,0.0,0.0,0.0,0.0,0.0,0.0,0.0,0.0,0.0,0.0,0.0,0.0,0.0,0.0,0.0,0.0,0.0,0.0,0.0,0.0,0.0,0.0,0.0,0.0,0.0,0.0,0.0,0.0,0.0,0.0,0.0,0.0,0.0,0.0,0.0,0.0,0.0,0.0,0.0,0.0,0.0,0.0,0.0,0.0,0.0,0.0,0.0,0.0,0.0,0.0,0.0,0.0,0.0,0.0,0.0,0.0,0.0,0.0,0.0,0.0,0.0,0.0,0.0,0.0,0.0,0.0,0.0,0.0,0.0,0.0,0.0,0.0,0.0,0.0,0.0,0.0,0.0,3.0414,3.0621,3.1621,3.1396,2.9744,3.0199,2.8978,0.0,0.0,0.0,0.0,0.0,0.0,0.0,0.0,0.0,0.0,0.0,0.0,0.0,0.0,0.0,0.0,0.0,0.0,0.0,0.0,0.0,0.0,0.0,0.0,0.0,0.0,0.0,0.0,0.0,0.0,0.0,0.0,0.0,0.0,0.0,0.0,0.0,0.0,0.0,0.0,0.0,0.0,0.0,0.0,0.0,0.0,0.0,0.0,0.0,0.0,0.0,0.0,0.0,0.0,0.0,0.0,0.0,0.0,0.0,0.0,0.0,0.0,0.0,0.0,0.0,0.0,0.0,0.0,0.0,0.0,0.0,0.0,0.0,0.0,0.0,0.0,0.0,0.0,0.0,0.0,0.0,0.0,0.0,0.0,0.0,0.0,0.0,0.0,0.0,0.0,0.0,0.0,0.0,0.0,0.0,0.0,0.0,0.0,0.0,0.0,0.0,0.0,0.0,0.0,0.0,0.0,0.0,0.0,0.0,3.0444,3.0887,3.109,3.0989,2.9274,2.8217,0.0,0.0,0.0,0.0,0.0,0.0,0.0,0.0,0.0,0.0,0.0,0.0,0.0,0.0,0.0,0.0,0.0,0.0,0.0,0.0,0.0,0.0,0.0,0.0,0.0,0.0,0.0,0.0,0.0,0.0,0.0,0.0,0.0,0.0,0.0,0.0,0.0,0.0,0.0,0.0,0.0,0.0,0.0,0.0,0.0,0.0,0.0,0.0,0.0,0.0,0.0,0.0,0.0,0.0,0.0,0.0,0.0,0.0,0.0,0.0,0.0,0.0,0.0,0.0,0.0,0.0,0.0,0.0,0.0,0.0,0.0,0.0,0.0,0.0,0.0,0.0,0.0,0.0,0.0,0.0,0.0,0.0,0.0,0.0,0.0,0.0,0.0,0.0,0.0,0.0,0.0,0.0,0.0,0.0,0.0,0.0,0.0,0.0,0.0,0.0,0.0,0.0,0.0,0.0,0.0,0.0,0.0,0.0,0.0,3.0359,3.0482,3.0597,3.0802,2.8361,2.7401,2.8112,0.0,0.0,0.0,0.0,0.0,0.0,0.0,0.0,0.0,0.0,0.0,0.0,0.0,0.0,0.0,0.0,0.0,0.0,0.0,0.0,0.0,0.0,0.0,0.0,0.0,0.0,0.0,0.0,0.0,0.0,0.0,0.0,0.0,0.0,0.0,0.0,0.0,0.0,0.0,0.0,0.0,0.0,0.0,0.0,0.0,0.0,0.0,0.0,0.0,0.0,0.0,0.0,0.0,0.0,0.0,0.0,0.0,0.0,0.0,0.0,0.0,0.0,0.0,0.0,0.0,0.0,0.0,0.0,0.0,0.0,0.0,0.0,0.0,0.0,0.0,0.0,0.0,0.0,0.0,0.0,0.0,0.0,0.0,0.0,0.0,0.0,0.0,0.0,0.0,0.0,0.0,0.0,0.0,0.0,0.0,0.0,0.0,0.0,0.0,0.0,0.0,0.0,0.0,0.0,0.0,0.0,0.0,0.0,3.0378,3.0402,3.009,2.9394,2.7593,2.6651,0.0,0.0,0.0,0.0,0.0,0.0,0.0,0.0,0.0,0.0,0.0,0.0,0.0,0.0,0.0,0.0,0.0,0.0,0.0,0.0,0.0,0.0,0.0,0.0,0.0,0.0,0.0,0.0,0.0,0.0,0.0,0.0,0.0,0.0,0.0,0.0,0.0,0.0,0.0,0.0,0.0,0.0,0.0,0.0,0.0,0.0,0.0,0.0,0.0,0.0,0.0,0.0,0.0,0.0,0.0,0.0,0.0,0.0,0.0,0.0,0.0,0.0,0.0,0.0,0.0,0.0,0.0,0.0,0.0,0.0,0.0,0.0,0.0,0.0,0.0,0.0,0.0,0.0,0.0,0.0,0.0,0.0,0.0,0.0,0.0,0.0,0.0,0.0,0.0,0.0,0.0,0.0,0.0,0.0,0.0,0.0,0.0,0.0,0.0,0.0,0.0,0.0,0.0,0.0,0.0,0.0,0.0,0.0,0.0,3.0356,3.0448,3.0359,3.0059,2.7829,2.6924,0.0,0.0,0.0,0.0,0.0,0.0,0.0,0.0,0.0,0.0,0.0,0.0,0.0,0.0,0.0,0.0,0.0,0.0,0.0,0.0,0.0,0.0,0.0,0.0,0.0,0.0,0.0,0.0,0.0,0.0,0.0,0.0,0.0,0.0,0.0,0.0,0.0,0.0,0.0,0.0,0.0,0.0,0.0,0.0,0.0,0.0,0.0,0.0,0.0,0.0,0.0,0.0,0.0,0.0,0.0,0.0,0.0,0.0,0.0,0.0,0.0,0.0,0.0,0.0,0.0,0.0,0.0,0.0,0.0,0.0,0.0,0.0,0.0,0.0,0.0,0.0,0.0,0.0,0.0,0.0,0.0,0.0,0.0,0.0,0.0,0.0,0.0,0.0,0.0,0.0,0.0,0.0,0.0,0.0,0.0,0.0,0.0,0.0,0.0,0.0,0.0,0.0,0.0,0.0,0.0,0.0,0.0,0.0,2.9298,2.9521,2.9809,2.9883,2.9756,2.8246,2.7495,0.0,0.0,0.0,0.0,0.0,0.0,0.0,0.0,0.0,0.0,0.0,0.0,0.0,0.0,0.0,0.0,0.0,0.0,0.0,0.0,0.0,0.0,0.0,0.0,0.0,0.0,0.0,0.0,0.0,0.0,0.0,0.0,0.0,0.0,0.0,0.0,0.0,0.0,0.0,0.0,0.0,0.0,0.0,0.0,0.0,0.0,0.0,0.0,0.0,0.0,0.0,0.0,0.0,0.0,0.0,0.0,0.0,0.0,0.0,0.0,0.0,0.0,0.0,0.0,0.0,0.0,0.0,0.0,0.0,0.0,0.0,0.0,0.0,0.0,0.0,0.0,0.0,0.0,0.0,0.0,0.0,0.0,0.0,0.0,0.0,0.0,0.0,0.0,0.0,0.0,0.0,0.0,0.0,0.0,0.0,0.0,0.0,0.0,0.0,0.0,0.0,0.0,0.0,0.0,0.0,0.0,0.0,0.0,2.8824,2.8056,2.8728,2.9002,2.8848,2.8619,2.8228,0.0,0.0,0.0,0.0,0.0,0.0,0.0,0.0,0.0,0.0,0.0,0.0,0.0,0.0,0.0,0.0,0.0,0.0,0.0,0.0,0.0,0.0,0.0,0.0,0.0,0.0,0.0,0.0,0.0,0.0,0.0,0.0,0.0,0.0,0.0,0.0,0.0,0.0,0.0,0.0,0.0,0.0,0.0,0.0,0.0,0.0,0.0,0.0,0.0,0.0,0.0,0.0,0.0,0.0,0.0,0.0,0.0,0.0,0.0,0.0,0.0,0.0,0.0,0.0,0.0,0.0,0.0,0.0,0.0,0.0,0.0,0.0,0.0,0.0,0.0,0.0,0.0,0.0,0.0,0.0,0.0,0.0,0.0,0.0,0.0,0.0,0.0,0.0,0.0,0.0,0.0,0.0,0.0,0.0,0.0,0.0,0.0,0.0,0.0,0.0,0.0,0.0,0.0,0.0,0.0,0.0,0.0,0.0,2.8396,2.6362,2.762,2.8425,2.8582,2.8537,2.8414,0.0,0.0,0.0,0.0,0.0,0.0,0.0,0.0,0.0,0.0,0.0,0.0,0.0,0.0,0.0,0.0,0.0,0.0,0.0,0.0,0.0,0.0,0.0,0.0,0.0,0.0,0.0,0.0,0.0,0.0,0.0,0.0,0.0,0.0,0.0,0.0,0.0,0.0,0.0,0.0,0.0,0.0,0.0,0.0,0.0,0.0,0.0,0.0,3.4595,0.0,0.0,0.0,0.0,0.0,0.0,0.0,0.0,0.0,0.0,0.0,0.0,0.0,0.0,0.0,0.0,0.0,0.0,0.0,0.0,0.0,0.0,0.0,0.0,0.0,0.0,0.0,0.0,0.0,0.0,0.0,0.0,0.0,0.0,0.0,0.0,0.0,0.0,0.0,0.0,0.0,0.0,0.0,0.0,0.0,0.0,0.0,0.0,0.0,0.0,0.0,0.0,0.0,0.0,0.0,0.0,0.0,0.0,0.0,2.7851,2.582,2.6913,2.7721,2.8103,2.8348,2.8239,0.0,0.0,0.0,0.0,0.0,0.0,0.0,0.0,0.0,0.0,0.0,0.0,0.0,0.0,0.0,0.0,0.0,0.0,0.0,0.0,0.0,0.0,0.0,0.0,0.0,0.0,0.0,0.0,0.0,0.0,0.0,0.0,0.0,0.0,0.0,0.0,0.0,0.0,0.0,0.0,0.0,0.0,0.0,0.0,0.0,0.0,0.0,0.0,0.0,0.0,0.0,0.0,0.0,0.0,0.0,0.0,0.0,0.0,0.0,0.0,0.0,0.0,0.0,0.0,0.0,0.0,0.0,0.0,0.0,0.0,0.0,0.0,0.0,0.0,0.0,0.0,0.0,0.0,0.0,0.0,0.0,0.0,0.0,0.0,0.0,0.0,0.0,0.0,0.0,0.0,0.0,0.0,0.0,0.0,0.0,0.0,0.0,0.0,0.0,0.0,0.0,0.0,0.0,0.0,0.0,0.0,0.0,2.7851,2.7261,2.5801,2.6339,2.6953,2.7489,2.8017,2.7811,2.6786,0.0,0.0,0.0,0.0,0.0,0.0,0.0,0.0,0.0,0.0,0.0,0.0,0.0,0.0,0.0,0.0,0.0,0.0,0.0,0.0,0.0,0.0,0.0,0.0,0.0,0.0,0.0,0.0,0.0,0.0,0.0,0.0,0.0,0.0,0.0,0.0,0.0,0.0,3.4391,3.5141,0.0,0.0,0.0,0.0,0.0,0.0,0.0,0.0,3.4109,0.0,0.0,0.0,0.0,0.0,0.0,0.0,0.0,0.0,0.0,0.0,0.0,0.0,0.0,0.0,0.0,0.0,0.0,0.0,0.0,0.0,0.0,0.0,0.0,0.0,0.0,0.0,0.0,0.0,0.0,0.0,0.0,0.0,0.0,0.0,0.0,0.0,0.0,0.0,0.0,0.0,0.0,0.0,0.0,0.0,0.0,0.0,0.0,0.0,0.0,0.0,0.0,0.0,0.0,0.0,0.0,2.8605,2.7639,2.6635,2.5644,2.5683,2.6013,2.6604,2.7197,2.6989,2.6041,0.0,0.0,0.0,0.0,0.0,0.0,0.0,0.0,0.0,0.0,0.0,0.0,0.0,0.0,0.0,0.0,0.0,0.0,0.0,0.0,0.0,0.0,0.0,0.0,0.0,0.0,0.0,0.0,0.0,0.0,0.0,0.0,0.0,0.0,0.0,0.0,0.0,0.0,0.0,3.6007,3.6295,0.0,0.0,0.0,0.0,0.0,0.0,0.0,0.0,3.4487,0.0,0.0,0.0,0.0,0.0,0.0,0.0,0.0,0.0,0.0,0.0,0.0,0.0,0.0,0.0,0.0,0.0,0.0,0.0,0.0,0.0,0.0,0.0,0.0,0.0,0.0,0.0,0.0,0.0,0.0,0.0,0.0,0.0,0.0,0.0,0.0,0.0,0.0,0.0,0.0,0.0,0.0,0.0,0.0,0.0,0.0,0.0,0.0,0.0,0.0,0.0,0.0,0.0,0.0,0.0,2.7147,2.7427,2.6923,2.5654,2.5572,2.589,2.6569,2.7086,2.6868,0.0,0.0,0.0,0.0,0.0,0.0,0.0,0.0,0.0,0.0,0.0,0.0,0.0,0.0,0.0,0.0,0.0,0.0,0.0,0.0,0.0,0.0,0.0,0.0,0.0,0.0,0.0,0.0,0.0,0.0,0.0,0.0,0.0,0.0,0.0,0.0,0.0,0.0,0.0,0.0,3.6512,3.6594,3.6008,0.0,0.0,0.0,0.0,0.0,0.0,3.325,3.3987,0.0,0.0,0.0,0.0,0.0,0.0,0.0,0.0,0.0,0.0,0.0,0.0,0.0,0.0,0.0,0.0,0.0,0.0,0.0,0.0,0.0,0.0,0.0,0.0,0.0,0.0,0.0,0.0,0.0,0.0,0.0,0.0,0.0,0.0,0.0,0.0,0.0,0.0,0.0,0.0,0.0,0.0,0.0,0.0,0.0,0.0,0.0,0.0,0.0,0.0,0.0,0.0,0.0,0.0,0.0,2.5586,2.7084,2.7152,2.5659,2.5578,2.5876,2.651,2.7115,2.6887,0.0,0.0,0.0,0.0,0.0,0.0,0.0,0.0,0.0,0.0,0.0,0.0,0.0,0.0,0.0,0.0,0.0,0.0,0.0,0.0,0.0,0.0,0.0,0.0,0.0,0.0,0.0,0.0,0.0,0.0,0.0,0.0,0.0,0.0,0.0,0.0,0.0,0.0,0.0,0.0,0.0,3.6637,3.5905,3.5009,0.0,0.0,0.0,0.0,3.3,3.3077,0.0,0.0,0.0,0.0,0.0,0.0,0.0,0.0,0.0,0.0,0.0,0.0,0.0,0.0,0.0,0.0,0.0,0.0,0.0,0.0,0.0,0.0,0.0,0.0,0.0,0.0,0.0,0.0,0.0,0.0,0.0,0.0,0.0,0.0,0.0,0.0,0.0,0.0,0.0,0.0,0.0,0.0,0.0,0.0,0.0,0.0,0.0,0.0,0.0,0.0,0.0,0.0,0.0,0.0,0.0,0.0,2.5488,2.6379,2.6439,2.5563,2.5505,2.5559,2.5654,2.6797,2.6631,0.0,0.0,0.0,0.0,0.0,0.0,0.0,0.0,0.0,0.0,0.0,0.0,0.0,0.0,0.0,0.0,0.0,0.0,0.0,0.0,0.0,0.0,0.0,0.0,0.0,0.0,0.0,0.0,0.0,0.0,0.0,0.0,0.0,0.0,0.0,0.0,0.0,0.0,0.0,0.0,0.0,3.6209,3.4337,3.4812,3.4944,0.0,0.0,3.3853,3.3715,3.3709,0.0,0.0,0.0,0.0,0.0,0.0,0.0,0.0,0.0,0.0,0.0,0.0,0.0,0.0,0.0,0.0,0.0,0.0,0.0,0.0,0.0,0.0,0.0,0.0,0.0,0.0,0.0,0.0,0.0,0.0,0.0,0.0,0.0,0.0,0.0,0.0,0.0,0.0,0.0,0.0,0.0,0.0,0.0,0.0,0.0,0.0,0.0,0.0,0.0,0.0,0.0,0.0,0.0,0.0,0.0,2.675,2.5507,2.6732,2.6815,2.5553,2.5506,2.5515,2.5517,2.629,2.6124,0.0,0.0,0.0,0.0,0.0,0.0,0.0,0.0,0.0,0.0,0.0,0.0,0.0,0.0,0.0,0.0,0.0,0.0,0.0,0.0,0.0,0.0,0.0,0.0,0.0,0.0,0.0,0.0,0.0,0.0,0.0,0.0,0.0,0.0,0.0,0.0,0.0,0.0,0.0,0.0,0.0,0.0,3.4529,3.4881,0.0,0.0,0.0,3.3192,3.3128,0.0,0.0,0.0,0.0,0.0,0.0,0.0,0.0,0.0,0.0,0.0,0.0,0.0,0.0,0.0,0.0,0.0,0.0,0.0,0.0,0.0,0.0,0.0,0.0,0.0,0.0,0.0,0.0,0.0,0.0,0.0,0.0,0.0,0.0,0.0,0.0,0.0,0.0,0.0,0.0,0.0,0.0,0.0,0.0,0.0,0.0,0.0,0.0,0.0,0.0,0.0,0.0,0.0,0.0,0.0,0.0,0.0,2.5426,2.7074,2.7152,2.5495,2.5486,2.5515,2.5517,2.5959,0.0,0.0,0.0,0.0,0.0,0.0,0.0,0.0,0.0,0.0,0.0,0.0,0.0,0.0,0.0,0.0,0.0,0.0,0.0,0.0,0.0,0.0,0.0,0.0,0.0,0.0,0.0,2.5313,0.0,0.0,0.0,0.0,0.0,0.0,0.0,0.0,0.0,0.0,0.0,0.0,0.0,0.0,3.5091,3.4264,3.4674,3.4773,0.0,0.0,3.2828,3.2807,3.177,3.1073,0.0,0.0,0.0,0.0,0.0,0.0,0.0,0.0,0.0,0.0,0.0,0.0,0.0,0.0,0.0,0.0,0.0,0.0,0.0,0.0,0.0,0.0,0.0,0.0,0.0,0.0,0.0,0.0,0.0,0.0,0.0,0.0,0.0,0.0,0.0,0.0,0.0,0.0,0.0,0.0,0.0,0.0,0.0,0.0,0.0,0.0,0.0,0.0,0.0,0.0,0.0,0.0,0.0,0.0,0.0,2.5265,2.6954,2.7026,2.5313,2.5409,2.5515,2.5517,2.5959,2.5748,0.0,0.0,0.0,0.0,0.0,0.0,0.0,0.0,0.0,0.0,0.0,0.0,0.0,0.0,0.0,0.0,0.0,0.0,0.0,0.0,0.0,0.0,0.0,0.0,0.0,0.0,0.0,0.0,0.0,0.0,0.0,0.0,0.0,0.0,0.0,0.0,0.0,0.0,0.0,0.0,0.0,3.4023,3.2602,3.3942,3.4975,0.0,0.0,3.3619,3.3389,3.2302,3.1129,2.9955,0.0,0.0,0.0,0.0,0.0,0.0,0.0,0.0,0.0,0.0,0.0,0.0,0.0,0.0,0.0,0.0,0.0,0.0,0.0,0.0,0.0,0.0,0.0,0.0,0.0,0.0,0.0,0.0,0.0,0.0,0.0,0.0,0.0,0.0,0.0,0.0,0.0,0.0,0.0,0.0,0.0,0.0,0.0,0.0,0.0,0.0,0.0,0.0,0.0,0.0,0.0,0.0,0.0,2.6401,2.5267,2.6359,2.6431,2.5428,2.5447,2.5515,2.5517,2.542,2.5213,0.0,0.0,0.0,0.0,0.0,0.0,0.0,0.0,0.0,0.0,0.0,0.0,0.0,0.0,0.0,0.0,0.0,0.0,0.0,0.0,0.0,0.0,0.0,0.0,0.0,0.0,0.0,0.0,2.645,2.7216,2.7204,0.0,0.0,0.0,0.0,0.0,0.0,0.0,0.0,0.0,0.0,3.2763,3.2362,3.2901,0.0,0.0,3.3279,3.2785,3.2674,3.1456,3.012,2.9039,2.8783,0.0,0.0,0.0,0.0,0.0,0.0,0.0,0.0,0.0,0.0,0.0,0.0,0.0,0.0,0.0,0.0,0.0,0.0,0.0,0.0,0.0,0.0,0.0,0.0,0.0,0.0,0.0,0.0,0.0,0.0,0.0,0.0,0.0,0.0,0.0,0.0,0.0,0.0,0.0,0.0,0.0,0.0,0.0,0.0,0.0,0.0,0.0,0.0,0.0,0.0,0.0,0.0,2.601,2.5214,2.5944,2.5989,2.5384,2.5453,2.5514,2.5511,2.5359,2.5058,0.0,0.0,0.0,0.0,0.0,0.0,0.0,0.0,0.0,0.0,0.0,0.0,0.0,0.0,0.0,0.0,0.0,0.0,0.0,0.0,0.0,0.0,0.0,0.0,0.0,0.0,0.0,0.0,2.6142,2.6885,2.7166,0.0,0.0,0.0,0.0,0.0,0.0,0.0,0.0,0.0,0.0,3.1937,3.1962,3.209,3.2358,3.2835,3.2279,3.1795,3.172,3.0628,2.9412,2.8414,0.0,0.0,0.0,0.0,0.0,0.0,0.0,0.0,0.0,0.0,0.0,0.0,0.0,0.0,0.0,0.0,0.0,0.0,0.0,0.0,0.0,0.0,0.0,0.0,0.0,0.0,0.0,0.0,0.0,0.0,2.479,0.0,0.0,0.0,0.0,0.0,0.0,0.0,0.0,0.0,0.0,0.0,0.0,0.0,0.0,0.0,0.0,0.0,0.0,0.0,0.0,0.0,0.0,2.5924,2.5041,2.5837,2.5888,2.5139,2.5364,2.5505,2.5522,2.591,2.545,2.3994,0.0,0.0,0.0,0.0,0.0,0.0,0.0,0.0,0.0,0.0,0.0,0.0,0.0,0.0,0.0,0.0,0.0,0.0,0.0,0.0,0.0,0.0,0.0,0.0,0.0,0.0,2.503,2.4915,2.5286,0.0,0.0,0.0,0.0,0.0,0.0,0.0,0.0,0.0,0.0,3.1308,3.1685,3.1129,3.1686,3.2072,3.1867,3.1339,3.0891,3.0698,3.0137,2.9282,0.0,0.0,0.0,0.0,0.0,0.0,0.0,0.0,0.0,0.0,0.0,0.0,0.0,0.0,0.0,0.0,0.0,0.0,0.0,0.0,0.0,0.0,0.0,0.0,0.0,0.0,0.0,2.4133,2.4133,0.0,0.0,0.0,0.0,0.0,0.0,0.0,0.0,0.0,0.0,0.0,1.931,1.8597,0.0,0.0,0.0,0.0,0.0,0.0,0.0,0.0,0.0,0.0,0.0,0.0,2.5343,2.5212,2.5254,2.5298,2.5316,2.5427,2.5503,2.5506,2.5393,2.4841,2.3817,0.0,0.0,0.0,0.0,0.0,0.0,0.0,0.0,0.0,0.0,0.0,0.0,0.0,0.0,0.0,0.0,0.0,0.0,0.0,0.0,0.0,0.0,0.0,0.0,0.0,2.5032,0.0,0.0,0.0,0.0,0.0,0.0,0.0,0.0,0.0,0.0,0.0,2.9591,3.0448,3.0835,3.0832,3.0282,3.0433,3.0706,0.0,0.0,0.0,0.0,0.0,0.0,0.0,0.0,0.0,0.0,0.0,0.0,0.0,0.0,3.2096,3.2097,3.2321,3.2417,3.2141,0.0,0.0,0.0,0.0,0.0,0.0,0.0,0.0,0.0,0.0,0.0,0.0,0.0,0.0,2.3159,0.0,2.3322,0.0,0.0,0.0,0.0,0.0,0.0,0.0,0.0,2.0258,1.8906,1.7791,1.6863,1.6049,0.0,1.6375,1.7993,0.0,0.0,0.0,0.0,0.0,0.0,0.0,0.0,2.4993,2.5182,2.4936,2.4987,2.537,2.5466,2.5507,2.5492,2.524,2.4783,2.4094,2.4069,2.3739,0.0,0.0,0.0,0.0,0.0,0.0,0.0,0.0,0.0,0.0,0.0,0.0,0.0,0.0,0.0,0.0,0.0,0.0,0.0,0.0,0.0,0.0,0.0,2.4644,0.0,0.0,0.0,0.0,0.0,0.0,0.0,0.0,0.0,2.8082,2.8551,2.9136,3.0407,3.0585,3.0435,2.9928,0.0,0.0,0.0,0.0,0.0,0.0,0.0,2.9808,2.86,2.7315,2.6547,2.6842,2.8228,2.9538,3.0142,0.0,0.0,3.1794,3.2108,3.2289,3.2045,3.2659,3.31,3.2851,3.2818,3.2645,0.0,0.0,0.0,0.0,0.0,0.0,0.0,0.0,2.1776,2.1776,0.0,2.2253,0.0,0.0,0.0,0.0,0.0,0.0,0.0,0.0,2.0318,1.814,1.5121,1.4424,1.3121,1.1395,1.2892,1.4251,1.5502,1.8872,0.0,0.0,0.0,0.0,0.0,0.0,2.4926,2.4998,2.4883,2.4987,2.538,2.5457,2.5512,2.546,2.5486,2.5244,2.4739,2.4104,2.3326,2.2489,2.2879,0.0,0.0,0.0,0.0,0.0,0.0,0.0,0.0,0.0,0.0,0.0,0.0,0.0,0.0,0.0,0.0,0.0,0.0,0.0,0.0,2.3474,0.0,0.0,0.0,0.0,0.0,0.0,0.0,0.0,0.0,0.0,2.6853,2.7478,2.841,3.0221,0.0,0.0,0.0,0.0,2.9694,2.944,2.9407,2.9331,2.91,2.9194,2.8798,2.7391,0.0,0.0,2.5144,2.6667,2.7948,2.7879,2.9147,3.0686,3.175,3.1669,3.1655,3.2306,3.1936,3.1688,3.2355,3.2542,3.234,1.9074,0.0,0.0,0.0,0.0,2.0791,2.0337,1.9808,1.9568,1.9478,1.9512,2.0463,0.0,0.0,0.0,0.0,0.0,0.0,1.9691,1.8815,1.682,1.5608,1.4982,1.3162,1.1282,0.9482,0.9917,1.0824,1.2263,1.5886,1.9304,2.24,0.0,0.0,0.0,0.0,2.4888,2.5,2.4874,2.4987,2.538,2.5456,2.537,2.5069,2.5356,2.4998,2.3981,2.4309,2.3978,2.2903,2.3145,0.0,0.0,0.0,0.0,0.0,0.0,0.0,0.0,0.0,0.0,0.0,0.0,0.0,0.0,0.0,0.0,0.0,0.0,0.0,2.1079,2.2472,2.33,0.0,0.0,0.0,0.0,0.0,0.0,0.0,0.0,0.0,2.461,2.6959,2.8781,0.0,0.0,3.0349,2.9842,2.9784,2.9637,2.9175,0.0,0.0,0.0,2.9018,2.8446,2.7654,2.6466,2.5461,2.4798,2.5161,2.5723,2.633,2.6455,2.6956,2.872,3.0823,3.1903,3.1644,3.1841,3.2213,3.2288,3.202,3.168,1.6529,1.8845,1.9667,1.9839,1.9535,1.9151,1.8593,1.7913,1.7705,1.7644,1.7683,1.8524,1.9019,1.9269,1.9727,0.0,0.0,0.0,1.6727,1.5973,1.3987,1.2897,1.2351,0.9879,0.7453,0.5321,0.5531,0.6282,0.7442,1.1582,1.6386,2.1568,0.0,0.0,2.4472,2.4703,2.4839,2.4908,2.4856,2.5006,2.5418,2.552,2.5511,2.5401,2.5463,2.5183,2.4551,2.478,2.4406,2.3238,2.3279,2.3245,0.0,0.0,0.0,0.0,0.0,0.0,0.0,0.0,0.0,0.0,0.0,2.342,2.2068,0.0,0.0,0.0,2.1112,2.0731,2.058,2.1759,0.0,0.0,0.0,0.0,0.0,0.0,0.0,2.0632,2.0711,2.1321,2.2856,2.5499,2.7693,2.8733,2.9237,2.9484,2.9385,0.0,2.9283,2.9165,2.9123,2.914,2.9087,2.8495,2.7736,2.6866,2.5798,2.474,2.3971,2.3837,2.3911,2.418,2.4343,2.4907,2.6318,2.8738,3.0567,3.0395,3.0864,3.1258,3.113,3.0921,3.0757,1.3741,1.5054,1.6616,1.7408,1.7554,1.7514,1.6887,1.5973,1.5917,1.593,1.596,1.6424,1.6956,1.7479,1.6921,0.0,1.6109,1.4713,1.3809,1.3135,1.179,1.0368,0.8758,0.5646,0.2565,-0.0333,0.0219,0.0916,0.1889,0.6591,1.3007,2.0759,2.133,2.2537,2.443,2.4702,2.4816,2.4802,2.4821,2.5038,2.5493,2.5605,2.5821,2.6088,2.5829,2.5787,2.5875,2.545,2.4687,2.353,2.3341,2.3134,2.2873,0.0,0.0,0.0,0.0,0.0,0.0,0.0,0.0,0.0,0.0,0.0,0.0,0.0,0.0,0.0,2.077,0.0,2.0866,2.1234,0.0,0.0,0.0,2.0779,2.0448,1.8977,1.8136,1.8425,0.0,0.0,2.1369,0.0,2.5644,2.7707,2.7995,2.8177,2.8696,2.8604,2.8661,2.9008,2.856,2.8153,2.8036,2.7341,2.6437,2.5394,2.4634,2.3888,2.2905,2.2618,2.236,2.1899,2.2841,2.4073,2.4673,2.6333,2.77,2.9086,2.937,2.9409,2.9483,2.9715,2.991,1.1023,1.1868,1.277,1.3965,1.5239,1.4786,1.3895,1.2847,1.2809,1.2799,1.2837,1.3831,1.4574,1.5091,1.5293,1.5351,1.5158,1.373,1.2369,1.1124,0.9941,1.0219,1.1515,0.5588,0.055,-0.3304,-0.4346,-0.412,-0.2636,0.3368,1.0879,1.9158,1.9468,2.1158,2.4456,2.4739,2.4813,2.482,2.4903,2.511,2.5405,2.5489,2.5704,2.6071,2.689,2.6892,2.5927,2.5433,2.487,2.4197,2.3325,2.2927,2.315,2.2483,0.0,0.0,0.0,0.0,0.0,0.0,0.0,0.0,0.0,2.2866,2.1017,0.0,2.139,0.0,2.1562,2.1221,1.9778,2.0501,0.0,0.0,1.9531,1.8874,1.8126,1.6606,1.553,1.5318,1.6685,1.8214,1.9625,2.2094,2.4257,2.5793,2.7147,2.7929,2.7735,2.7611,2.7453,2.7276,2.6724,2.6204,2.6155,2.5013,2.4253,2.4356,2.3661,2.2842,2.2062,2.1946,2.1744,2.1205,2.1659,2.2847,2.4477,2.5598,2.6722,2.8232,2.88,2.8979,2.9071,2.9529,2.9887,0.8899,0.9862,1.0562,1.1271,1.1974,1.2167,1.1554,1.0362,1.0362,1.0362,1.0463,1.1904,1.2471,1.2292,1.1259,1.0298,0.9438,0.8118,0.7087,0.6297,0.5748,0.6465,0.7935,0.3434,-0.0988,-0.5062,-0.564,-0.5827,-0.5139,0.1704,0.9269,1.7041,1.8585,2.1139,2.4651,2.4422,2.4257,2.4349,2.4936,2.5294,2.5449,2.5971,2.6371,2.6587,2.7466,2.7604,2.6825,2.5773,2.5067,2.4736,2.3721,2.3199,2.3416,2.2524,2.2366,0.0,0.0,0.0,0.0,0.0,0.0,0.0,0.0,0.0,0.0,0.0,2.117,2.0788,2.108,2.0637,1.8971,1.9346,1.9326,1.836,1.7255,1.6321,1.5603,1.4073,1.3087,1.3139,1.4649,1.6294,1.7911,2.0683,2.3052,2.4362,2.5873,2.684,2.6813,2.6719,2.6651,2.6567,2.6091,2.5607,2.5351,2.4279,2.3492,2.3594,2.3328,2.2727,2.1863,2.1685,2.1493,2.0997,2.1305,2.2218,2.3794,2.4592,2.5678,2.7525,2.8018,2.8246,2.9001,2.9542,2.987,0.749,0.8566,0.9323,0.9152,0.8468,0.9372,0.93,0.8534,0.8476,0.8417,0.8482,0.9693,0.9753,0.883,0.6176,0.3999,0.2204,0.0923,0.0383,0.0383,0.0607,0.1167,0.184,0.0442,-0.2172,-0.5706,-0.5371,-0.5673,-0.6298,0.0931,0.7975,1.4548,1.8037,2.1425,2.4648,2.3882,2.3606,2.4025,2.5003,2.5504,2.5527,2.6604,2.7198,2.7213,2.7768,2.8027,2.7862,2.6267,2.5303,2.5173,2.4168,2.355,2.3488,2.2601,2.2415,0.0,2.2651,0.0,0.0,0.0,0.0,0.0,0.0,0.0,0.0,2.072,2.078,1.9605,1.9779,1.947,1.8337,1.7983,1.7393,1.6357,1.4821,1.3565,1.2941,1.1452,1.0711,1.1221,1.2647,1.4317,1.6277,1.9404,2.2063,2.3448,2.4703,2.5595,2.5915,2.5901,2.5944,2.6272,2.5919,2.5181,2.4652,2.3995,2.3375,2.3045,2.3079,2.2863,2.1888,2.1707,2.1527,2.1005,2.1316,2.206,2.3038,2.3799,2.5057,2.7297,2.7429,2.7607,2.8935,2.9587,2.9872,0.7751,0.7643,0.8251,0.7767,0.6567,0.5253,0.5851,0.7586,0.7192,0.702,0.6848,0.5247,0.3977,0.3002,0.2466,0.1098,-0.0771,-0.2609,-0.3456,-0.3458,-0.336,-0.2012,0.0279,-0.0868,-0.2987,-0.5693,-0.5796,-0.5658,-0.5247,0.0356,0.6886,1.4135,1.6915,1.9942,2.3199,0.0,0.0,0.0,2.543,2.5541,2.5547,2.6604,2.7198,2.7229,2.8091,0.0,2.7901,2.6817,2.5924,2.5211,2.4112,0.0,0.0,0.0,0.0,0.0,0.0,0.0,0.0,0.0,0.0,0.0,1.9341,1.8842,1.8878,1.9164,1.8957,1.8108,1.8129,1.7957,1.7398,1.6615,1.5737,1.466,1.3185,1.1705,1.0317,0.9106,0.8452,0.8594,1.093,1.3238,1.5105,1.8741,2.1807,2.3156,2.4403,2.5056,2.5076,2.5084,2.4936,2.469,2.4272,2.3661,2.3189,2.2591,2.2213,2.2176,2.2368,2.2282,2.1858,2.171,2.1484,2.0941,2.1318,2.189,2.2586,2.391,2.5344,2.6957,2.7467,2.7969,2.8897,2.9457,2.982,0.7758,0.0,0.797,0.7512,0.0,0.3465,0.2847,0.3704,0.3473,0.3361,0.3247,0.203,0.0934,-0.011,-0.1102,-0.2047,-0.3005,-0.4024,-0.4477,-0.448,-0.4497,-0.3307,-0.1114,-0.1565,-0.3096,-0.5521,-0.5688,-0.5396,-0.4434,0.1019,0.6695,1.2342,1.6633,2.0392,2.3502,2.3945,2.4178,2.4272,2.5138,2.5584,2.5562,2.6889,2.7484,2.7244,0.0,0.0,0.0,0.0,0.0,0.0,0.0,0.0,0.0,0.0,0.0,2.1371,2.0786,2.0448,2.0566,1.9814,1.9159,1.8761,1.7098,1.6668,1.8035,1.8046,1.7789,1.7379,1.6972,1.6549,1.6027,1.5142,1.4017,1.2675,1.1122,0.9769,0.8798,0.7426,0.667,0.7113,0.9352,1.1892,1.396,1.782,2.0963,2.2625,2.4076,2.4875,2.4682,2.4742,2.4654,2.4247,2.3649,2.3141,2.2905,2.2186,2.1542,2.1584,2.1961,2.2095,2.1757,2.17,2.1566,2.1352,2.1514,2.1889,2.2474,2.3697,2.4985,2.6041,2.6854,2.7477,2.8076,2.8985,2.9801,0.7512,0.6915,0.766,0.7242,0.5835,0.2793,0.0569,-0.0778,0.0,0.0,0.0,-0.0776,-0.1275,-0.2166,-0.3738,-0.4477,-0.4477,-0.4467,-0.4463,-0.4467,-0.4487,-0.3814,-0.2619,-0.1824,-0.2736,-0.4943,-0.525,-0.492,-0.3851,0.2009,0.6803,1.0661,1.6501,2.0985,2.3868,2.505,2.4874,2.3614,2.488,2.5567,2.5549,2.7034,2.7654,2.7205,2.835,2.8636,2.7924,2.7157,2.6286,2.5268,2.4759,2.4194,2.346,2.2271,2.1431,2.1178,2.0255,1.9585,1.9356,1.8455,1.7639,1.7024,1.4754,1.4406,1.6779,1.6545,1.6375,1.6517,1.5681,1.5006,1.475,1.3655,1.2431,1.0985,0.9494,0.8421,0.7699,0.6116,0.5236,0.6002,0.8206,1.0693,1.3234,1.6974,2.0154,2.194,2.3594,2.4648,2.4538,2.4607,2.4561,2.4228,2.372,2.328,2.3076,2.2451,2.1688,2.1535,2.1881,2.2093,2.1892,2.1674,2.1556,2.144,2.1499,2.1668,2.2124,2.3009,2.4053,2.4929,2.5777,2.6552,2.7198,2.8329,2.9413,0.6932,0.6447,0.6469,0.61,0.5335,0.2809,-0.04,-0.3802,-0.386,-0.3863,-0.3863,-0.3858,-0.3965,-0.4079,-0.4353,-0.4463,-0.4463,-0.4463,-0.4467,0.0,-0.4487,-0.4389,-0.4039,-0.1468,-0.1514,-0.3738,-0.4475,-0.4144,-0.2461,0.2457,0.6778,1.0346,1.5574,1.9936,2.3036,2.4724,2.5438,2.5339,2.5486,2.5569,2.5523,2.64,2.7,2.7223,2.8041,2.832,2.7939,2.7759,2.6939,2.5279,2.5163,2.4396,2.2918,2.1708,2.0756,2.0135,1.902,1.8016,1.7209,1.6691,1.5534,1.3595,1.2028,1.2012,1.3884,1.3612,1.3579,1.4126,1.3427,1.3206,1.3796,1.2435,1.1082,1.0312,0.9524,0.8342,0.6477,0.487,0.4409,0.5754,0.7755,1.0228,1.3161,1.6663,1.9647,2.1294,2.3162,2.4225,2.4407,2.4368,2.4266,2.4172,2.3892,2.3521,2.3252,2.2873,2.2541,2.2481,2.2214,2.2213,2.2223,2.153,2.1027,2.0863,2.0932,2.0936,2.1042,2.1879,2.2895,2.3785,2.4461,2.5276,2.6489,2.7476,2.8398,0.6697,0.6138,0.6179,0.5892,0.5036,0.0407,-0.2717,-0.4435,-0.4494,-0.449,-0.4487,-0.4487,-0.449,-0.4487,-0.4484,-0.448,-0.448,-0.448,-0.448,-0.4369,-0.2964,-0.2286,-0.211,-0.0707,-0.102,-0.2891,-0.3712,-0.3541,-0.2173,0.1617,0.5908,1.0612,1.6869,2.1015,2.2823,2.4612,2.5548,2.5573,2.5551,2.5505,2.5428,2.6245,2.6871,2.7222,2.7975,2.8244,2.7888,2.7893,2.7091,2.5263,2.5188,2.4594,2.3255,2.1724,2.0637,2.0005,1.8234,1.6868,1.6147,1.5012,1.3338,1.1046,0.993,0.9639,1.0359,1.0669,1.1223,1.2082,1.1589,1.1513,1.2212,1.1297,1.0283,0.9406,0.852,0.703,0.5062,0.4355,0.4661,0.6289,0.8041,1.05,1.4019,1.6834,1.9551,2.183,2.3422,2.4155,2.4332,2.4284,2.4208,2.4171,2.3913,2.3664,2.3486,2.3425,2.3251,2.3029,2.2947,2.2774,2.2504,2.1591,2.1,2.0729,2.0705,2.0705,2.0677,2.1613,2.23,2.2397,2.3737,2.4816,2.5553,2.6782,2.8347,0.6142,0.5549,0.5748,0.5451,0.4299,-0.1142,-0.3851,-0.4501,-0.4504,-0.4494,-0.4432,-0.415,-0.3984,-0.3984,-0.3984,-0.3984,-0.3984,-0.3984,-0.3811,-0.3292,-0.1302,-0.0053,0.0474,0.0694,-0.019,-0.1966,-0.3086,-0.3064,-0.183,0.0896,0.554,1.1792,1.8287,2.1861,2.2594,2.4408,2.537,2.5446,2.5376,2.5348,2.5322,2.6033,2.6653,2.7205,2.7803,2.8056,2.7906,2.79,2.7073,2.5364,2.5224,2.4712,2.3621,2.1755,2.0514,1.9918,1.7804,1.6083,1.5242,1.3552,1.1541,0.9364,0.8456,0.7845,0.7594,0.826,0.9359,1.0426,1.0502,1.0532,1.1234,1.0829,1.006,0.9093,0.7919,0.6481,0.4526,0.4464,0.5551,0.7373,0.8758,1.102,1.4616,1.7092,1.9532,2.2439,2.3714,2.4056,2.417,2.4319,2.4467,2.4411,2.4244,2.4124,2.4021,2.4162,2.4178,2.3869,2.356,2.3273,2.2706,2.1942,2.1075,2.0685,2.0526,2.0436,2.0527,2.1078,2.147,2.1338,2.2559,2.4,2.4808,2.6527,2.8301,0.4685,0.4643,0.4695,0.4008,0.2809,0.0467,-0.2011,-0.4231,-0.4455,-0.4514,-0.4392,-0.3019,-0.2345,-0.24,-0.2289,-0.2287,-0.2343,-0.24,-0.1726,-0.0556,-0.0166,0.1091,0.3023,0.3174,0.167,-0.113,-0.2831,-0.2865,-0.1413,0.1304,0.6397,1.3865,1.8547,2.1173,2.2325,2.3981,2.5011,2.5313,2.5037,2.5006,2.5274,2.538,2.5994,2.717,2.7269,2.7503,2.7872,2.7897,2.7073,2.5397,2.5188,2.4697,2.3546,2.1442,2.0173,2.0045,1.7787,1.5856,1.4323,1.2443,1.0621,0.8942,0.7948,0.7186,0.665,0.6963,0.809,0.973,1.0215,1.0778,1.209,1.1479,1.0659,0.9962,0.8723,0.737,0.603,0.5717,0.6811,0.9538,0.988,1.1364,1.4758,1.7388,1.9851,2.2768,2.3588,2.3992,2.4317,2.48,2.5242,2.5278,2.5271,2.5142,2.4942,2.5105,2.5349,2.5559,2.4143,2.3523,2.3353,2.213,2.0435,2.084,2.022,1.9906,1.9876,1.9969,2.0142,2.0597,2.1424,2.2503,2.4661,2.6475,2.767,0.3166,0.3211,0.4123,0.4244,0.3491,0.1085,-0.0681,-0.1908,-0.3778,-0.4468,-0.3893,-0.0112,0.1732,0.1786,0.1788,0.1282,0.0389,0.0218,0.0547,0.1381,0.2297,0.336,0.43,0.3822,0.259,0.0679,-0.216,-0.3283,-0.1624,0.3783,0.9274,1.3675,1.7707,2.0303,2.1655,2.3541,2.4651,2.4877,2.4829,2.5123,2.5677,2.5273,2.565,2.6854,2.7025,2.7285,2.7824,2.7897,2.7073,2.538,2.5188,2.4712,2.3623,2.167,2.043,1.996,1.7137,1.4888,1.3597,1.1921,1.0154,0.8296,0.7232,0.6453,0.5959,0.6204,0.7293,0.8996,0.9875,1.0647,1.1479,1.148,1.1172,1.0496,0.9214,0.7989,0.7304,0.7025,0.7639,0.9241,1.0632,1.2531,1.5577,1.8852,2.1351,2.3029,2.3628,2.418,2.4799,2.5206,2.5571,2.6051,2.648,2.6516,2.6077,2.6054,2.6286,2.6201,2.5394,2.468,2.4226,2.2887,2.1387,2.1218,2.0394,1.9852,1.9771,1.9705,1.9797,2.0294,2.1584,2.3055,2.4942,2.6353,2.7278,0.1625,0.1903,0.3655,0.4514,0.4228,0.1289,-0.0,-0.0,-0.2361,-0.3268,-0.2701,0.2242,0.4511,0.4507,0.4511,0.3802,0.2751,0.2475,0.2622,0.3065,0.4246,0.4918,0.5053,0.4613,0.3663,0.2115,-0.062,-0.169,-0.0349,0.5925,1.0788,1.3088,1.6618,1.9369,2.1157,2.3049,2.4187,2.4588,2.4819,2.5338,2.5903,2.5579,2.5923,2.7065,2.7118,2.7323,2.7865,2.7811,2.6953,2.5297,2.5188,2.4626,2.3375,2.1666,2.0232,1.9033,1.6353,1.437,1.3557,1.1822,1.0114,0.8459,0.7348,0.6585,0.6269,0.6681,0.7674,0.9123,1.0326,1.1248,1.1393,1.1962,1.205,1.1357,0.9924,0.8893,0.8356,0.8099,0.8394,0.9542,1.1545,1.4019,1.6995,2.002,2.2214,2.3058,2.3804,2.4533,2.5315,2.5779,2.6323,2.6872,2.7588,2.773,2.7127,2.6979,2.7004,2.6782,2.6208,2.5295,2.4962,2.3356,2.217,2.1683,2.0727,2.033,2.052,2.0393,2.0385,2.0842,2.2061,2.3747,2.4965,2.6251,2.692,0.0112,0.0559,0.3258,0.4284,0.4172,0.1233,-0.0,-0.0,-0.0,-0.0,-0.0,0.2977,0.4452,0.4497,0.4549,0.431,0.3924,0.3791,0.4092,0.47,0.4977,0.5197,0.5487,0.5841,0.492,0.3081,0.1949,0.2654,0.5183,0.7595,0.9904,1.227,1.5458,1.8311,2.0766,2.2393,2.3657,2.4557,2.5073,2.5541,2.5886,2.6309,2.698,2.788,2.7653,2.7586,2.7847,2.753,2.6676,2.528,2.5204,2.4469,2.2833,2.1122,1.9162,1.7007,1.5501,1.4698,1.431,1.2289,1.0463,0.9587,0.8637,0.7934,0.7248,0.8285,0.9435,1.0463,1.19,1.2818,1.2637,1.3288,1.3437,1.2478,1.1306,1.0145,0.9095,0.9059,0.9596,1.1031,1.2855,1.5539,1.9311,2.0588,2.1852,2.2987,2.3916,2.4716,2.5603,2.6776,2.7463,2.7812,2.8283,2.8668,2.7926,2.768,2.7771,2.749,2.6628,2.5528,2.4614,2.3735,2.3012,2.2267,2.1621,2.1323,2.1536,2.1704,2.1858,2.2285,2.3058,2.4329,2.5212,2.6038,2.6674,0.2296,0.1395,0.1566,0.1623,0.1511,0.0448,-0.0,-0.0,-0.0,-0.0,-0.0,0.2181,0.3588,0.4494,0.4967,0.4765,0.4151,0.4058,0.443,0.5212,0.5927,0.6485,0.6842,0.7257,0.6775,0.5448,0.4236,0.4928,0.7137,0.8269,0.9922,1.2378,1.513,1.7774,1.9992,2.168,2.3209,2.4632,2.4994,2.5732,2.6943,2.7295,2.7794,2.8577,2.7775,2.75,2.7883,2.7517,2.6805,2.5749,2.5389,2.4595,2.3134,2.0796,1.8907,1.7583,1.6107,1.5119,1.4571,1.3082,1.1373,0.9822,0.8948,0.818,0.7709,0.8454,0.946,1.0365,1.2384,1.3589,1.3712,1.4169,1.4387,1.3848,1.264,1.1628,1.1349,1.0911,1.0983,1.2341,1.4431,1.7182,1.9406,2.0863,2.2003,2.3611,2.4391,2.533,2.6612,2.7493,2.8003,2.8462,2.8787,2.8925,2.8686,2.8354,2.8139,2.7798,2.7113,2.6302,2.5409,2.4747,2.4041,2.331,2.2623,2.2269,2.2401,2.2291,2.2589,2.3429,2.4223,2.4765,2.5521,2.6212,2.659,0.3875,0.285,0.1899,0.0894,-0.0,-0.0,-0.0,-0.0,0.1009,0.1458,-0.0,0.2516,0.3524,0.4418,0.4907,0.4923,0.4606,0.4692,0.5266,0.6207,0.7026,0.7701,0.8278,0.8565,0.816,0.7065,0.5639,0.6051,0.813,0.9171,1.0703,1.2725,1.5028,1.7383,1.9609,2.1211,2.2842,2.4397,2.5082,2.608,2.7465,2.7999,2.8429,2.8764,2.799,2.7576,2.7871,2.7396,2.6779,2.6051,2.548,2.4414,2.26,2.0182,1.8493,1.7774,1.6436,1.5414,1.4892,1.3637,1.2209,1.0847,0.9811,0.8938,0.8566,0.9332,1.0045,1.1039,1.273,1.4349,1.4644,1.5045,1.5271,1.4904,1.366,1.2765,1.2761,1.2241,1.2686,1.4183,1.609,1.8159,1.9893,2.107,2.2298,2.3859,2.4797,2.6152,2.7251,2.8003,2.8331,2.887,2.8938,2.8975,2.8888,2.8694,2.8438,2.8094,2.7578,2.6857,2.6153,2.5546,2.4996,2.4296,2.3805,2.3442,2.3152,2.2956,2.3474,2.4367,2.4834,2.5346,2.5881,2.6315,2.6657,0.4497,0.4379,0.4452,0.2689,-0.0,-0.0,-0.0,-0.0,0.2919,0.3825,0.3881,0.4317,0.4366,0.4563,0.4674,0.4733,0.5457,0.6108,0.6895,0.7771,0.8024,0.871,0.969,0.9831,0.9188,0.7804,0.6147,0.6538,0.8586,1.0493,1.2097,1.3314,1.4817,1.707,1.9847,2.0925,2.2445,2.413,2.5369,2.6379,2.7254,2.8317,2.8879,2.8929,2.8254,2.7837,2.7869,2.7129,2.6522,2.6051,2.5445,2.3824,2.1311,1.923,1.7921,1.7353,1.6275,1.5671,1.5433,1.3956,1.3045,1.2325,1.1469,1.0653,1.0513,1.1086,1.1773,1.2502,1.3715,1.4869,1.544,1.5978,1.6151,1.562,1.4416,1.3507,1.3132,1.2899,1.3911,1.6283,1.7599,1.8684,2.0076,2.1337,2.2489,2.3748,2.5265,2.6734,2.7396,2.8191,2.881,2.8957,2.8975,2.8975,2.8975,2.8952,2.8749,2.8446,2.7855,2.7213,2.6485,2.5883,2.5563,2.498,2.4806,2.4446,2.4505,2.4376,2.4563,2.5227,2.5579,2.5832,2.6179,2.6521,2.6793,0.448,0.4473,0.4487,0.3577,0.2062,0.1673,0.1507,0.1564,0.2629,0.3477,0.4327,0.4484,0.4864,0.5454,0.5712,0.6216,0.7014,0.7699,0.7973,0.7903,0.8749,0.9516,1.0186,1.088,1.0612,0.9478,0.8243,0.8445,1.0074,1.1719,1.2976,1.3923,1.5016,1.6832,1.911,2.0503,2.2184,2.4173,2.5063,2.6224,2.7846,2.8352,2.8707,2.8905,2.8281,2.7883,2.7842,2.7123,2.664,2.6455,2.5205,2.3349,2.0998,1.908,1.804,1.7787,1.6837,1.6001,1.5599,1.5051,1.4104,1.3084,1.2384,1.1733,1.1019,1.1451,1.2104,1.2822,1.3924,1.4971,1.5543,1.6151,1.638,1.6238,1.5141,1.4501,1.4567,1.4665,1.5485,1.6837,1.7746,1.9069,2.0926,2.2032,2.2981,2.4713,2.5924,2.6737,2.7779,2.8283,2.8714,2.8902,2.8938,2.8975,2.8975,2.8975,2.8887,2.8658,2.8192,2.7601,2.6894,2.6419,2.609,2.5798,2.5645,2.5565,2.5648,2.5635,2.5672,2.5819,2.6038,2.6247,2.6419,2.6691,2.7046,0.447,0.4463,0.4473,0.4135,0.3569,0.3183,0.3077,0.3074,0.3072,0.358,0.4428,0.475,0.5179,0.5782,0.6317,0.702,0.7717,0.8215,0.8371,0.8479,0.9497,1.059,1.1435,1.2016,1.2224,1.1621,1.0553,1.0684,1.2033,1.3192,1.4104,1.472,1.5678,1.7048,1.8786,2.0116,2.1875,2.3936,2.4641,2.5849,2.7609,2.8246,2.8594,2.8846,2.8282,2.7883,2.772,2.7046,2.6708,2.6387,2.4891,2.2952,2.1128,1.9425,1.8288,1.7961,1.7308,1.6554,1.602,1.5683,1.5198,1.4021,1.3423,1.286,1.2145,1.2209,1.2511,1.3178,1.4075,1.4971,1.5555,1.6139,1.6479,1.6479,1.5644,1.5255,1.5572,1.5776,1.6383,1.7411,1.8285,1.9736,2.1217,2.2724,2.3537,2.537,2.6264,2.6877,2.7929,2.8288,2.8607,2.8842,2.8957,2.8975,2.8975,2.8975,2.8975,2.8797,2.8565,2.7977,2.7285,2.7065,2.6808,2.6385,2.6168,2.6184,2.621,2.6087,2.6071,2.628,2.6436,2.6505,2.664,2.7045,2.7454,0.4463,0.4463,0.4473,0.4477,0.4418,0.4373,0.4376,0.4487,0.448,0.4584,0.4857,0.5336,0.5651,0.5814,0.6529,0.7182,0.767,0.7937,0.8659,0.9614,1.0501,1.1603,1.3172,1.3324,1.3448,1.363,1.2754,1.2893,1.3828,1.4637,1.5441,1.5668,1.6561,1.7705,1.8844,1.9847,2.1595,2.3572,2.4263,2.5467,2.7261,2.7929,2.8476,2.8817,2.819,2.7736,2.7465,2.7002,2.6674,2.632,2.4425,2.2801,2.1568,1.9932,1.8612,1.8185,1.7606,1.7076,1.6559,1.6037,1.5599,1.5318,1.4495,1.3815,1.3524,1.3153,1.317,1.3768,1.4376,1.4971,1.5644,1.6355,1.6696,1.6658,1.6132,1.5744,1.5672,1.6103,1.701,1.8108,1.9248,2.0415,2.1688,2.3235,2.4227,2.5279,2.6407,2.7178,2.7776,2.8188,2.8518,2.8764,2.8975,2.8975,2.8975,2.8975,2.8975,2.8929,2.8749,2.8348,2.7741,2.7502,2.7178,2.6822,2.6573,2.6641,2.6624,2.6436,2.6385,2.6539,2.6624,2.6708,2.6894,2.7215,2.8049,0.4463,0.4463,0.4463,0.4467,0.447,0.447,0.4798,0.523,0.5226,0.55,0.5991,0.6204,0.6578,0.7117,0.7289,0.7836,0.8315,0.848,0.9242,1.0415,1.0669,1.1944,1.3558,1.4209,1.4429,1.4541,1.4539,1.4485,1.4564,1.5217,1.57,1.6207,1.6931,1.7785,1.8878,2.0273,2.1799,2.3298,2.4295,2.5496,2.7002,2.747,2.78,2.8099,2.773,2.7435,2.7322,2.692,2.627,2.5394,2.4074,2.269,2.1609,1.9983,1.8927,1.8687,1.7908,1.7297,1.706,1.6552,1.6108,1.5653,1.526,1.473,1.3859,1.3666,1.3884,1.4329,1.4652,1.5164,1.6156,1.7209,1.7863,1.8175,1.7235,1.638,1.6378,1.6736,1.7649,1.914,1.976,2.1066,2.277,2.3891,2.4769,2.5899,2.6571,2.7144,2.7625,2.7959,2.8261,2.8753,2.8994,2.8994,2.8975,2.8975,2.8975,2.8994,2.8863,2.8707,2.8139,2.7701,2.7255,2.6791,2.6657,2.6691,2.6708,2.6624,2.6691,2.6708,2.6708,2.6725,2.6928,2.7284,2.8541,0.4897,0.4948,0.5281,0.5391,0.5386,0.5391,0.5605,0.5923,0.5982,0.6199,0.6583,0.6966,0.7289,0.767,0.8049,0.8374,0.8752,0.8804,0.9562,1.0855,1.1975,1.3158,1.4261,1.5186,1.5796,1.5828,1.625,1.6343,1.625,1.638,1.6697,1.7136,1.7639,1.8246,1.8936,2.0318,2.1781,2.3087,2.4148,2.536,2.6886,2.7192,2.7444,2.7642,2.7444,2.7251,2.7046,2.6807,2.6269,2.5322,2.4051,2.2901,2.2232,2.0633,1.9724,1.9666,1.8885,1.833,1.7921,1.7303,1.671,1.6275,1.5964,1.532,1.4697,1.4376,1.4422,1.496,1.5062,1.5674,1.6766,1.7961,1.8836,1.925,1.8589,1.7904,1.7587,1.8086,1.8927,2.0045,2.1045,2.1948,2.4042,2.4588,2.5483,2.6319,2.6607,2.7083,2.7482,2.7748,2.8074,2.8567,2.8934,2.8957,2.8975,2.8975,2.9085,2.9104,2.9135,2.8967,2.8528,2.7979,2.7409,2.6987,2.6825,2.6725,2.6793,2.6793,2.6708,2.6708,2.6708,2.7029,2.7385,2.8065,2.9253,0.5592,0.5706,0.6308,0.6588,0.6534,0.6588,0.6534,0.6696,0.6696,0.6804,0.7074,0.7557,0.7931,0.7984,0.8679,0.8962,0.9061,0.9211,0.9865,1.1399,1.3052,1.4514,1.4687,1.6275,1.6925,1.7133,1.7773,1.7826,1.7639,1.784,1.8052,1.8104,1.8559,1.8965,1.9453,2.0368,2.1658,2.3223,2.4104,2.5245,2.6539,2.7036,2.7213,2.731,2.7276,2.7019,2.6824,2.6691,2.6471,2.6104,2.4349,2.3583,2.3248,2.1736,2.0846,2.056,1.9915,1.9268,1.8946,1.7936,1.7389,1.7166,1.638,1.5748,1.5545,1.5128,1.5017,1.5599,1.5695,1.6435,1.7843,1.8805,1.9574,2.0215,2.0339,1.9946,1.9707,1.9815,2.0287,2.1097,2.254,2.3483,2.442,2.5252,2.6175,2.6471,2.6725,2.6971,2.7286,2.7549,2.795,2.8406,2.8718,2.8938,2.8957,2.8975,2.914,2.925,2.936,2.9271,2.8909,2.8334,2.7689,2.721,2.6939,2.6894,2.7046,2.6962,2.6979,2.7301,2.7658,2.7996,2.8366,2.9223,3.0282,0.6367,0.6367,0.6534,0.6588,0.6588,0.6588,0.6966,0.7503,0.7503,0.7812,0.8256,0.8527,0.883,0.934,0.9503,0.9865,1.0218,1.032,1.0864,1.1756,1.3679,1.4606,1.5096,1.6519,1.7258,1.7476,1.7867,1.7997,1.7889,1.8154,1.826,1.8565,1.8927,1.938,2.0294,2.1034,2.2302,2.3792,2.4628,2.5481,2.6386,2.6791,2.6891,2.6925,2.6891,2.6808,2.6725,2.6708,2.6657,2.6269,2.5376,2.4463,2.3861,2.2337,2.131,2.0771,1.9827,1.9122,1.8849,1.8397,1.7922,1.7927,1.7326,1.6731,1.6219,1.58,1.5773,1.6079,1.6266,1.7376,1.9448,1.9807,2.0588,2.1528,2.1657,2.1497,2.1693,2.1178,2.1403,2.2491,2.3187,2.3957,2.5346,2.5658,2.6262,2.659,2.6791,2.6906,2.7115,2.7378,2.776,2.8246,2.8506,2.8727,2.8957,2.9049,2.925,2.9512,2.9659,2.9672,2.9319,2.8748,2.8081,2.7483,2.6971,2.7079,2.747,2.7759,2.7913,2.8288,2.8682,2.907,2.9557,3.0402,3.1342,0.7128,0.7187,0.7503,0.7616,0.7616,0.7664,0.8031,0.8534,0.8469,0.8909,0.9548,0.9577,0.9766,1.0261,1.0261,1.0517,1.0813,1.1166,1.1607,1.2483,1.3924,1.4824,1.5487,1.6718,1.7706,1.7787,1.8496,1.8669,1.8679,1.8745,1.8991,1.914,1.9507,2.0041,2.0804,2.1665,2.2659,2.3746,2.4738,2.5598,2.6245,2.659,2.6708,2.6775,2.6908,2.6973,2.6725,2.6906,2.6858,2.6623,2.6101,2.5559,2.4765,2.309,2.2028,2.1782,2.051,1.983,1.9607,1.9008,1.8616,1.8908,1.8206,1.7824,1.7529,1.714,1.6962,1.7143,1.7478,1.83,2.0557,2.1338,2.1924,2.2644,2.282,2.279,2.2886,2.2306,2.2273,2.3517,2.4108,2.4798,2.5558,2.6052,2.6505,2.6939,2.6725,2.6841,2.7137,2.7393,2.7618,2.7988,2.8265,2.8557,2.8883,2.9122,2.942,2.9696,3.0008,3.0026,2.9875,2.9238,2.853,2.7971,2.7459,2.7836,2.8183,2.8476,2.8921,2.931,2.9744,3.0152,3.0676,3.1332,3.2373,0.7931,0.809,0.8685,0.8988,0.8992,0.8978,0.9268,0.973,0.9505,0.983,1.0572,1.0434,1.0466,1.0881,1.0965,1.0965,1.1316,1.1855,1.2541,1.312,1.4297,1.5174,1.5959,1.7177,1.8131,1.8341,1.9214,1.963,1.9621,1.9839,1.9728,1.9827,2.0429,2.0745,2.115,2.2034,2.3097,2.3983,2.4789,2.5561,2.6139,2.6556,2.6691,2.6758,2.7103,2.7184,2.6989,2.7051,2.7147,2.6825,2.6725,2.647,2.5686,2.4076,2.2674,2.3149,2.1356,2.052,2.0317,1.9832,1.9493,2.0017,1.9208,1.8876,1.9091,1.8806,1.8482,1.8494,1.8719,1.9386,2.0983,2.1882,2.2773,2.3376,2.358,2.3595,2.3535,2.3152,2.3549,2.4259,2.4875,2.5484,2.5966,2.6401,2.6856,2.7147,2.6889,2.6858,2.7186,2.7356,2.7545,2.7788,2.8094,2.8511,2.8842,2.9072,2.9365,2.9934,3.0283,3.0448,3.0522,3.0487,2.99,2.8645,2.8276,2.8613,2.912,2.9632,3.0053,3.0427,3.0914,3.1408,3.187,3.2278,3.333,0.8949,0.9451,0.9562,0.9766,0.9919,0.9945,1.001,1.0124,1.0084,1.0344,1.0755,1.0747,1.1081,1.1501,1.1633,1.199,1.253,1.3102,1.3464,1.3841,1.4858,1.5664,1.6476,1.7464,1.8288,1.8939,1.9722,2.0047,2.0039,2.0374,2.0496,2.0128,2.0788,2.1338,2.1771,2.2389,2.3595,2.4516,2.5105,2.5672,2.6297,2.659,2.6708,2.6758,2.7181,2.7289,2.7258,2.7224,2.7255,2.7178,2.6873,2.6691,2.6202,2.4678,2.3519,2.2577,2.1368,2.0594,2.064,2.055,2.0744,2.1075,2.0685,2.0369,2.0422,2.0112,1.9761,1.9834,2.0158,2.0906,2.2264,2.2637,2.2935,2.3406,2.3595,2.3638,2.3691,2.3943,2.4264,2.4989,2.5556,2.5997,2.6332,2.6674,2.7019,2.7224,2.7161,2.7192,2.7426,2.74,2.7316,2.76,2.7914,2.8384,2.8865,2.8994,2.9292,3.0081,3.0558,3.1017,3.1274,3.1873,3.1372,2.9864,2.9269,2.9576,3.0092,3.0749,3.1327,3.1787,3.2272,3.2703,3.3013,3.332,3.3972,0.9621,1.0011,1.0011,1.0057,1.0156,1.0188,1.0381,1.0716,1.0716,1.1011,1.1393,1.1544,1.1826,1.2365,1.2716,1.3198,1.3779,1.4107,1.4411,1.4824,1.5353,1.6102,1.6815,1.7733,1.8341,1.9089,2.0024,2.0563,2.0413,2.0748,2.1375,2.2176,2.2337,2.2478,2.3032,2.3717,2.4333,2.5187,2.548,2.5832,2.6364,2.6555,2.6708,2.6841,2.7241,2.7487,2.7365,2.753,2.75,2.7255,2.6906,2.6758,2.6303,2.5547,2.4265,2.3116,2.1655,2.0777,2.0992,2.1051,2.1369,2.201,2.1655,2.1562,2.1585,2.1341,2.0919,2.1023,2.1431,2.2016,2.2615,2.2949,2.3275,2.3508,2.361,2.3752,2.4039,2.4524,2.5032,2.5535,2.5848,2.6208,2.6573,2.6906,2.721,2.7317,2.7348,2.7542,2.7747,2.7687,2.7585,2.8106,2.8514,2.8753,2.914,2.9177,2.9365,3.0081,3.0779,3.1219,3.1696,3.2173,3.1774,3.067,3.0513,3.0784,3.1283,3.1982,3.2578,3.3008,3.3143,3.3385,3.3933,3.4457,3.4926,1.0205,1.0529,1.0454,1.0435,1.0462,1.0377,1.0705,1.1204,1.1241,1.1752,1.2483,1.2569,1.2815,1.3273,1.3732,1.4215,1.4698,1.4744,1.5096,1.5487,1.5928,1.6532,1.7327,1.8013,1.8612,1.9303,2.0299,2.0989,2.0971,2.1247,2.2539,2.3358,2.3482,2.351,2.4079,2.4605,2.513,2.5477,2.5724,2.6007,2.6203,2.6486,2.6708,2.6791,2.7487,2.7725,2.753,2.7823,2.7747,2.747,2.7083,2.6774,2.6606,2.5998,2.511,2.3967,2.2411,2.1804,2.1647,2.1812,2.224,2.3011,2.2435,2.2477,2.2469,2.2262,2.1926,2.2112,2.23,2.2723,2.2947,2.3334,2.3595,2.3782,2.3812,2.3997,2.4511,2.5064,2.5631,2.5999,2.6189,2.6467,2.686,2.7019,2.7334,2.7589,2.7648,2.7816,2.8045,2.8287,2.8373,2.8965,2.935,2.9423,2.9507,2.9434,2.9659,3.0099,3.0779,3.1329,3.1806,3.2265,3.1799,3.1591,3.2118,3.2429,3.2828,3.293,3.3232,3.3487,3.3716,3.4018,3.444,3.4879,3.5339,1.104,1.1559,1.1229,1.1232,1.1357,1.1085,1.1147,1.1543,1.1635,1.2388,1.3424,1.3606,1.3856,1.4359,1.4494,1.4665,1.4903,1.5276,1.5543,1.5808,1.6544,1.7244,1.7973,1.8535,1.8968,1.9536,2.0465,2.0942,2.1231,2.1744,2.2869,2.4074,2.41,2.3911,2.458,2.5142,2.5436,2.5837,2.5979,2.6208,2.6538,2.6657,2.6708,2.6906,2.7409,2.7851,2.7794,2.8075,2.8112,2.7823,2.7439,2.7051,2.6656,2.5998,2.5253,2.4538,2.385,2.3356,2.2939,2.2965,2.3328,2.383,2.3571,2.3475,2.323,2.2951,2.2731,2.3347,2.3068,2.2979,2.3319,2.3553,2.3852,2.4105,2.4276,2.4565,2.5052,2.5652,2.6229,2.6853,2.7211,2.7061,2.7165,2.7287,2.7426,2.7695,2.7971,2.8246,2.8551,2.892,2.9284,2.9904,3.0098,3.0159,3.0008,2.9934,3.0008,3.0265,3.0962,3.1568,3.2008,3.2504,3.2871,3.2852,3.3316,3.3342,3.3128,3.3248,3.3678,3.3935,3.4119,3.4449,3.4825,3.5284,3.5917,1.2817,1.2553,1.2329,1.2548,1.2956,1.2786,1.2605,1.2574,1.2807,1.3108,1.3477,1.3793,1.4372,1.505,1.5241,1.5407,1.5732,1.6008,1.6095,1.6256,1.698,1.7585,1.8092,1.865,1.9169,1.9732,2.0277,2.0876,2.1375,2.2358,2.3498,2.4346,2.4725,2.5146,2.537,2.587,2.6137,2.6343,2.6399,2.6487,2.6657,2.6708,2.6708,2.6725,2.7487,2.784,2.7982,2.821,2.8324,2.8057,2.766,2.7241,2.6985,2.65,2.5896,2.5253,2.5411,2.4813,2.3748,2.3971,2.4408,2.4567,2.4388,2.3904,2.367,2.3421,2.329,2.3508,2.3377,2.3377,2.3596,2.3904,2.4128,2.4416,2.4752,2.5162,2.5643,2.6286,2.6877,2.7538,2.8236,2.8339,2.8506,2.8847,2.8941,2.8841,2.9278,2.9715,2.9926,3.0148,3.0522,3.0912,3.0956,3.0914,3.0656,3.0448,3.0411,3.0742,3.1568,3.21,3.2375,3.2761,3.3128,3.3403,3.3576,3.3503,3.3293,3.3476,3.3844,3.4174,3.4458,3.5055,3.5661,3.6395,3.7019,1.4238,1.352,1.3377,1.3554,1.3822,1.3752,1.3376,1.3066,1.3251,1.3432,1.364,1.4109,1.4951,1.5636,1.5864,1.6114,1.668,1.668,1.6795,1.7034,1.7422,1.7933,1.8419,1.8893,1.9317,1.9675,2.0124,2.0483,2.1263,2.2551,2.388,2.4659,2.5171,2.5848,2.6438,2.6607,2.6623,2.6623,2.664,2.6657,2.6708,2.6708,2.6708,2.6939,2.7378,2.7897,2.7954,2.836,2.8565,2.8255,2.7946,2.7577,2.7264,2.6937,2.6349,2.5876,2.5982,2.5782,2.4913,2.4757,2.5154,2.5173,2.4936,2.446,2.4168,2.4017,2.3867,2.3894,2.3837,2.3752,2.3726,2.4048,2.4421,2.48,2.5324,2.5717,2.6272,2.7196,2.793,2.851,2.9333,3.0241,3.0454,3.0765,3.0695,3.0197,3.0483,3.1047,3.1256,3.1366,3.1701,3.2044,3.2153,3.1978,3.1536,3.1256,3.1127,3.1237,3.2063,3.2467,3.2651,3.2999,3.3403,3.3623,3.3733,3.3715,3.355,3.377,3.4009,3.4431,3.4945,3.5844,3.6597,3.7312,3.7826,1.4697,1.4638,1.423,1.3786,1.3358,1.2833,1.2653,1.2693,1.2625,1.3174,1.3962,1.5025,1.5761,1.6273,1.6459,1.674,1.7229,1.7229,1.7463,1.7947,1.8496,1.865,1.893,1.9207,1.9639,1.9747,2.0089,2.0122,2.0626,2.2769,2.4076,2.5077,2.5522,2.6048,2.6471,2.6708,2.6708,2.6708,2.6708,2.6708,2.6708,2.6708,2.6708,2.6873,2.7409,2.7897,2.7936,2.8515,2.8767,2.8484,2.8255,2.7915,2.7487,2.7264,2.6659,2.6165,2.6319,2.6151,2.5665,2.5578,2.5845,2.5762,2.5473,2.5055,2.4846,2.4966,2.4829,2.4389,2.4348,2.4142,2.4002,2.4085,2.4789,2.5307,2.5852,2.6358,2.7175,2.8505,2.9214,2.9643,3.041,3.1359,3.1872,3.2086,3.1719,3.1193,3.1154,3.1696,3.2217,3.2438,3.2823,3.3164,3.3395,3.3175,3.2551,3.2302,3.2173,3.21,3.254,3.2706,3.2761,3.3164,3.3623,3.3513,3.355,3.3697,3.3899,3.411,3.4403,3.477,3.5422,3.6431,3.7239,3.79,3.8267,1.4988,1.5214,1.5016,1.4697,1.4229,1.4075,1.3809,1.3493,1.3457,1.3629,1.4161,1.5187,1.5998,1.6473,1.6918,1.7271,1.7747,1.7787,1.7947,1.8185,1.8574,1.8855,1.908,1.9406,1.969,1.9818,2.0124,2.0452,2.0844,2.2802,2.3898,2.4835,2.571,2.6285,2.6657,2.6708,2.6708,2.6708,2.6708,2.6708,2.6708,2.6708,2.6708,2.6758,2.747,2.7837,2.8004,2.8621,2.8791,2.8743,2.854,2.8138,2.7719,2.747,2.6992,2.635,2.6606,2.6471,2.6336,2.6302,2.6295,2.6003,2.5782,2.5598,2.5346,2.5257,2.5148,2.4914,2.4894,2.4697,2.4736,2.5044,2.56,2.5982,2.6504,2.7091,2.7893,2.9228,3.0023,3.0254,3.1395,3.2545,3.294,3.3263,3.2729,3.22,3.2224,3.2339,3.2842,3.3198,3.343,3.3576,3.3733,3.3568,3.2944,3.2981,3.3128,3.3073,3.3018,3.3099,3.318,3.3385,3.3697,3.3532,3.3632,3.4017,3.433,3.4486,3.4907,3.554,3.6285,3.711,3.7845,3.845,3.867,1.5314,1.5446,1.5448,1.5278,1.5038,1.5014,1.4691,1.4262,1.4171,1.4327,1.4534,1.5465,1.6166,1.6717,1.7263,1.7814,1.8224,1.8341,1.8472,1.8741,1.9006,1.9118,1.9317,1.9609,1.9945,1.998,2.0296,2.0667,2.0844,2.2883,2.3934,2.4828,2.5864,2.6539,2.6691,2.6708,2.6708,2.6708,2.6708,2.6708,2.6708,2.6708,2.6825,2.6939,2.756,2.7956,2.82,2.867,2.8952,2.8887,2.8707,2.841,2.8058,2.7677,2.7317,2.7004,2.6791,2.6725,2.6691,2.6674,2.6538,2.6293,2.6248,2.6011,2.5775,2.561,2.5683,2.5443,2.5449,2.5389,2.5384,2.5747,2.5966,2.629,2.7911,2.864,2.8764,2.9642,3.0311,3.0867,3.2133,3.3323,3.3396,3.3606,3.3396,3.2975,3.3002,3.3073,3.3311,3.3595,3.3668,3.3733,3.3788,3.3495,3.3146,3.3293,3.344,3.344,3.343,3.3644,3.3755,3.3939,3.4042,3.4104,3.4284,3.4581,3.499,3.5441,3.5983,3.6541,3.7221,3.7881,3.812,3.8634,3.8909,1.5713,1.5305,1.5319,1.529,1.5278,1.5278,1.4929,1.446,1.4451,1.4738,1.5216,1.5954,1.6578,1.716,1.7791,1.8366,1.8765,1.8893,1.9043,1.9406,1.9457,1.9603,1.9752,1.9949,2.0158,2.0382,2.0665,2.0861,2.0777,2.308,2.4067,2.4796,2.5916,2.6708,2.6708,2.6708,2.6708,2.6708,2.6708,2.6708,2.6826,2.6826,2.6971,2.7407,2.7725,2.8112,2.8363,2.8737,2.8975,2.8952,2.8952,2.8682,2.8324,2.8029,2.7678,2.7272,2.6906,2.6758,2.6691,2.6691,2.664,2.6572,2.6522,2.6471,2.659,2.6539,2.6336,2.598,2.5944,2.5795,2.5912,2.6222,2.6434,2.7191,2.8839,2.9585,2.9658,3.0504,3.1315,3.1548,3.269,3.3788,3.3762,3.378,3.378,3.3697,3.377,3.3807,3.3807,3.3807,3.3807,3.3807,3.3807,3.3697,3.3476,3.3642,3.3752,3.3752,3.3795,3.3943,3.4185,3.4394,3.4517,3.4695,3.5082,3.5502,3.6001,3.6546,3.7032,3.7496,3.801,3.8524,3.867,3.8854,3.9184,1.5093,1.5167,1.516,1.5354,1.5529,1.4998,1.4649,1.4515,1.4543,1.4846,1.5474,1.6034,1.688,1.7681,1.8361,1.8893,1.9332,1.9442,1.9639,1.9654,1.9726,1.9705,1.9854,2.0158,2.0364,2.0499,2.0877,2.1343,2.1231,2.3522,2.4612,2.5262,2.6084,2.6607,2.6708,2.6708,2.6708,2.6708,2.6742,2.6877,2.7334,2.7296,2.7428,2.7944,2.8134,2.827,2.8439,2.8837,2.8975,2.8975,2.8975,2.8808,2.8506,2.8242,2.7918,2.75,2.7115,2.6971,2.6825,2.6708,2.6708,2.6708,2.6708,2.6708,2.6708,2.6708,2.659,2.6504,2.6485,2.6495,2.705,2.725,2.758,2.8328,2.9448,2.978,3.0196,3.1698,3.2687,3.243,3.303,3.3625,3.3807,3.3807,3.3807,3.3807,3.3807,3.3807,3.3807,3.3807,3.3807,3.3807,3.3807,3.3807,3.3825,3.3954,3.4009,3.399,3.4028,3.4099,3.4372,3.4967,3.5308,3.5661,3.6066,3.6479,3.7005,3.7515,3.7959,3.8469,3.8726,3.8762,3.8707,3.9056,3.9606,1.5124,1.5329,1.5344,1.5519,1.5697,1.5195,1.4937,1.498,1.5165,1.5538,1.6009,1.6764,1.7504,1.8323,1.8907,1.9281,1.969,1.969,1.969,1.9726,1.9874,1.9945,2.0104,2.0481,2.1052,2.1198,2.1713,2.2221,2.2685,2.4394,2.5361,2.5881,2.6485,2.7093,2.7263,2.7418,2.7518,2.7734,2.7984,2.8194,2.8259,2.8122,2.807,2.8273,2.8425,2.8474,2.8638,2.8828,2.8975,2.8975,2.8938,2.8865,2.8638,2.8402,2.8166,2.7805,2.753,2.7317,2.7051,2.6944,2.6978,2.6962,2.6809,2.6708,2.6708,2.6708,2.6708,2.6708,2.6945,2.7299,2.7739,2.796,2.8742,2.9496,3.0055,3.0404,3.0902,3.2391,3.3222,3.3012,3.3067,3.3542,3.3807,3.3807,3.3807,3.3807,3.3807,3.3825,3.3844,3.3825,3.3825,3.3825,3.3862,3.3899,3.4027,3.4247,3.4266,3.4229,3.4511,3.4862,3.5446,3.6166,3.6404,3.6654,3.7081,3.7516,3.7995,3.8449,3.8715,3.8872,3.9038,3.8964,3.8762,3.9313,4.0065,1.5814,1.5799,1.5799,1.5812,1.5827,1.5812,1.5799,1.5815,1.6368,1.6635,1.6799,1.8,1.8599,1.8798,1.94,1.9675,1.9747,1.9762,1.9797,1.9925,2.0158,2.0261,2.0583,2.1086,2.1631,2.245,2.3112,2.3606,2.4443,2.531,2.6032,2.657,2.6948,2.7618,2.8097,2.8598,2.8743,2.9022,2.9308,2.933,2.9149,2.9012,2.8795,2.8748,2.859,2.8682,2.8832,2.8957,2.8975,2.8975,2.8975,2.8975,2.8863,2.8633,2.8471,2.8272,2.8002,2.7631,2.7396,2.7321,2.7468,2.7503,2.7246,2.691,2.6809,2.6962,2.708,2.7317,2.7604,2.7824,2.8043,2.8912,2.9748,3.0431,3.1079,3.1394,3.1679,3.2499,3.3259,3.3488,3.3606,3.3807,3.3807,3.3807,3.4034,3.3807,3.3862,3.4036,3.4017,3.3825,3.3844,3.3862,3.3917,3.399,3.4211,3.4669,3.5063,3.5182,3.5783,3.6241,3.6845,3.7261,3.7564,3.7846,3.8156,3.858,3.9102,3.9239,3.9222,3.9423,3.9912,3.9589,3.9501,4.0037,4.0722,1.5814,1.5827,1.6031,1.6157,1.6176,1.6421,1.6246,1.5902,1.6428,1.695,1.7473,1.8328,1.9026,1.9405,1.9615,1.9711,1.9854,1.998,2.0104,2.0296,2.0583,2.0731,2.1007,2.145,2.2059,2.2953,2.3852,2.4594,2.4809,2.5713,2.6582,2.7095,2.7317,2.8075,2.9054,2.9875,3.0024,3.0196,3.0517,3.0309,3.0018,2.9804,2.9512,2.9258,2.8991,2.9028,2.897,2.9072,2.9072,2.9053,2.9035,2.9017,2.8975,2.8863,2.8749,2.8394,2.8102,2.784,2.7736,2.773,2.7999,2.8488,2.8411,2.8008,2.7726,2.7639,2.7845,2.8186,2.8578,2.8886,2.9298,3.0002,3.0657,3.1235,3.1865,3.2279,3.2538,3.2901,3.3607,3.381,3.3921,3.4201,3.4157,3.426,3.4404,3.4034,3.3981,3.4318,3.4301,3.4191,3.4246,3.4301,3.45,3.4755,3.5027,3.5459,3.5863,3.6263,3.6919,3.7445,3.7697,3.8097,3.8629,3.9013,3.9239,3.9692,4.0268,4.0284,4.0237,4.0817,4.1258,4.0701,4.041,4.0996,4.1551,1.62,1.6235,1.6412,1.6496,1.6512,1.6712,1.6543,1.6345,1.6954,1.7623,1.8238,1.8994,1.9653,2.015,2.0261,2.0277,2.0277,2.0465,2.0599,2.0698,2.1007,2.1181,2.1401,2.2005,2.2815,2.3653,2.4486,2.5222,2.5544,2.6396,2.7319,2.7255,2.75,2.8696,2.9817,3.0702,3.1325,3.1578,3.1722,3.1459,3.1109,3.0776,3.0513,2.9875,2.9588,2.9373,2.9163,2.9237,2.9467,2.9467,2.9485,2.9682,2.9696,2.9709,2.9308,2.9021,2.8987,2.9071,2.9186,2.9213,2.9415,2.9626,2.9686,2.9518,2.9302,2.9196,2.9238,2.9398,2.9747,3.0162,3.063,3.1098,3.1533,3.2022,3.2544,3.3113,3.3355,3.3535,3.3798,3.3986,3.4303,3.4654,3.4803,3.4928,3.5175,3.5435,3.5541,3.559,3.5351,3.4879,3.5026,3.52,3.5477,3.5752,3.6014,3.6403,3.6956,3.7534,3.8241,3.8648,3.8688,3.8948,3.9487,3.9912,4.0266,4.0709,4.1079,4.1354,4.1472,4.2038,4.2467,4.2259,4.2025,4.22,4.2723,1.6786,1.6799,1.6816,1.688,1.6892,1.6917,1.6917,1.6959,1.7744,1.8464,1.8972,1.9828,2.0393,2.0699,2.0797,2.0829,2.0829,2.0926,2.1023,2.1071,2.146,2.1708,2.2192,2.2832,2.362,2.4425,2.5084,2.5692,2.6684,2.7351,2.7631,2.7478,2.8162,2.9376,3.0921,3.1381,3.209,3.2958,3.3077,3.2931,3.2509,3.225,3.1891,3.0626,3.0228,3.0063,2.9659,2.9798,3.0291,3.0291,3.0396,3.0662,3.0711,3.0668,3.0166,3.0006,3.0031,3.0236,3.0432,3.0469,3.0717,3.0784,3.0722,3.0962,3.098,3.0442,3.0311,3.0615,3.0988,3.1145,3.1512,3.1923,3.2373,3.2645,3.2997,3.3543,3.39,3.4302,3.4889,3.5113,3.5443,3.5754,3.5859,3.5983,3.6096,3.6723,3.6817,3.6714,3.6659,3.6003,3.5917,3.6184,3.6528,3.6836,3.7092,3.7525,3.8192,3.8842,3.939,3.9643,3.958,3.9898,4.0351,4.0679,4.0989,4.138,4.1736,4.2129,4.2598,4.3038,4.3415,4.3719,4.3786,4.3872,4.4128,1.6783,1.6802,1.7061,1.7327,1.7549,1.7566,1.7542,1.7602,1.8055,1.8527,1.8991,1.9685,2.0416,2.107,2.1134,2.1134,2.1134,2.1385,2.143,2.1598,2.1899,2.2333,2.2841,2.3359,2.4317,2.5261,2.5829,2.6121,2.7123,2.7752,2.8415,2.8943,2.9349,3.0277,3.1881,3.2192,3.2768,3.3733,3.3752,3.3458,3.2871,3.254,3.2082,3.1384,3.1035,3.098,3.0785,3.0925,3.1109,3.1103,3.1127,3.1212,3.1329,3.1182,3.1102,3.1016,3.1072,3.1242,3.1411,3.1553,3.1693,3.2052,3.2169,3.2601,3.2502,3.1649,3.1408,3.182,3.2104,3.2193,3.2382,3.2782,3.3117,3.3268,3.3524,3.4011,3.4509,3.52,3.5977,3.6324,3.665,3.6879,3.6971,3.7102,3.7135,3.7173,3.7133,3.7238,3.7826,3.7622,3.7166,3.734,3.7679,3.7985,3.8224,3.8536,3.9105,3.9505,3.9967,4.0212,4.0452,4.079,4.1149,4.136,4.1654,4.2181,4.2738,4.3288,4.3725,4.4072,4.4512,4.4853,4.5569,4.5837,4.5973,1.7256,1.7264,1.7455,1.7618,1.7789,1.7789,1.7789,1.7901,1.8351,1.8873,1.9405,1.9955,2.0671,2.1458,2.1584,2.1524,2.1584,2.1794,2.1899,2.2049,2.2252,2.2709,2.3248,2.3938,2.4918,2.5863,2.6169,2.6658,2.7636,2.9009,2.9909,2.9809,3.0077,3.1097,3.2504,3.2676,3.3007,3.3752,3.3807,3.3532,3.3091,3.3018,3.2724,3.2173,3.1916,3.1806,3.1611,3.1654,3.1918,3.2095,3.2265,3.1818,3.1806,3.1733,3.1898,3.1916,3.196,3.2084,3.2284,3.2449,3.2577,3.2897,3.3125,3.3368,3.3405,3.2697,3.2669,3.3002,3.302,3.311,3.3309,3.3655,3.4011,3.4243,3.4757,3.5355,3.5703,3.6182,3.6706,3.7032,3.7547,3.8187,3.8398,3.8819,3.8877,3.8973,3.8727,3.8423,3.8915,3.9015,3.8616,3.852,3.8852,3.9067,3.9239,3.9522,3.9907,4.027,4.0576,4.1182,4.1632,4.1723,4.1893,4.2203,4.2646,4.3261,4.3807,4.4231,4.4653,4.4978,4.5515,4.6052,4.6819,4.7509,4.7684,1.7766,1.7789,1.7789,1.7789,1.7789,1.7789,1.7873,1.8042,1.8599,1.9376,2.011,2.0445,2.1301,2.1978,2.2327,2.2327,2.2254,2.2152,2.2225,2.2333,2.2547,2.3227,2.4047,2.4804,2.5762,2.6486,2.6944,2.7462,2.8152,2.9719,3.0592,3.0194,3.0888,3.1971,3.2504,3.2842,3.3209,3.3642,3.3807,3.3807,3.3788,3.3807,3.333,3.2944,3.2687,3.2357,3.218,3.2254,3.2691,3.293,3.3191,3.2842,3.2522,3.2504,3.2651,3.2742,3.275,3.3044,3.3385,3.3495,3.3605,3.3733,3.3825,3.3844,3.3862,3.3927,3.3899,3.3936,3.3954,3.4028,3.4248,3.4577,3.4926,3.5302,3.5964,3.6574,3.6894,3.7255,3.7661,3.8004,3.8567,3.9323,3.9646,4.0108,4.0296,4.045,4.045,4.0335,4.0153,3.9923,3.9624,3.968,4.0005,4.0164,4.0146,4.0479,4.0758,4.1025,4.1426,4.2206,4.272,4.2527,4.2643,4.3181,4.3662,4.4047,4.4528,4.4937,4.5357,4.574,4.6127,4.6666,4.7665,4.8375,4.9029,1.7789,1.7789,1.7789,1.7811,1.7811,1.7828,1.8132,1.8657,1.8866,1.9655,2.0712,2.1049,2.1556,2.2327,2.2327,2.2327,2.231,2.2355,2.2327,2.2344,2.3165,2.3981,2.4927,2.5928,2.6813,2.7441,2.7976,2.8399,2.8961,3.0458,3.1347,3.1126,3.185,3.2742,3.3385,3.3576,3.3576,3.3807,3.3807,3.3807,3.3807,3.3807,3.377,3.3605,3.3568,3.3476,3.3421,3.3476,3.3558,3.365,3.366,3.3495,3.3366,3.3238,3.3366,3.3366,3.3411,3.3521,3.377,3.3927,3.3982,3.4017,3.4072,3.4156,3.4302,3.4623,3.466,3.4789,3.4825,3.4844,3.5082,3.5632,3.6064,3.6434,3.6988,3.7588,3.8046,3.8707,3.9306,3.9512,3.9775,4.0104,4.0142,4.0392,4.0392,4.0489,4.0489,4.0431,4.062,4.0566,4.0566,4.0873,4.1143,4.0816,4.0604,4.1277,4.1649,4.1857,4.2239,4.2989,4.3297,4.3047,4.3297,4.397,4.4239,4.4509,4.5009,4.5374,4.5893,4.624,4.6567,4.7145,4.824,4.9106,4.9663]},{"header":{"parameterUnit":"m.s-1","parameterCategory":1,"la1":31.0,"la2":29.5877,"lo1":-88.7671,"lo2":-86.6584,"dy":0.0162,"dx":0.0185,"nx":115,"ny":88,"refTime":"2026-05-13T00:00:00:Z","depth":0,"parameterNumber":3,"parameterNumberName":"V-component_of_WINDS"},"data":[0.0,0.0,0.0,0.0,0.0,0.0,0.0,0.0,0.0,0.0,0.0,0.0,0.0,0.0,0.0,0.0,0.0,0.0,0.0,0.0,0.0,0.0,0.0,0.0,0.0,0.0,0.0,0.0,0.0,0.0,0.0,0.0,0.0,0.0,0.0,0.0,0.0,0.0,0.0,0.0,0.0,0.0,0.0,0.0,0.0,0.0,0.0,0.0,0.0,0.0,0.0,0.0,0.0,0.0,0.0,0.0,0.0,0.0,0.0,0.0,0.0,0.0,0.0,0.0,0.0,0.0,0.0,0.0,0.0,0.0,0.0,0.0,0.0,0.0,0.0,0.0,0.0,0.0,0.0,0.0,0.0,0.0,0.0,0.0,0.0,0.0,0.0,0.0,0.0,0.0,0.0,0.0,0.0,0.0,0.0,0.0,0.0,0.0,0.0,0.0,0.0,0.0,0.0,0.0,0.0,0.0,0.0,0.0,0.0,0.0,0.0,0.0,0.0,0.0,0.0,0.0,0.0,0.0,0.0,0.0,0.0,0.0,0.0,0.0,0.0,0.0,0.0,0.0,0.0,0.0,0.0,0.0,0.0,0.0,0.0,0.0,0.0,0.0,0.0,0.0,0.0,0.0,0.0,0.0,0.0,0.0,0.0,0.0,0.0,0.0,0.0,0.0,0.0,0.0,0.0,0.0,0.0,0.0,0.0,0.0,0.0,0.0,0.0,0.0,0.0,0.0,0.0,0.0,0.0,0.0,0.0,0.0,0.0,0.0,0.0,0.0,0.0,0.0,0.0,0.0,0.0,0.0,0.0,0.0,0.0,0.0,0.0,0.0,0.0,0.0,0.0,0.0,0.0,0.0,0.0,0.0,0.0,0.0,0.0,0.0,0.0,0.0,0.0,0.0,0.0,0.0,0.0,0.0,0.0,0.0,0.0,0.0,0.0,0.0,0.0,0.0,0.0,0.0,0.0,0.0,0.0,0.0,0.0,0.0,0.0,0.0,0.0,0.0,0.0,0.0,0.0,0.0,0.0,0.0,0.0,0.0,0.0,0.0,0.0,0.0,0.0,0.0,0.0,0.0,0.0,0.0,0.0,0.0,0.0,0.0,0.0,0.0,0.0,0.0,0.0,0.0,0.0,0.0,0.0,0.0,0.0,0.0,0.0,0.0,0.0,0.0,0.0,0.0,0.0,0.0,0.0,0.0,0.0,0.0,0.0,0.0,0.0,0.0,0.0,0.0,0.0,0.0,0.0,0.0,0.0,0.0,0.0,0.0,0.0,0.0,0.0,0.0,0.0,0.0,0.0,0.0,0.0,0.0,0.0,0.0,0.0,0.0,0.0,0.0,0.0,0.0,0.0,0.0,0.0,0.0,0.0,0.0,0.0,0.0,0.0,0.0,0.0,0.0,0.0,0.0,0.0,0.0,0.0,0.0,0.0,0.0,0.0,0.0,0.0,0.0,0.0,0.0,0.0,0.0,0.0,0.0,0.0,0.0,0.0,0.0,0.0,0.0,0.0,0.0,0.0,0.0,0.0,0.0,0.0,0.0,0.0,0.0,0.0,0.0,0.0,0.0,0.0,0.0,0.0,0.0,0.0,0.0,0.0,0.0,0.0,0.0,0.0,0.0,0.0,0.0,0.0,0.0,0.0,0.0,0.0,0.0,0.0,0.0,0.0,0.0,0.0,0.0,0.0,0.0,0.0,0.0,0.0,0.0,0.0,0.0,0.0,0.0,0.0,0.0,0.0,0.0,0.0,0.0,0.0,0.0,0.0,0.0,0.0,0.0,0.0,0.0,0.0,0.0,0.0,0.0,0.0,0.0,0.0,0.0,0.0,0.0,0.0,0.0,0.0,0.0,0.0,0.0,0.0,0.0,0.0,0.0,0.0,0.0,0.0,0.0,0.0,0.0,0.0,0.0,0.0,0.0,0.0,0.0,0.0,0.0,0.0,0.0,0.0,0.0,0.0,0.0,0.0,0.0,0.0,0.0,0.0,0.0,0.0,0.0,0.0,0.0,0.0,0.0,0.0,0.0,0.0,0.0,0.0,0.0,0.0,0.0,0.0,0.0,0.0,0.0,0.0,0.0,0.0,0.0,0.0,0.0,0.0,0.0,0.0,0.0,0.0,0.0,0.0,0.0,0.0,0.0,0.0,0.0,0.0,0.0,0.0,0.0,0.0,0.0,0.0,0.0,0.0,0.0,0.0,0.0,0.0,0.0,0.0,0.0,0.0,0.0,0.0,0.0,0.0,0.0,0.0,0.0,0.0,0.0,0.0,0.0,0.0,0.0,0.0,0.0,0.0,0.0,0.0,0.0,0.0,0.0,0.0,0.0,0.0,0.0,0.0,0.0,0.0,0.0,0.0,0.0,0.0,0.0,0.0,0.0,0.0,0.0,0.0,0.0,0.0,0.0,0.0,0.0,0.0,0.0,0.0,0.0,0.0,0.0,0.0,0.0,0.0,0.0,0.0,0.0,0.0,0.0,0.0,0.0,0.0,0.0,0.0,0.0,0.0,0.0,0.0,0.0,0.0,0.0,0.0,0.0,0.0,0.0,0.0,0.0,0.0,0.0,0.0,0.0,0.0,0.0,0.0,0.0,0.0,0.0,0.0,0.0,0.0,0.0,0.0,0.0,0.0,0.0,0.0,0.0,0.0,0.0,0.0,0.0,0.0,0.0,0.0,0.0,0.0,0.0,0.0,0.0,0.0,0.0,0.0,0.0,0.0,0.0,0.0,0.0,0.0,0.0,0.0,0.0,0.0,0.0,0.0,0.0,0.0,0.0,0.0,0.0,0.0,0.0,0.0,0.0,0.0,0.0,0.0,0.0,0.0,0.0,0.0,0.0,0.0,0.0,0.0,0.0,0.0,0.0,0.0,0.0,0.0,0.0,0.0,0.0,0.0,0.0,0.0,0.0,0.0,0.0,0.0,0.0,0.0,0.0,0.0,0.0,0.0,0.0,0.0,0.0,0.0,0.0,0.0,0.0,0.0,0.0,0.0,0.0,0.0,0.0,0.0,0.0,0.0,0.0,0.0,0.0,0.0,0.0,0.0,0.0,0.0,0.0,0.0,0.0,0.0,0.0,0.0,0.0,0.0,0.0,0.0,0.0,0.0,0.0,0.0,0.0,0.0,0.0,0.0,0.0,0.0,0.0,0.0,0.0,0.0,0.0,0.0,0.0,0.0,0.0,0.0,0.0,0.0,0.0,0.0,0.0,0.0,0.0,0.0,0.0,0.0,0.0,0.0,0.0,0.0,0.0,0.0,0.0,0.0,0.0,0.0,0.0,0.0,0.0,0.0,0.0,0.0,0.0,0.0,0.0,0.0,0.0,0.0,0.0,0.0,0.0,0.0,0.0,0.0,0.0,0.0,0.0,0.0,0.0,0.0,0.0,0.0,0.0,0.0,0.0,0.0,0.0,0.0,0.0,0.0,0.0,0.0,0.0,0.0,0.0,0.0,0.0,0.0,0.0,0.0,0.0,0.0,0.0,0.0,0.0,0.0,0.0,0.0,0.0,0.0,0.0,0.0,0.0,0.0,0.0,0.0,0.0,0.0,0.0,0.0,0.0,0.0,0.0,0.0,0.0,0.0,0.0,0.0,0.0,0.0,0.0,0.0,0.0,0.0,0.0,0.0,0.0,0.0,0.0,0.0,0.0,0.0,0.0,0.0,0.0,0.0,0.0,0.0,0.0,0.0,0.0,0.0,0.0,0.0,0.0,0.0,0.0,0.0,0.0,0.0,0.0,0.0,0.0,0.0,0.0,0.0,0.0,0.0,0.0,0.0,0.0,0.0,0.0,0.0,0.0,0.0,0.0,0.0,0.0,0.0,0.0,0.0,0.0,0.0,0.0,0.0,0.0,0.0,0.0,0.0,0.0,0.0,0.0,0.0,0.0,0.0,0.0,0.0,0.0,0.0,0.0,0.0,0.0,0.0,0.0,0.0,0.0,0.0,0.0,0.0,0.0,0.0,0.0,0.0,0.0,0.0,0.0,0.0,0.0,0.0,0.0,0.0,0.0,0.0,0.0,0.0,0.0,0.0,0.0,0.0,0.0,0.0,0.0,0.0,0.0,0.0,0.0,0.0,0.0,0.0,0.0,0.0,0.0,0.0,0.0,0.0,0.0,0.0,0.0,0.0,0.0,0.0,0.0,0.0,0.0,0.0,0.0,0.0,0.0,0.0,0.0,0.0,0.0,0.0,0.0,0.0,0.0,0.0,0.0,0.0,0.0,0.0,0.0,0.0,0.0,0.0,0.0,0.0,0.0,-0.4698,0.0,0.0,0.0,0.0,0.0,0.0,0.0,0.0,0.0,0.0,0.0,0.0,0.0,0.0,0.0,0.0,0.0,0.0,0.0,0.0,0.0,0.0,0.0,0.0,0.0,0.0,0.0,0.0,0.0,0.0,0.0,0.0,0.0,0.0,0.0,0.0,0.0,0.0,0.0,0.0,0.0,0.0,0.0,0.0,0.0,0.0,0.0,0.0,0.0,0.0,0.0,0.0,0.0,0.0,0.0,0.0,0.0,0.0,0.0,0.0,0.0,0.0,0.0,0.0,0.0,0.0,0.0,0.0,0.0,0.0,0.0,0.0,0.0,0.0,0.0,0.0,0.0,0.0,0.0,0.0,0.0,0.0,0.0,0.0,0.0,0.0,0.0,0.0,0.0,0.0,0.0,0.0,0.0,0.0,0.0,0.0,0.0,0.0,0.0,0.0,0.0,0.0,0.0,0.0,0.0,0.0,0.0,0.0,0.0,0.0,-0.5047,-0.5119,-0.4972,-0.4827,-0.4591,0.0,0.0,0.0,0.0,0.0,0.0,0.0,0.0,0.0,0.0,0.0,0.0,0.0,0.0,0.0,0.0,0.0,0.0,0.0,0.0,0.0,0.0,0.0,0.0,0.0,0.0,0.0,0.0,0.0,0.0,0.0,0.0,0.0,0.0,0.0,0.0,0.0,0.0,0.0,0.0,0.0,0.0,0.0,0.0,0.0,0.0,0.0,0.0,0.0,0.0,0.0,0.0,0.0,0.0,0.0,0.0,0.0,0.0,0.0,0.0,0.0,0.0,0.0,0.0,0.0,0.0,0.0,0.0,0.0,0.0,0.0,0.0,0.0,0.0,0.0,0.0,0.0,0.0,0.0,0.0,0.0,0.0,0.0,0.0,0.0,0.0,0.0,0.0,0.0,0.0,0.0,0.0,0.0,0.0,0.0,0.0,0.0,0.0,0.0,0.0,0.0,0.0,0.0,0.0,0.0,0.0,0.0,0.0,0.0,0.0,0.0,0.0,-0.4756,-0.4524,-0.4525,0.0,0.0,0.0,0.0,0.0,0.0,0.0,0.0,0.0,0.0,0.0,0.0,0.0,0.0,0.0,0.0,0.0,0.0,0.0,0.0,0.0,0.0,0.0,0.0,0.0,0.0,0.0,0.0,0.0,0.0,0.0,0.0,0.0,0.0,0.0,0.0,0.0,0.0,0.0,0.0,0.0,0.0,0.0,0.0,0.0,0.0,0.0,0.0,0.0,0.0,0.0,0.0,0.0,0.0,0.0,0.0,0.0,0.0,0.0,0.0,0.0,0.0,0.0,0.0,0.0,0.0,0.0,0.0,0.0,0.0,0.0,0.0,0.0,0.0,0.0,0.0,0.0,0.0,0.0,0.0,0.0,0.0,0.0,0.0,0.0,0.0,0.0,0.0,0.0,0.0,0.0,0.0,0.0,0.0,0.0,0.0,0.0,0.0,0.0,0.0,0.0,0.0,0.0,0.0,0.0,0.0,0.0,0.0,0.0,0.0,-0.5288,-0.5582,-0.3875,0.0,-0.4421,0.0,0.0,0.0,0.0,0.0,0.0,0.0,0.0,0.0,0.0,0.0,0.0,0.0,0.0,0.0,0.0,0.0,0.0,0.0,0.0,0.0,0.0,0.0,0.0,0.0,0.0,0.0,0.0,0.0,0.0,0.0,0.0,0.0,0.0,0.0,0.0,0.0,0.0,0.0,0.0,0.0,0.0,0.0,0.0,0.0,0.0,0.0,0.0,0.0,0.0,0.0,0.0,0.0,0.0,0.0,0.0,0.0,0.0,0.0,0.0,0.0,0.0,0.0,0.0,0.0,0.0,0.0,0.0,0.0,0.0,0.0,0.0,0.0,0.0,0.0,0.0,0.0,0.0,0.0,0.0,0.0,0.0,0.0,0.0,0.0,0.0,0.0,0.0,0.0,0.0,0.0,0.0,0.0,0.0,0.0,0.0,0.0,0.0,0.0,0.0,0.0,0.0,0.0,0.0,0.0,0.0,0.0,0.0,0.0,0.0,-0.482,-0.3958,-0.2924,-0.3124,0.0,0.0,0.0,0.0,0.0,0.0,0.0,0.0,0.0,0.0,0.0,0.0,0.0,0.0,0.0,0.0,0.0,0.0,0.0,0.0,0.0,0.0,0.0,0.0,0.0,0.0,0.0,0.0,0.0,0.0,0.0,0.0,0.0,0.0,0.0,0.0,0.0,0.0,0.0,0.0,0.0,0.0,0.0,0.0,0.0,0.0,0.0,0.0,0.0,0.0,0.0,0.0,0.0,0.0,0.0,0.0,0.0,0.0,0.0,0.0,0.0,0.0,0.0,0.0,0.0,0.0,0.0,0.0,0.0,0.0,0.0,0.0,0.0,0.0,0.0,0.0,0.0,0.0,0.0,0.0,0.0,0.0,0.0,0.0,0.0,0.0,0.0,0.0,0.0,0.0,0.0,0.0,0.0,0.0,0.0,0.0,0.0,0.0,0.0,0.0,0.0,0.0,0.0,0.0,0.0,0.0,0.0,0.0,0.0,0.0,-0.5418,0.0,-0.2178,-0.2748,-0.3712,-0.4748,0.0,0.0,0.0,0.0,0.0,0.0,0.0,0.0,0.0,0.0,0.0,0.0,0.0,0.0,0.0,0.0,0.0,0.0,0.0,0.0,0.0,0.0,0.0,0.0,0.0,0.0,0.0,0.0,0.0,0.0,0.0,0.0,0.0,0.0,0.0,0.0,0.0,0.0,0.0,0.0,0.0,0.0,0.0,0.0,0.0,0.0,0.0,0.0,0.0,0.0,0.0,0.0,0.0,0.0,0.0,0.0,0.0,0.0,0.0,0.0,0.0,0.0,0.0,0.0,0.0,0.0,0.0,0.0,0.0,0.0,0.0,0.0,0.0,0.0,0.0,0.0,0.0,0.0,0.0,0.0,0.0,0.0,0.0,0.0,0.0,0.0,0.0,0.0,0.0,0.0,0.0,0.0,0.0,0.0,0.0,0.0,0.0,0.0,0.0,0.0,0.0,0.0,0.0,0.0,0.0,0.0,0.0,0.0,0.0,-0.5444,-0.3707,-0.0492,-0.3704,-0.5259,0.0,0.0,0.0,0.0,0.0,0.0,0.0,0.0,0.0,0.0,0.0,0.0,0.0,0.0,0.0,0.0,0.0,0.0,0.0,0.0,0.0,0.0,0.0,0.0,0.0,0.0,0.0,0.0,0.0,0.0,0.0,0.0,0.0,0.0,0.0,0.0,0.0,0.0,0.0,0.0,0.0,0.0,0.0,0.0,0.0,0.0,0.0,0.0,0.0,0.0,0.0,0.0,0.0,0.0,0.0,0.0,0.0,0.0,0.0,0.0,0.0,0.0,0.0,0.0,0.0,0.0,0.0,0.0,0.0,0.0,0.0,0.0,0.0,0.0,0.0,0.0,0.0,0.0,0.0,0.0,0.0,0.0,0.0,0.0,0.0,0.0,0.0,0.0,0.0,0.0,0.0,0.0,0.0,0.0,0.0,0.0,0.0,0.0,0.0,0.0,0.0,0.0,0.0,0.0,0.0,0.0,0.0,0.0,0.0,-0.5433,-0.4312,-0.3734,-0.3712,-0.3617,-0.3957,0.0,0.0,0.0,0.0,0.0,0.0,0.0,0.0,0.0,0.0,0.0,0.0,0.0,0.0,0.0,0.0,0.0,0.0,0.0,0.0,0.0,0.0,0.0,0.0,0.0,0.0,0.0,0.0,0.0,0.0,0.0,0.0,0.0,0.0,0.0,0.0,0.0,0.0,0.0,0.0,0.0,0.0,0.0,0.0,0.0,0.0,0.0,0.0,0.0,0.0,0.0,0.0,0.0,0.0,0.0,0.0,0.0,0.0,0.0,0.0,0.0,0.0,0.0,0.0,0.0,0.0,0.0,0.0,0.0,0.0,0.0,0.0,0.0,0.0,0.0,0.0,0.0,0.0,0.0,0.0,0.0,0.0,0.0,0.0,0.0,0.0,0.0,0.0,0.0,0.0,0.0,0.0,0.0,0.0,0.0,0.0,0.0,0.0,0.0,0.0,0.0,0.0,0.0,0.0,0.0,0.0,0.0,0.0,0.0,-0.5365,0.0,-0.3781,0.0,-0.3478,-0.3816,0.0,0.0,0.0,0.0,0.0,0.0,0.0,0.0,0.0,0.0,0.0,0.0,0.0,0.0,0.0,0.0,0.0,0.0,0.0,0.0,0.0,0.0,0.0,0.0,0.0,0.0,0.0,0.0,0.0,0.0,0.0,0.0,0.0,0.0,0.0,0.0,0.0,0.0,0.0,0.0,0.0,0.0,0.0,0.0,0.0,0.0,0.0,0.0,0.0,0.0,0.0,0.0,0.0,0.0,0.0,0.0,0.0,0.0,0.0,0.0,0.0,0.0,0.0,0.0,0.0,0.0,0.0,0.0,0.0,0.0,0.0,0.0,0.0,0.0,0.0,0.0,0.0,0.0,0.0,0.0,0.0,0.0,0.0,0.0,0.0,0.0,0.0,0.0,0.0,0.0,0.0,0.0,0.0,0.0,0.0,0.0,0.0,0.0,0.0,0.0,0.0,0.0,0.0,0.0,0.0,0.0,0.0,0.0,-0.5226,-0.5399,-0.5576,-0.3925,-0.0324,-0.3574,-0.5044,0.0,0.0,0.0,0.0,0.0,0.0,0.0,0.0,0.0,0.0,0.0,0.0,0.0,0.0,0.0,0.0,0.0,0.0,0.0,0.0,0.0,0.0,0.0,0.0,0.0,0.0,0.0,0.0,0.0,0.0,0.0,0.0,0.0,0.0,0.0,0.0,0.0,0.0,0.0,0.0,0.0,0.0,0.0,0.0,0.0,0.0,0.0,0.0,0.0,0.0,0.0,0.0,0.0,0.0,0.0,0.0,0.0,0.0,0.0,0.0,0.0,0.0,0.0,0.0,0.0,0.0,0.0,0.0,0.0,0.0,0.0,0.0,0.0,0.0,0.0,0.0,0.0,0.0,0.0,0.0,0.0,0.0,0.0,0.0,0.0,0.0,0.0,0.0,0.0,0.0,0.0,0.0,0.0,0.0,0.0,0.0,0.0,0.0,0.0,0.0,0.0,0.0,0.0,0.0,0.0,0.0,0.0,0.0,0.0,-0.5163,-0.4616,-0.4162,-0.3874,-0.4571,-0.4975,0.0,0.0,0.0,0.0,0.0,0.0,0.0,0.0,0.0,0.0,0.0,0.0,0.0,0.0,0.0,0.0,0.0,0.0,0.0,0.0,0.0,0.0,0.0,0.0,0.0,0.0,0.0,0.0,0.0,0.0,0.0,0.0,0.0,0.0,0.0,0.0,0.0,0.0,0.0,0.0,0.0,0.0,0.0,0.0,0.0,0.0,0.0,0.0,0.0,0.0,0.0,0.0,0.0,0.0,0.0,0.0,0.0,0.0,0.0,0.0,0.0,0.0,0.0,0.0,0.0,0.0,0.0,0.0,0.0,0.0,0.0,0.0,0.0,0.0,0.0,0.0,0.0,0.0,0.0,0.0,0.0,0.0,0.0,0.0,0.0,0.0,0.0,0.0,0.0,0.0,0.0,0.0,0.0,0.0,0.0,0.0,0.0,0.0,0.0,0.0,0.0,0.0,0.0,0.0,0.0,0.0,0.0,0.0,0.0,-0.508,-0.4556,-0.4709,-0.55,-0.5384,-0.5202,-0.4894,0.0,0.0,0.0,0.0,0.0,0.0,0.0,0.0,0.0,0.0,0.0,0.0,0.0,0.0,0.0,0.0,0.0,0.0,0.0,0.0,0.0,0.0,0.0,0.0,0.0,0.0,0.0,0.0,0.0,0.0,0.0,0.0,0.0,0.0,0.0,0.0,0.0,0.0,0.0,0.0,0.0,0.0,0.0,0.0,0.0,0.0,0.0,0.0,0.0,0.0,0.0,0.0,0.0,0.0,0.0,0.0,0.0,0.0,0.0,0.0,0.0,0.0,0.0,0.0,0.0,0.0,0.0,0.0,0.0,0.0,0.0,0.0,0.0,0.0,0.0,0.0,0.0,0.0,0.0,0.0,0.0,0.0,0.0,0.0,0.0,0.0,0.0,0.0,0.0,0.0,0.0,0.0,0.0,0.0,0.0,0.0,0.0,0.0,0.0,0.0,0.0,0.0,0.0,0.0,0.0,0.0,0.0,0.0,-0.5084,-0.5292,-0.5373,-0.5382,-0.5928,-0.5665,0.0,0.0,0.0,0.0,0.0,0.0,0.0,0.0,0.0,0.0,0.0,0.0,0.0,0.0,0.0,0.0,0.0,0.0,0.0,0.0,0.0,0.0,0.0,0.0,0.0,0.0,0.0,0.0,0.0,0.0,0.0,0.0,0.0,0.0,0.0,0.0,0.0,0.0,0.0,0.0,0.0,0.0,0.0,0.0,0.0,0.0,0.0,0.0,0.0,0.0,0.0,0.0,0.0,0.0,0.0,0.0,0.0,0.0,0.0,0.0,0.0,0.0,0.0,0.0,0.0,0.0,0.0,0.0,0.0,0.0,0.0,0.0,0.0,0.0,0.0,0.0,0.0,0.0,0.0,0.0,0.0,0.0,0.0,0.0,0.0,0.0,0.0,0.0,0.0,0.0,0.0,0.0,0.0,0.0,0.0,0.0,0.0,0.0,0.0,0.0,0.0,0.0,0.0,0.0,0.0,0.0,0.0,0.0,0.0,-0.5216,-0.5369,-0.5422,-0.5436,-0.5852,-0.5969,0.0,0.0,0.0,0.0,0.0,0.0,0.0,0.0,0.0,0.0,0.0,0.0,0.0,0.0,0.0,0.0,0.0,0.0,0.0,0.0,0.0,0.0,0.0,0.0,0.0,0.0,0.0,0.0,0.0,0.0,0.0,0.0,0.0,0.0,0.0,0.0,0.0,0.0,0.0,0.0,0.0,0.0,0.0,0.0,0.0,0.0,0.0,0.0,0.0,0.0,0.0,0.0,0.0,0.0,0.0,0.0,0.0,0.0,0.0,0.0,0.0,0.0,0.0,0.0,0.0,0.0,0.0,0.0,0.0,0.0,0.0,0.0,0.0,0.0,0.0,0.0,0.0,0.0,0.0,0.0,0.0,0.0,0.0,0.0,0.0,0.0,0.0,0.0,0.0,0.0,0.0,0.0,0.0,0.0,0.0,0.0,0.0,0.0,0.0,0.0,0.0,0.0,0.0,0.0,0.0,0.0,0.0,0.0,-0.2821,-0.5338,-0.539,-0.5741,-0.6461,-0.6586,-0.6538,0.0,0.0,0.0,0.0,0.0,0.0,0.0,0.0,0.0,0.0,0.0,0.0,0.0,0.0,0.0,0.0,0.0,0.0,0.0,0.0,0.0,0.0,0.0,0.0,0.0,0.0,0.0,0.0,0.0,0.0,0.0,0.0,0.0,0.0,0.0,0.0,0.0,0.0,0.0,0.0,0.0,0.0,0.0,0.0,0.0,0.0,0.0,0.0,0.0,0.0,0.0,0.0,0.0,0.0,0.0,0.0,0.0,0.0,0.0,0.0,0.0,0.0,0.0,0.0,0.0,0.0,0.0,0.0,0.0,0.0,0.0,0.0,0.0,0.0,0.0,0.0,0.0,0.0,0.0,0.0,0.0,0.0,0.0,0.0,0.0,0.0,0.0,0.0,0.0,0.0,0.0,0.0,0.0,0.0,0.0,0.0,0.0,0.0,0.0,0.0,0.0,0.0,0.0,0.0,0.0,0.0,0.0,0.0,-0.1574,-0.4758,-0.5001,-0.5966,-0.7797,-0.7669,-0.7235,0.0,0.0,0.0,0.0,0.0,0.0,0.0,0.0,0.0,0.0,0.0,0.0,0.0,0.0,0.0,0.0,0.0,0.0,0.0,0.0,0.0,0.0,0.0,0.0,0.0,0.0,0.0,0.0,0.0,0.0,0.0,0.0,0.0,0.0,0.0,0.0,0.0,0.0,0.0,0.0,0.0,0.0,0.0,0.0,0.0,0.0,0.0,0.0,0.0,0.0,0.0,0.0,0.0,0.0,0.0,0.0,0.0,0.0,0.0,0.0,0.0,0.0,0.0,0.0,0.0,0.0,0.0,0.0,0.0,0.0,0.0,0.0,0.0,0.0,0.0,0.0,0.0,0.0,0.0,0.0,0.0,0.0,0.0,0.0,0.0,0.0,0.0,0.0,0.0,0.0,0.0,0.0,0.0,0.0,0.0,0.0,0.0,0.0,0.0,0.0,0.0,0.0,0.0,0.0,0.0,0.0,0.0,0.0,-0.0372,-0.1151,-0.2295,-0.4312,-0.7192,-0.7447,-0.768,0.0,0.0,0.0,0.0,0.0,0.0,0.0,0.0,0.0,0.0,0.0,0.0,0.0,0.0,0.0,0.0,0.0,0.0,0.0,0.0,0.0,0.0,0.0,0.0,0.0,0.0,0.0,0.0,0.0,0.0,0.0,0.0,0.0,0.0,0.0,0.0,0.0,0.0,0.0,0.0,0.0,0.0,0.0,0.0,0.0,0.0,0.0,0.0,-0.6256,0.0,0.0,0.0,0.0,0.0,0.0,0.0,0.0,0.0,0.0,0.0,0.0,0.0,0.0,0.0,0.0,0.0,0.0,0.0,0.0,0.0,0.0,0.0,0.0,0.0,0.0,0.0,0.0,0.0,0.0,0.0,0.0,0.0,0.0,0.0,0.0,0.0,0.0,0.0,0.0,0.0,0.0,0.0,0.0,0.0,0.0,0.0,0.0,0.0,0.0,0.0,0.0,0.0,0.0,0.0,0.0,0.0,0.0,0.0,0.0,0.0,-0.1469,-0.3404,-0.5973,-0.7397,-0.8231,0.0,0.0,0.0,0.0,0.0,0.0,0.0,0.0,0.0,0.0,0.0,0.0,0.0,0.0,0.0,0.0,0.0,0.0,0.0,0.0,0.0,0.0,0.0,0.0,0.0,0.0,0.0,0.0,0.0,0.0,0.0,0.0,0.0,0.0,0.0,0.0,0.0,0.0,0.0,0.0,0.0,0.0,0.0,0.0,0.0,0.0,0.0,0.0,0.0,0.0,0.0,0.0,0.0,0.0,0.0,0.0,0.0,0.0,0.0,0.0,0.0,0.0,0.0,0.0,0.0,0.0,0.0,0.0,0.0,0.0,0.0,0.0,0.0,0.0,0.0,0.0,0.0,0.0,0.0,0.0,0.0,0.0,0.0,0.0,0.0,0.0,0.0,0.0,0.0,0.0,0.0,0.0,0.0,0.0,0.0,0.0,0.0,0.0,0.0,0.0,0.0,0.0,0.0,0.0,0.0,0.0,0.0,-0.0182,0.0476,-0.0056,-0.1208,-0.2714,-0.4477,-0.7115,-0.8503,-0.851,0.0,0.0,0.0,0.0,0.0,0.0,0.0,0.0,0.0,0.0,0.0,0.0,0.0,0.0,0.0,0.0,0.0,0.0,0.0,0.0,0.0,0.0,0.0,0.0,0.0,0.0,0.0,0.0,0.0,0.0,0.0,0.0,0.0,0.0,0.0,0.0,0.0,0.0,-0.6064,-0.6196,0.0,0.0,0.0,0.0,0.0,0.0,0.0,0.0,-0.6091,0.0,0.0,0.0,0.0,0.0,0.0,0.0,0.0,0.0,0.0,0.0,0.0,0.0,0.0,0.0,0.0,0.0,0.0,0.0,0.0,0.0,0.0,0.0,0.0,0.0,0.0,0.0,0.0,0.0,0.0,0.0,0.0,0.0,0.0,0.0,0.0,0.0,0.0,0.0,0.0,0.0,0.0,0.0,0.0,0.0,0.0,0.0,0.0,0.0,0.0,0.0,0.0,0.0,0.0,0.0,0.0,-0.0687,0.2297,0.2565,0.0056,-0.0224,-0.1079,-0.2679,-0.5533,-0.7485,-0.8211,0.0,0.0,0.0,0.0,0.0,0.0,0.0,0.0,0.0,0.0,0.0,0.0,0.0,0.0,0.0,0.0,0.0,0.0,0.0,0.0,0.0,0.0,0.0,0.0,0.0,0.0,0.0,0.0,0.0,0.0,0.0,0.0,0.0,0.0,0.0,0.0,0.0,0.0,0.0,-0.6349,-0.64,0.0,0.0,0.0,0.0,0.0,0.0,0.0,0.0,-0.6081,0.0,0.0,0.0,0.0,0.0,0.0,0.0,0.0,0.0,0.0,0.0,0.0,0.0,0.0,0.0,0.0,0.0,0.0,0.0,0.0,0.0,0.0,0.0,0.0,0.0,0.0,0.0,0.0,0.0,0.0,0.0,0.0,0.0,0.0,0.0,0.0,0.0,0.0,0.0,0.0,0.0,0.0,0.0,0.0,0.0,0.0,0.0,0.0,0.0,0.0,0.0,0.0,0.0,0.0,0.0,-0.0237,0.2883,0.3784,0.2357,0.0837,-0.0678,-0.2208,-0.5388,-0.7262,0.0,0.0,0.0,0.0,0.0,0.0,0.0,0.0,0.0,0.0,0.0,0.0,0.0,0.0,0.0,0.0,0.0,0.0,0.0,0.0,0.0,0.0,0.0,0.0,0.0,0.0,0.0,0.0,0.0,0.0,0.0,0.0,0.0,0.0,0.0,0.0,0.0,0.0,0.0,0.0,-0.652,-0.6617,-0.6674,0.0,0.0,0.0,0.0,0.0,0.0,-0.6013,-0.5993,0.0,0.0,0.0,0.0,0.0,0.0,0.0,0.0,0.0,0.0,0.0,0.0,0.0,0.0,0.0,0.0,0.0,0.0,0.0,0.0,0.0,0.0,0.0,0.0,0.0,0.0,0.0,0.0,0.0,0.0,0.0,0.0,0.0,0.0,0.0,0.0,0.0,0.0,0.0,0.0,0.0,0.0,0.0,0.0,0.0,0.0,0.0,0.0,0.0,0.0,0.0,0.0,0.0,0.0,0.0,-0.0056,0.2966,0.4483,0.4409,0.1845,-0.0395,-0.2203,-0.564,-0.7267,0.0,0.0,0.0,0.0,0.0,0.0,0.0,0.0,0.0,0.0,0.0,0.0,0.0,0.0,0.0,0.0,0.0,0.0,0.0,0.0,0.0,0.0,0.0,0.0,0.0,0.0,0.0,0.0,0.0,0.0,0.0,0.0,0.0,0.0,0.0,0.0,0.0,0.0,0.0,0.0,0.0,-0.6708,-0.7305,-0.7202,0.0,0.0,0.0,0.0,-0.6789,-0.6505,0.0,0.0,0.0,0.0,0.0,0.0,0.0,0.0,0.0,0.0,0.0,0.0,0.0,0.0,0.0,0.0,0.0,0.0,0.0,0.0,0.0,0.0,0.0,0.0,0.0,0.0,0.0,0.0,0.0,0.0,0.0,0.0,0.0,0.0,0.0,0.0,0.0,0.0,0.0,0.0,0.0,0.0,0.0,0.0,0.0,0.0,0.0,0.0,0.0,0.0,0.0,0.0,0.0,0.0,0.0,0.0,0.0056,0.2947,0.4484,0.4392,0.285,0.0613,-0.2132,-0.5635,-0.7011,0.0,0.0,0.0,0.0,0.0,0.0,0.0,0.0,0.0,0.0,0.0,0.0,0.0,0.0,0.0,0.0,0.0,0.0,0.0,0.0,0.0,0.0,0.0,0.0,0.0,0.0,0.0,0.0,0.0,0.0,0.0,0.0,0.0,0.0,0.0,0.0,0.0,0.0,0.0,0.0,0.0,-0.6874,-0.8244,-0.8922,-0.8389,0.0,0.0,-0.6504,-0.8641,-0.8015,0.0,0.0,0.0,0.0,0.0,0.0,0.0,0.0,0.0,0.0,0.0,0.0,0.0,0.0,0.0,0.0,0.0,0.0,0.0,0.0,0.0,0.0,0.0,0.0,0.0,0.0,0.0,0.0,0.0,0.0,0.0,0.0,0.0,0.0,0.0,0.0,0.0,0.0,0.0,0.0,0.0,0.0,0.0,0.0,0.0,0.0,0.0,0.0,0.0,0.0,0.0,0.0,0.0,0.0,0.0,-0.0642,0.2456,0.3876,0.4487,0.4448,0.3019,0.078,-0.212,-0.5289,-0.6635,0.0,0.0,0.0,0.0,0.0,0.0,0.0,0.0,0.0,0.0,0.0,0.0,0.0,0.0,0.0,0.0,0.0,0.0,0.0,0.0,0.0,0.0,0.0,0.0,0.0,0.0,0.0,0.0,0.0,0.0,0.0,0.0,0.0,0.0,0.0,0.0,0.0,0.0,0.0,0.0,0.0,0.0,-0.8769,-0.9428,0.0,0.0,0.0,-0.6527,-0.8491,0.0,0.0,0.0,0.0,0.0,0.0,0.0,0.0,0.0,0.0,0.0,0.0,0.0,0.0,0.0,0.0,0.0,0.0,0.0,0.0,0.0,0.0,0.0,0.0,0.0,0.0,0.0,0.0,0.0,0.0,0.0,0.0,0.0,0.0,0.0,0.0,0.0,0.0,0.0,0.0,0.0,0.0,0.0,0.0,0.0,0.0,0.0,0.0,0.0,0.0,0.0,0.0,0.0,0.0,0.0,0.0,0.0,0.4712,0.4591,0.4483,0.4438,0.3016,0.078,-0.212,-0.5046,0.0,0.0,0.0,0.0,0.0,0.0,0.0,0.0,0.0,0.0,0.0,0.0,0.0,0.0,0.0,0.0,0.0,0.0,0.0,0.0,0.0,0.0,0.0,0.0,0.0,0.0,0.0,-0.4463,0.0,0.0,0.0,0.0,0.0,0.0,0.0,0.0,0.0,0.0,0.0,0.0,0.0,0.0,-0.603,-0.8622,-0.9372,-0.9074,0.0,0.0,-0.6456,-0.8408,-0.8587,-0.869,0.0,0.0,0.0,0.0,0.0,0.0,0.0,0.0,0.0,0.0,0.0,0.0,0.0,0.0,0.0,0.0,0.0,0.0,0.0,0.0,0.0,0.0,0.0,0.0,0.0,0.0,0.0,0.0,0.0,0.0,0.0,0.0,0.0,0.0,0.0,0.0,0.0,0.0,0.0,0.0,0.0,0.0,0.0,0.0,0.0,0.0,0.0,0.0,0.0,0.0,0.0,0.0,0.0,0.0,0.0,0.5601,0.4935,0.4523,0.4463,0.3007,0.078,-0.212,-0.5046,-0.6839,0.0,0.0,0.0,0.0,0.0,0.0,0.0,0.0,0.0,0.0,0.0,0.0,0.0,0.0,0.0,0.0,0.0,0.0,0.0,0.0,0.0,0.0,0.0,0.0,0.0,0.0,0.0,0.0,0.0,0.0,0.0,0.0,0.0,0.0,0.0,0.0,0.0,0.0,0.0,0.0,0.0,-0.4479,-0.7602,-0.8778,-0.9453,0.0,0.0,-0.6687,-0.9181,-0.9645,-1.0189,-1.1724,0.0,0.0,0.0,0.0,0.0,0.0,0.0,0.0,0.0,0.0,0.0,0.0,0.0,0.0,0.0,0.0,0.0,0.0,0.0,0.0,0.0,0.0,0.0,0.0,0.0,0.0,0.0,0.0,0.0,0.0,0.0,0.0,0.0,0.0,0.0,0.0,0.0,0.0,0.0,0.0,0.0,0.0,0.0,0.0,0.0,0.0,0.0,0.0,0.0,0.0,0.0,0.0,0.0,0.2542,0.5026,0.5243,0.5078,0.4484,0.3012,0.078,-0.212,-0.5056,-0.6874,0.0,0.0,0.0,0.0,0.0,0.0,0.0,0.0,0.0,0.0,0.0,0.0,0.0,0.0,0.0,0.0,0.0,0.0,0.0,0.0,0.0,0.0,0.0,0.0,0.0,0.0,0.0,0.0,-0.5081,-0.5537,-0.5596,0.0,0.0,0.0,0.0,0.0,0.0,0.0,0.0,0.0,0.0,-0.4168,-0.7769,-0.8893,0.0,0.0,-0.8452,-0.667,-0.8374,-0.9542,-1.0666,-1.1806,-1.207,0.0,0.0,0.0,0.0,0.0,0.0,0.0,0.0,0.0,0.0,0.0,0.0,0.0,0.0,0.0,0.0,0.0,0.0,0.0,0.0,0.0,0.0,0.0,0.0,0.0,0.0,0.0,0.0,0.0,0.0,0.0,0.0,0.0,0.0,0.0,0.0,0.0,0.0,0.0,0.0,0.0,0.0,0.0,0.0,0.0,0.0,0.0,0.0,0.0,0.0,0.0,0.0,0.3078,0.4787,0.5515,0.5583,0.4934,0.3125,0.0835,-0.1952,-0.5159,-0.7067,0.0,0.0,0.0,0.0,0.0,0.0,0.0,0.0,0.0,0.0,0.0,0.0,0.0,0.0,0.0,0.0,0.0,0.0,0.0,0.0,0.0,0.0,0.0,0.0,0.0,0.0,0.0,0.0,-0.5616,-0.6145,-0.596,0.0,0.0,0.0,0.0,0.0,0.0,0.0,0.0,0.0,0.0,-0.3851,-0.7159,-0.8449,-0.9662,-1.1306,-0.8498,-0.6541,-0.7762,-0.951,-1.107,-1.1988,0.0,0.0,0.0,0.0,0.0,0.0,0.0,0.0,0.0,0.0,0.0,0.0,0.0,0.0,0.0,0.0,0.0,0.0,0.0,0.0,0.0,0.0,0.0,0.0,0.0,0.0,0.0,0.0,0.0,0.0,-0.6642,0.0,0.0,0.0,0.0,0.0,0.0,0.0,0.0,0.0,0.0,0.0,0.0,0.0,0.0,0.0,0.0,0.0,0.0,0.0,0.0,0.0,0.0,0.3298,0.5437,0.5728,0.5858,0.5804,0.3508,0.1058,-0.1505,-0.5389,-0.7539,-0.7623,0.0,0.0,0.0,0.0,0.0,0.0,0.0,0.0,0.0,0.0,0.0,0.0,0.0,0.0,0.0,0.0,0.0,0.0,0.0,0.0,0.0,0.0,0.0,0.0,0.0,0.0,-0.5492,-0.6154,-0.6363,0.0,0.0,0.0,0.0,0.0,0.0,0.0,0.0,0.0,0.0,-0.1572,-0.347,-0.5559,-0.7315,-0.8669,-0.9667,-0.7596,-0.6285,-0.7583,-0.9574,-1.1461,0.0,0.0,0.0,0.0,0.0,0.0,0.0,0.0,0.0,0.0,0.0,0.0,0.0,0.0,0.0,0.0,0.0,0.0,0.0,0.0,0.0,0.0,0.0,0.0,0.0,0.0,0.0,-0.8016,-0.8016,0.0,0.0,0.0,0.0,0.0,0.0,0.0,0.0,0.0,0.0,0.0,-1.4617,-1.533,0.0,0.0,0.0,0.0,0.0,0.0,0.0,0.0,0.0,0.0,0.0,0.0,0.5041,0.4901,0.583,0.5899,0.4978,0.4141,0.2063,-0.1448,-0.4993,-0.7595,-0.9023,0.0,0.0,0.0,0.0,0.0,0.0,0.0,0.0,0.0,0.0,0.0,0.0,0.0,0.0,0.0,0.0,0.0,0.0,0.0,0.0,0.0,0.0,0.0,0.0,0.0,-0.5837,0.0,0.0,0.0,0.0,0.0,0.0,0.0,0.0,0.0,0.0,0.0,-0.2134,-0.0266,-0.0538,-0.2021,-0.5067,-0.5984,-0.7301,0.0,0.0,0.0,0.0,0.0,0.0,0.0,0.0,0.0,0.0,0.0,0.0,0.0,0.0,-0.6021,-0.5804,-0.5772,-0.5789,-0.5667,0.0,0.0,0.0,0.0,0.0,0.0,0.0,0.0,0.0,0.0,0.0,0.0,0.0,0.0,-1.007,0.0,-0.984,0.0,0.0,0.0,0.0,0.0,0.0,0.0,0.0,-1.4516,-1.5724,-1.7256,-1.8084,-1.8708,0.0,-1.8266,-1.656,0.0,0.0,0.0,0.0,0.0,0.0,0.0,0.0,0.6,0.4952,0.5987,0.5941,0.4588,0.449,0.2007,-0.313,-0.606,-0.8594,-1.0854,-1.2132,-1.2556,0.0,0.0,0.0,0.0,0.0,0.0,0.0,0.0,0.0,0.0,0.0,0.0,0.0,0.0,0.0,0.0,0.0,0.0,0.0,0.0,0.0,0.0,0.0,-0.695,0.0,0.0,0.0,0.0,0.0,0.0,0.0,0.0,0.0,-0.6937,-0.3379,-0.0509,0.0464,0.0267,-0.093,-0.3542,0.0,0.0,0.0,0.0,0.0,0.0,0.0,-1.2653,-1.3489,-1.5141,-1.6189,-1.5811,-1.493,-1.3695,-1.2102,0.0,0.0,-0.6831,-0.6169,-0.5839,-0.6084,-0.62,-0.6284,-0.6237,-0.6305,-0.6272,0.0,0.0,0.0,0.0,0.0,0.0,0.0,0.0,-1.2827,-1.2827,0.0,-1.2145,0.0,0.0,0.0,0.0,0.0,0.0,0.0,0.0,-1.6527,-1.7905,-1.9441,-2.0036,-2.0796,-2.1658,-2.0433,-1.9437,-1.8557,-1.5976,0.0,0.0,0.0,0.0,0.0,0.0,0.6273,0.5542,0.6204,0.5941,0.4532,0.4432,0.0891,-0.623,-0.8342,-1.0457,-1.2878,-1.434,-1.5004,-1.4535,-1.3951,0.0,0.0,0.0,0.0,0.0,0.0,0.0,0.0,0.0,0.0,0.0,0.0,0.0,0.0,0.0,0.0,0.0,0.0,0.0,0.0,-0.8602,0.0,0.0,0.0,0.0,0.0,0.0,0.0,0.0,0.0,0.0,-0.7891,-0.3131,0.0682,0.1782,0.0,0.0,0.0,0.0,-0.6651,-1.0065,-1.0631,-1.0894,-1.139,-1.1944,-1.2822,-1.3957,0.0,0.0,-1.7688,-1.7567,-1.7043,-1.5613,-1.3283,-1.0942,-0.8954,-0.6948,-0.5938,-0.6867,-0.7007,-0.6952,-0.7099,-0.7066,-0.68,-1.7024,0.0,0.0,0.0,0.0,-1.4023,-1.4439,-1.4995,-1.5496,-1.5703,-1.566,-1.4799,0.0,0.0,0.0,0.0,0.0,0.0,-1.5874,-1.7165,-1.868,-1.9977,-2.1101,-2.2123,-2.2877,-2.3322,-2.2672,-2.1949,-2.1133,-1.9531,-1.6342,-1.1661,0.0,0.0,0.0,0.0,0.6727,0.5887,0.6317,0.5941,0.4532,0.3408,-0.0166,-0.6425,-0.8669,-1.074,-1.2684,-1.4606,-1.5721,-1.5814,-1.5174,0.0,0.0,0.0,0.0,0.0,0.0,0.0,0.0,0.0,0.0,0.0,0.0,0.0,0.0,0.0,0.0,0.0,0.0,0.0,-0.922,-0.9888,-1.0618,0.0,0.0,0.0,0.0,0.0,0.0,0.0,0.0,0.0,-0.9943,-0.4451,0.0691,0.0,0.0,0.0397,-0.1891,-0.4053,-0.6638,-1.0117,0.0,0.0,0.0,-1.3377,-1.4338,-1.5172,-1.7517,-1.9274,-1.9462,-1.9569,-1.9121,-1.751,-1.6451,-1.4942,-1.2117,-0.9203,-0.7586,-0.7743,-0.7424,-0.7289,-0.7826,-0.7687,-0.6517,-1.9786,-1.8358,-1.6213,-1.55,-1.5819,-1.607,-1.6595,-1.7299,-1.7705,-1.7876,-1.7838,-1.7049,-1.6316,-1.5743,-1.7377,0.0,0.0,0.0,-1.8659,-1.9637,-2.0933,-2.1894,-2.263,-2.3559,-2.419,-2.4507,-2.42,-2.3652,-2.2903,-2.1669,-1.8933,-1.4617,0.0,0.0,-0.0214,0.4858,0.7122,0.65,0.6544,0.5946,0.4539,0.184,-0.1952,-0.6925,-0.8955,-1.095,-1.2985,-1.5334,-1.6696,-1.6961,-1.6604,-1.5902,0.0,0.0,0.0,0.0,0.0,0.0,0.0,0.0,0.0,0.0,0.0,-0.6826,-0.5298,0.0,0.0,0.0,-0.7893,-0.9284,-1.0885,-1.1327,0.0,0.0,0.0,0.0,0.0,0.0,0.0,-1.7313,-1.5255,-1.3129,-1.1148,-0.6476,-0.1088,0.4615,0.3396,0.0708,-0.2506,0.0,-0.7983,-0.9406,-1.1545,-1.3203,-1.3874,-1.4285,-1.4981,-1.6303,-1.798,-1.9504,-2.0382,-2.0539,-2.0332,-1.958,-1.8934,-1.7684,-1.5118,-1.2125,-0.9638,-0.8859,-0.827,-0.8157,-0.8633,-0.8285,-0.6819,-2.2205,-2.16,-1.9199,-1.8106,-1.8019,-1.8058,-1.8672,-1.9637,-1.9656,-1.9671,-1.9622,-1.8977,-1.8024,-1.7101,-2.0526,0.0,-2.0899,-2.1408,-2.1886,-2.2411,-2.3015,-2.3562,-2.4061,-2.4454,-2.4927,-2.5408,-2.5136,-2.469,-2.4008,-2.2797,-2.0615,-1.7496,-1.0577,-0.433,0.1067,0.5251,0.741,0.7524,0.6825,0.5723,0.4095,-0.0112,-0.4147,-0.779,-0.921,-1.1079,-1.3614,-1.6213,-1.769,-1.7974,-1.8154,-1.7752,-1.6466,0.0,0.0,0.0,0.0,0.0,0.0,0.0,0.0,0.0,0.0,0.0,0.0,0.0,0.0,0.0,-1.0985,0.0,-1.2787,-1.2822,0.0,0.0,0.0,-1.0587,-1.3728,-1.7162,-1.9112,-1.8587,0.0,0.0,-1.1967,0.0,-0.389,0.3956,0.3252,0.0615,-0.2953,-0.7264,-0.9869,-0.8593,-1.0892,-1.3428,-1.475,-1.4768,-1.5186,-1.7048,-1.8228,-1.9258,-2.0534,-2.0908,-2.1126,-2.152,-2.0838,-1.9494,-1.7844,-1.4974,-1.2406,-1.0015,-0.9472,-0.9414,-0.9438,-0.9156,-0.7596,-2.2981,-2.2557,-2.1787,-2.09,-2.004,-2.0352,-2.0994,-2.181,-2.1855,-2.1838,-2.1793,-2.0896,-2.0432,-2.0395,-2.2147,-2.2652,-2.2263,-2.2739,-2.302,-2.3193,-2.3851,-2.437,-2.4693,-2.4948,-2.5228,-2.5529,-2.5293,-2.4955,-2.4566,-2.3589,-1.9829,-1.3602,-0.9495,-0.4545,0.1335,0.4977,0.735,0.8425,0.6673,0.4258,0.1109,-0.223,-0.523,-0.7847,-0.9193,-1.1071,-1.3641,-1.6203,-1.7904,-1.8484,-1.9572,-1.9409,-1.7763,-1.6865,0.0,0.0,0.0,0.0,0.0,0.0,0.0,0.0,0.0,-0.8041,-0.6275,0.0,-0.7105,0.0,-1.0986,-1.3068,-1.3978,-1.3893,0.0,0.0,-1.4584,-1.4352,-1.5826,-1.7576,-1.8508,-1.8175,-1.7202,-1.5903,-1.4324,-1.0479,-0.5544,0.0619,0.1067,-0.0122,-0.2548,-0.6121,-0.8986,-0.986,-1.1069,-1.2569,-1.4127,-1.5178,-1.5977,-1.6975,-1.8156,-1.9509,-2.1212,-2.1472,-2.1649,-2.2151,-2.2527,-2.1492,-1.8697,-1.6308,-1.4059,-1.1766,-1.0696,-1.0262,-1.0295,-1.0168,-0.8995,-2.3801,-2.3376,-2.3176,-2.273,-2.2168,-2.2063,-2.2434,-2.3137,-2.3137,-2.3137,-2.3092,-2.2626,-2.2497,-2.264,-2.3605,-2.3827,-2.3508,-2.3914,-2.4117,-2.4133,-2.4651,-2.4998,-2.5165,-2.5236,-2.5156,-2.4881,-2.4676,-2.4271,-2.3667,-2.2279,-1.8796,-1.3434,-0.8716,-0.3112,0.3245,0.5526,0.6956,0.7794,0.5987,0.3442,0.0056,-0.3074,-0.5665,-0.7686,-0.9257,-1.1083,-1.3301,-1.6105,-1.7797,-1.8221,-1.9554,-1.9902,-1.8878,-1.7836,-1.64,0.0,0.0,0.0,0.0,0.0,0.0,0.0,0.0,0.0,0.0,0.0,-0.8393,-0.9583,-1.2355,-1.4317,-1.5023,-1.5115,-1.558,-1.6824,-1.7105,-1.7199,-1.7253,-1.8423,-1.9042,-1.8505,-1.7691,-1.6437,-1.4504,-1.123,-0.7103,-0.1864,-0.1526,-0.2466,-0.4127,-0.6169,-0.8021,-0.9867,-1.0343,-1.1201,-1.3267,-1.4806,-1.5921,-1.6598,-1.7659,-1.907,-2.0657,-2.1403,-2.1871,-2.2321,-2.3048,-2.2609,-1.9527,-1.6666,-1.4307,-1.2835,-1.1821,-1.1055,-1.0199,-0.9885,-0.8777,-2.469,-2.4358,-2.3974,-2.3998,-2.4248,-2.3492,-2.3458,-2.3934,-2.3934,-2.3934,-2.3953,-2.4142,-2.4139,-2.4097,-2.4769,-2.4896,-2.4569,-2.4885,-2.5056,-2.5075,-2.5305,-2.5461,-2.552,-2.5348,-2.4827,-2.3999,-2.3736,-2.3183,-2.2332,-2.0311,-1.7807,-1.4675,-0.8459,-0.1592,0.5408,0.6176,0.638,0.6325,0.4747,0.2681,0.0056,-0.3208,-0.5719,-0.7483,-0.9156,-1.097,-1.2992,-1.5783,-1.739,-1.7544,-1.8967,-1.9761,-1.9622,-1.8302,-1.6891,0.0,-1.3343,0.0,0.0,0.0,0.0,0.0,0.0,0.0,0.0,-0.9117,-0.9967,-1.1664,-1.4043,-1.5557,-1.5731,-1.6192,-1.6797,-1.7541,-1.8633,-1.9017,-1.8311,-1.9345,-1.9831,-1.905,-1.823,-1.6616,-1.3902,-1.1544,-0.8469,-0.4346,-0.3968,-0.4975,-0.6341,-0.6638,-0.7378,-0.9304,-0.9306,-1.0302,-1.2493,-1.4064,-1.518,-1.5987,-1.7078,-1.835,-1.9795,-2.0962,-2.181,-2.2232,-2.2958,-2.2546,-1.985,-1.651,-1.4176,-1.3314,-1.2718,-1.179,-1.0034,-0.8975,-0.7587,-2.5753,-2.6437,-2.5022,-2.5013,-2.5859,-2.4981,-2.4607,-2.462,-2.4676,-2.4685,-2.4693,-2.4683,-2.4761,-2.4898,-2.5035,-2.5152,-2.5223,-2.5354,-2.5391,-2.541,-2.5522,-2.5565,-2.5545,-2.4848,-2.4329,-2.3942,-2.3032,-2.2483,-2.2281,-2.0387,-1.7482,-1.3591,-0.9766,-0.3651,0.4404,0.0,0.0,0.0,0.2225,0.0557,-0.0056,-0.3208,-0.5719,-0.7423,-0.8588,0.0,-1.2862,-1.4789,-1.612,-1.7005,-1.8754,0.0,0.0,0.0,0.0,0.0,0.0,0.0,0.0,0.0,0.0,0.0,-0.7864,-0.8095,-0.8307,-0.9712,-1.1111,-1.2272,-1.3848,-1.5001,-1.5529,-1.6834,-1.7709,-1.7783,-1.8232,-1.8641,-1.9001,-1.9092,-1.8985,-1.8857,-1.7835,-1.6347,-1.4272,-1.2522,-0.9938,-0.6097,-0.5522,-0.6073,-0.7072,-0.6898,-0.7209,-0.8682,-0.9684,-1.0721,-1.1879,-1.3175,-1.4494,-1.5456,-1.6627,-1.8044,-1.9595,-2.0874,-2.1578,-2.1591,-2.2662,-2.2275,-1.8536,-1.628,-1.4929,-1.4033,-1.3322,-1.2379,-1.0661,-0.8796,-0.7228,-2.6403,0.0,-2.6483,-2.6414,0.0,-2.5882,-2.5486,-2.5158,-2.5112,-2.5108,-2.5084,-2.5094,-2.5158,-2.5254,-2.5249,-2.5308,-2.5389,-2.5406,-2.539,-2.5409,-2.5505,-2.5549,-2.5523,-2.4697,-2.3921,-2.322,-2.2193,-2.1441,-2.0862,-1.8664,-1.549,-1.1509,-0.8612,-0.3687,0.299,0.4763,0.5084,0.4062,0.1372,-0.0335,-0.1116,-0.36,-0.5592,-0.6983,0.0,0.0,0.0,0.0,0.0,0.0,0.0,0.0,0.0,0.0,0.0,-1.7306,-1.5806,-1.4451,-1.3228,-1.2261,-1.1229,-1.0186,-1.0893,-1.0876,-0.964,-1.1331,-1.2865,-1.3762,-1.495,-1.5843,-1.6453,-1.7115,-1.77,-1.8187,-1.8061,-1.8276,-1.9085,-1.9346,-1.9372,-1.9151,-1.7965,-1.6443,-1.497,-1.2653,-1.0395,-0.7901,-0.6733,-0.6549,-0.7311,-0.7036,-0.7128,-0.8586,-0.9917,-1.0914,-1.1358,-1.2745,-1.4057,-1.5043,-1.6324,-1.7654,-1.8913,-2.0059,-2.0826,-2.071,-2.1327,-2.0772,-1.8118,-1.6825,-1.6071,-1.4658,-1.3462,-1.2378,-1.1059,-0.907,-0.7223,-2.6637,-2.6737,-2.8096,-2.8004,-2.6874,-2.6572,-2.6087,-2.5476,0.0,0.0,0.0,-2.5398,-2.5398,-2.5396,-2.539,-2.539,-2.539,-2.5332,-2.5313,-2.5332,-2.5447,-2.5517,-2.5451,-2.4542,-2.3553,-2.253,-2.1457,-2.0492,-1.9586,-1.6971,-1.3871,-1.0385,-0.726,-0.3465,0.0938,0.3353,0.3884,0.2534,0.038,-0.1396,-0.2629,-0.4101,-0.5438,-0.6657,-0.8129,-1.0,-1.2287,-1.3987,-1.5407,-1.6567,-1.7824,-1.8903,-1.9685,-1.8854,-1.8304,-1.8088,-1.6697,-1.5789,-1.5605,-1.4225,-1.3232,-1.2945,-1.469,-1.4596,-1.1859,-1.3398,-1.468,-1.5135,-1.6027,-1.6739,-1.7043,-1.709,-1.7427,-1.8373,-1.8045,-1.8162,-1.9176,-1.9697,-1.9889,-1.963,-1.8324,-1.6785,-1.5358,-1.2849,-1.0436,-0.9144,-0.778,-0.7009,-0.7385,-0.7289,-0.7509,-0.8639,-0.9644,-1.0426,-1.1007,-1.219,-1.3684,-1.4526,-1.5971,-1.7183,-1.7966,-1.9008,-1.9666,-1.9475,-1.9787,-1.9339,-1.7836,-1.7497,-1.6999,-1.5127,-1.3634,-1.2381,-1.1405,-0.9754,-0.795,-2.6329,-2.9079,-2.9794,-2.9652,-2.8787,-2.7297,-2.6169,-2.544,-2.5451,-2.547,-2.547,-2.5432,-2.5395,-2.5397,-2.5332,-2.5313,-2.5313,-2.5313,-2.5332,0.0,-2.5447,-2.5544,-2.5502,-2.3998,-2.3095,-2.2643,-2.1053,-2.0144,-1.969,-1.7484,-1.5134,-1.2607,-0.8151,-0.4374,-0.151,0.2435,0.2561,-0.1273,-0.3016,-0.3993,-0.4157,-0.4596,-0.5616,-0.7294,-0.7711,-0.9476,-1.2732,-1.3166,-1.4024,-1.5567,-1.6972,-1.8384,-1.966,-1.9206,-1.8689,-1.821,-1.7892,-1.7474,-1.6985,-1.6118,-1.487,-1.3418,-1.7019,-1.7977,-1.4504,-1.5521,-1.604,-1.5215,-1.5861,-1.602,-1.5593,-1.6577,-1.7395,-1.7682,-1.8007,-1.8627,-1.9643,-1.9901,-1.9888,-1.9582,-1.8837,-1.7278,-1.5007,-1.3313,-1.14,-0.9314,-0.843,-0.7988,-0.7346,-0.78,-0.8474,-0.8738,-0.8933,-0.9563,-1.0535,-1.1466,-1.2753,-1.4185,-1.5196,-1.6213,-1.7207,-1.8308,-1.8767,-1.7976,-1.893,-1.91,-1.7735,-1.7797,-1.7097,-1.5372,-1.4194,-1.3369,-1.2423,-1.0823,-0.9364,-2.5664,-2.7127,-2.8458,-2.8638,-2.7849,-2.6618,-2.5854,-2.5476,-2.5486,-2.5466,-2.5447,-2.5447,-2.5466,-2.5447,-2.5428,-2.5409,-2.5409,-2.5409,-2.5409,-2.5428,-2.504,-2.4876,-2.4734,-2.3153,-2.2242,-2.1959,-2.0784,-2.0081,-1.9842,-1.8033,-1.6015,-1.3644,-0.7821,-0.4275,-0.3207,-0.1344,-0.1395,-0.3423,-0.4104,-0.4497,-0.4484,-0.4687,-0.5467,-0.6913,-0.7431,-0.9519,-1.3302,-1.3155,-1.3729,-1.533,-1.683,-1.8282,-1.9687,-1.9305,-1.8993,-1.9068,-1.8965,-1.8899,-1.8906,-1.805,-1.6843,-1.5344,-1.81,-1.9332,-1.7586,-1.7582,-1.7281,-1.6328,-1.6706,-1.683,-1.6354,-1.7069,-1.7721,-1.8069,-1.8482,-1.9057,-1.9752,-2.006,-1.9991,-1.9499,-1.8717,-1.7388,-1.5367,-1.3877,-1.2276,-1.0122,-0.9285,-0.8495,-0.7847,-0.8302,-0.8811,-0.8798,-0.8822,-0.9203,-1.0151,-1.1362,-1.2559,-1.3701,-1.4689,-1.5725,-1.6804,-1.7562,-1.7543,-1.7471,-1.792,-1.792,-1.735,-1.7192,-1.6653,-1.6124,-1.5195,-1.44,-1.3302,-1.1924,-1.0458,-2.534,-2.5557,-2.6753,-2.7094,-2.6766,-2.6166,-2.5768,-2.5524,-2.5543,-2.5486,-2.5457,-2.5484,-2.5511,-2.5511,-2.5511,-2.5511,-2.5511,-2.5511,-2.5498,-2.5432,-2.4849,-2.4492,-2.4155,-2.2704,-2.1816,-2.1394,-2.065,-2.0199,-1.9916,-1.865,-1.6559,-1.3506,-0.7952,-0.4896,-0.4546,-0.4524,-0.4588,-0.4716,-0.4875,-0.4812,-0.4522,-0.4649,-0.5362,-0.6657,-0.732,-0.9524,-1.331,-1.3233,-1.372,-1.5315,-1.6775,-1.8286,-1.9645,-1.9417,-1.9382,-1.9745,-1.9686,-1.9773,-2.0135,-1.9718,-1.8926,-1.7893,-1.9218,-2.0043,-1.9784,-1.9112,-1.827,-1.7524,-1.7478,-1.7528,-1.7134,-1.7415,-1.7871,-1.8338,-1.8769,-1.923,-1.9802,-2.0136,-2.0188,-1.9721,-1.8781,-1.755,-1.6091,-1.4663,-1.2989,-1.1066,-0.9762,-0.9054,-0.8857,-0.8791,-0.8784,-0.8825,-0.8884,-0.926,-0.9888,-1.1267,-1.2519,-1.3299,-1.4297,-1.5477,-1.6497,-1.661,-1.6614,-1.7127,-1.6921,-1.6846,-1.7072,-1.6767,-1.6326,-1.608,-1.5796,-1.5363,-1.4179,-1.3154,-1.165,-2.5908,-2.6669,-2.5966,-2.6041,-2.6728,-2.6734,-2.629,-2.563,-2.5592,-2.5601,-2.5563,-2.5506,-2.5517,-2.5512,-2.5522,-2.5503,-2.5498,-2.5512,-2.5488,-2.5482,-2.541,-2.4996,-2.4187,-2.332,-2.2477,-2.1552,-2.0804,-2.0386,-2.0205,-1.9253,-1.6666,-1.2594,-0.9758,-0.7498,-0.5722,-0.4879,-0.4805,-0.5381,-0.6069,-0.5773,-0.457,-0.4532,-0.5466,-0.7344,-0.7498,-0.9269,-1.2923,-1.3009,-1.372,-1.5336,-1.683,-1.8274,-1.9583,-1.9734,-1.9738,-1.9784,-1.9754,-1.9756,-1.9988,-2.0709,-2.0958,-2.0689,-2.0841,-2.0723,-1.9874,-1.9393,-1.8717,-1.792,-1.7693,-1.7332,-1.6565,-1.7018,-1.7566,-1.7881,-1.8495,-1.9075,-1.9724,-2.0101,-2.0356,-2.0572,-1.9495,-1.8187,-1.6828,-1.5452,-1.3771,-1.1105,-1.0012,-0.933,-0.8911,-0.8782,-0.8877,-0.8951,-0.926,-0.9714,-1.0268,-1.1177,-1.2363,-1.3376,-1.408,-1.513,-1.6125,-1.6226,-1.6037,-1.6876,-1.6892,-1.6629,-1.6604,-1.6461,-1.6311,-1.602,-1.5998,-1.5977,-1.4891,-1.4151,-1.3124,-2.5783,-2.6151,-2.5667,-2.5707,-2.6076,-2.6169,-2.6007,-2.5671,-2.5661,-2.5669,-2.5663,-2.5586,-2.5566,-2.5543,-2.5563,-2.5534,-2.5466,-2.4999,-2.5072,-2.5294,-2.3854,-2.3176,-2.3199,-2.1955,-2.1092,-2.0751,-2.0551,-2.0441,-2.0071,-1.8803,-1.6475,-1.3615,-1.1499,-0.9468,-0.7298,-0.5435,-0.5015,-0.6145,-0.7296,-0.7263,-0.6164,-0.5835,-0.6514,-0.7955,-0.8134,-0.9662,-1.2607,-1.3009,-1.372,-1.5325,-1.683,-1.8286,-1.9734,-1.9512,-1.9472,-1.9787,-2.0244,-2.0398,-2.0254,-2.1507,-2.1901,-2.1062,-2.1306,-2.0942,-1.9643,-1.9383,-1.9,-1.8342,-1.7907,-1.7459,-1.7018,-1.751,-1.8053,-1.8364,-1.8997,-1.9649,-2.0205,-2.0117,-2.0164,-2.0515,-2.0316,-1.9296,-1.7224,-1.4795,-1.2702,-1.0923,-0.9969,-0.9221,-0.8843,-0.8802,-0.9118,-0.974,-1.0098,-1.0112,-1.0272,-1.1396,-1.2397,-1.3063,-1.3932,-1.5124,-1.5733,-1.5803,-1.5753,-1.6652,-1.6589,-1.651,-1.6516,-1.6534,-1.6392,-1.6215,-1.6045,-1.6143,-1.6352,-1.5215,-1.4049,-2.5652,-2.5613,-2.56,-2.5601,-2.561,-2.5671,-2.5703,-2.5703,-2.5692,-2.5691,-2.5698,-2.5625,-2.5582,-2.5563,-2.5582,-2.544,-2.5123,-2.4583,-2.443,-2.4516,-2.2632,-2.1956,-2.2106,-2.1023,-2.0257,-2.0123,-2.0303,-2.034,-2.0016,-1.8508,-1.6771,-1.5123,-1.3338,-1.1296,-0.909,-0.6773,-0.6087,-0.6934,-0.8304,-0.8601,-0.7796,-0.7516,-0.7864,-0.8664,-0.8942,-1.0352,-1.2846,-1.3191,-1.3956,-1.535,-1.683,-1.8139,-1.9269,-1.9253,-1.9368,-1.9795,-2.0559,-2.0909,-2.0678,-2.2117,-2.2585,-2.1753,-2.1803,-2.1372,-2.0345,-1.9822,-1.9481,-1.9127,-1.8438,-1.7914,-1.7543,-1.7987,-1.8467,-1.8901,-1.9582,-2.0092,-2.0174,-2.0173,-2.0517,-2.0699,-2.0509,-1.9653,-1.7144,-1.4479,-1.2377,-1.0998,-1.0104,-0.9172,-0.8965,-0.8939,-0.9451,-1.0383,-1.059,-1.0437,-1.021,-1.1521,-1.2521,-1.299,-1.3862,-1.4974,-1.5522,-1.5386,-1.5669,-1.6563,-1.6487,-1.6759,-1.7142,-1.7112,-1.703,-1.7029,-1.6776,-1.6551,-1.7158,-1.5773,-1.4845,-2.5664,-2.5599,-2.5614,-2.5601,-2.5619,-2.5673,-2.5703,-2.5703,-2.5703,-2.5703,-2.5684,-2.5628,-2.5572,-2.5505,-2.5476,-2.5082,-2.4433,-2.4276,-2.3811,-2.3101,-2.2683,-2.2072,-2.1216,-2.1061,-2.0693,-2.0018,-2.0238,-2.0158,-1.9862,-1.8797,-1.7868,-1.6966,-1.5257,-1.3243,-1.0868,-0.9276,-0.8262,-0.7979,-0.9002,-0.9486,-0.9167,-0.9317,-0.929,-0.9126,-0.9793,-1.1076,-1.2838,-1.3726,-1.4559,-1.534,-1.6841,-1.7859,-1.8325,-1.9186,-1.967,-1.9738,-2.0478,-2.0991,-2.1116,-2.2285,-2.3092,-2.3004,-2.2647,-2.2406,-2.198,-2.0898,-2.0233,-2.0206,-1.9325,-1.8563,-1.8047,-1.8205,-1.858,-1.9214,-1.9881,-2.0018,-1.9615,-2.0958,-2.1426,-2.0967,-2.0179,-1.8602,-1.6061,-1.5027,-1.3195,-1.1586,-1.0962,-1.0555,-0.9319,-0.9285,-0.986,-1.0329,-1.0575,-1.0434,-1.0302,-1.1466,-1.2583,-1.3186,-1.3861,-1.4962,-1.5157,-1.5414,-1.5964,-1.6402,-1.6515,-1.6961,-1.7753,-1.8131,-1.8099,-1.7885,-1.714,-1.7115,-1.7247,-1.627,-1.54,-2.56,-2.5548,-2.5597,-2.5613,-2.5619,-2.568,-2.5703,-2.5703,-2.5703,-2.5703,-2.5684,-2.5571,-2.553,-2.5486,-2.5258,-2.48,-2.4158,-2.3619,-2.3333,-2.3271,-2.2514,-2.1892,-2.1537,-2.138,-2.0697,-1.9811,-2.0365,-2.0329,-1.9476,-1.8681,-1.7992,-1.7273,-1.6014,-1.4393,-1.2675,-1.1226,-1.0152,-0.9517,-1.0035,-1.0136,-0.9806,-0.9867,-0.9979,-1.005,-1.0592,-1.1744,-1.3449,-1.3795,-1.4403,-1.5395,-1.7125,-1.7951,-1.7752,-1.8643,-1.9072,-1.8855,-1.998,-2.081,-2.1103,-2.1989,-2.281,-2.3138,-2.2862,-2.2941,-2.3041,-2.1881,-2.0758,-2.0563,-2.0013,-1.9407,-1.9224,-1.9061,-1.9092,-1.9415,-2.013,-2.0977,-2.1572,-2.1884,-2.1673,-2.0952,-1.9862,-1.8106,-1.6069,-1.4676,-1.3286,-1.1516,-1.086,-1.0298,-0.9686,-0.9601,-0.9916,-1.043,-1.062,-1.0528,-1.0441,-1.1312,-1.2381,-1.3036,-1.3815,-1.443,-1.4818,-1.5314,-1.5837,-1.5946,-1.6211,-1.6857,-1.7581,-1.7971,-1.813,-1.7655,-1.6961,-1.6862,-1.6892,-1.6063,-1.5584,-2.5548,-2.5505,-2.5554,-2.5609,-2.5605,-2.5664,-2.5703,-2.5703,-2.5683,-2.5681,-2.5644,-2.554,-2.548,-2.538,-2.4952,-2.4471,-2.3976,-2.3322,-2.3039,-2.2965,-2.2114,-2.1598,-2.1425,-2.1333,-2.0716,-1.9813,-2.0164,-2.0105,-1.9506,-1.8909,-1.8538,-1.8343,-1.7137,-1.5721,-1.4181,-1.2935,-1.1828,-1.099,-1.0841,-1.0736,-1.0474,-1.0329,-1.0347,-1.0683,-1.138,-1.235,-1.3518,-1.4034,-1.4615,-1.5499,-1.7025,-1.7901,-1.7897,-1.8332,-1.8574,-1.8567,-1.9762,-2.0642,-2.0878,-2.1718,-2.2485,-2.287,-2.2973,-2.3285,-2.3695,-2.2391,-2.1542,-2.1205,-2.0672,-2.0209,-1.9972,-1.9696,-1.9546,-1.9779,-2.054,-2.1563,-2.2671,-2.2312,-2.1429,-2.035,-1.9261,-1.769,-1.5966,-1.4822,-1.3665,-1.2157,-1.1431,-1.0766,-0.9986,-0.9916,-1.0102,-1.0508,-1.0604,-1.0618,-1.0514,-1.1087,-1.1779,-1.2435,-1.3451,-1.4055,-1.4497,-1.5048,-1.5468,-1.5553,-1.5981,-1.6644,-1.721,-1.7695,-1.7529,-1.7062,-1.683,-1.6697,-1.6409,-1.5968,-1.5546,-2.5505,-2.5486,-2.5572,-2.5582,-2.5586,-2.5644,-2.5684,-2.5664,-2.5615,-2.5595,-2.5586,-2.5457,-2.5409,-2.5235,-2.4619,-2.407,-2.3876,-2.3617,-2.2911,-2.1946,-2.1751,-2.1422,-2.1018,-2.1082,-2.088,-2.0331,-1.9647,-1.9541,-1.9864,-1.9528,-1.9548,-1.9832,-1.8711,-1.707,-1.5298,-1.4381,-1.3155,-1.1965,-1.1495,-1.1333,-1.1219,-1.087,-1.0654,-1.0744,-1.2066,-1.2907,-1.307,-1.4501,-1.5312,-1.5499,-1.6367,-1.7549,-1.8444,-1.8409,-1.8316,-1.8855,-1.9919,-2.0423,-2.0481,-2.1491,-2.2147,-2.2466,-2.3003,-2.3241,-2.3069,-2.2604,-2.2143,-2.1874,-2.1322,-2.075,-2.0304,-1.9908,-1.9768,-2.0265,-2.0878,-2.1615,-2.2073,-2.2119,-2.1217,-1.9405,-1.8464,-1.7423,-1.6113,-1.529,-1.4535,-1.3436,-1.2665,-1.1694,-1.038,-1.0261,-1.0557,-1.0611,-1.0618,-1.0618,-1.0618,-1.0681,-1.1108,-1.171,-1.2915,-1.3791,-1.4008,-1.4421,-1.5058,-1.5308,-1.5879,-1.6567,-1.7,-1.7387,-1.7359,-1.7016,-1.677,-1.6377,-1.6042,-1.57,-1.5469,-2.5409,-2.537,-2.5447,-2.5453,-2.5483,-2.5531,-2.5561,-2.5577,-2.5549,-2.5546,-2.5515,-2.5428,-2.5318,-2.5118,-2.474,-2.4477,-2.426,-2.4052,-2.3488,-2.279,-2.2792,-2.2419,-2.1843,-2.1943,-2.1879,-2.1414,-2.0662,-2.0264,-2.0206,-2.0094,-2.0078,-1.9792,-1.8877,-1.7738,-1.6539,-1.5241,-1.3997,-1.3193,-1.2633,-1.2159,-1.1677,-1.1527,-1.1163,-1.0807,-1.2151,-1.2854,-1.2615,-1.4346,-1.5381,-1.5428,-1.598,-1.6809,-1.7697,-1.8028,-1.8198,-1.8419,-1.9369,-2.0115,-2.033,-2.0811,-2.1511,-2.2101,-2.2456,-2.2539,-2.2593,-2.2596,-2.2409,-2.2096,-2.1442,-2.0797,-2.0348,-1.9945,-1.9782,-1.9874,-2.0649,-2.1198,-2.1295,-2.0847,-1.9999,-1.9031,-1.8377,-1.7321,-1.5913,-1.5356,-1.4924,-1.3911,-1.3352,-1.2539,-1.1013,-1.0575,-1.0593,-1.0591,-1.0604,-1.0618,-1.0618,-1.0618,-1.08,-1.1288,-1.2258,-1.3313,-1.3556,-1.4047,-1.4611,-1.5196,-1.5792,-1.6287,-1.6736,-1.6968,-1.6912,-1.6687,-1.627,-1.6005,-1.5796,-1.5644,-1.5458,-2.5351,-2.5313,-2.537,-2.5388,-2.5395,-2.5466,-2.5518,-2.5499,-2.5479,-2.5472,-2.5438,-2.532,-2.5176,-2.5044,-2.4874,-2.4685,-2.4476,-2.4375,-2.3971,-2.3456,-2.3358,-2.284,-2.1967,-2.1789,-2.1606,-2.1182,-2.0489,-2.02,-2.0226,-2.0217,-2.0143,-1.9892,-1.9019,-1.8044,-1.7139,-1.5716,-1.4686,-1.424,-1.38,-1.3242,-1.2655,-1.2135,-1.1553,-1.129,-1.2297,-1.2854,-1.2926,-1.4532,-1.542,-1.5466,-1.5781,-1.6523,-1.7572,-1.78,-1.7894,-1.8277,-1.9055,-1.9816,-2.005,-2.0438,-2.0728,-2.1285,-2.1691,-2.2051,-2.2253,-2.2485,-2.2341,-2.1931,-2.1366,-2.0797,-2.0364,-1.9929,-1.9726,-1.9726,-2.0296,-2.0711,-2.0571,-1.9745,-1.9013,-1.8508,-1.8285,-1.7308,-1.6207,-1.5764,-1.5431,-1.4574,-1.3965,-1.3327,-1.1783,-1.1001,-1.0767,-1.064,-1.0611,-1.0618,-1.0618,-1.0618,-1.0618,-1.0982,-1.1469,-1.2456,-1.3161,-1.3865,-1.448,-1.508,-1.5646,-1.5733,-1.614,-1.6301,-1.6291,-1.6026,-1.5806,-1.569,-1.5614,-1.5772,-1.5612,-2.5313,-2.5313,-2.537,-2.539,-2.538,-2.5447,-2.5467,-2.5447,-2.5409,-2.5351,-2.528,-2.5103,-2.4974,-2.4937,-2.4799,-2.4639,-2.4512,-2.4426,-2.4118,-2.3648,-2.331,-2.265,-2.1707,-2.1015,-2.061,-2.0208,-1.9733,-1.9666,-2.012,-2.0146,-2.0033,-2.0054,-1.922,-1.8254,-1.7192,-1.5929,-1.5332,-1.509,-1.4795,-1.4482,-1.404,-1.2801,-1.1941,-1.1936,-1.2699,-1.3304,-1.3768,-1.4737,-1.54,-1.5504,-1.5786,-1.6566,-1.7622,-1.7557,-1.7585,-1.8027,-1.9046,-1.9471,-1.9735,-2.0161,-2.033,-2.0053,-2.0894,-2.179,-2.2178,-2.2219,-2.2027,-2.1612,-2.1213,-2.0797,-2.0296,-1.9929,-1.9722,-1.9677,-2.001,-2.0243,-2.015,-1.9021,-1.8321,-1.8187,-1.8106,-1.7747,-1.6492,-1.6497,-1.6264,-1.5567,-1.4562,-1.3773,-1.2805,-1.182,-1.0947,-1.0683,-1.0618,-1.0618,-1.0618,-1.0618,-1.0618,-1.0744,-1.1108,-1.1742,-1.2789,-1.3562,-1.4451,-1.5021,-1.5419,-1.5459,-1.5526,-1.5806,-1.5853,-1.5633,-1.5526,-1.542,-1.5527,-1.5713,-1.5468,-2.5313,-2.5313,-2.5313,-2.5332,-2.5351,-2.5351,-2.5271,-2.5145,-2.5126,-2.5068,-2.4955,-2.4883,-2.4766,-2.4617,-2.4607,-2.4479,-2.4321,-2.4284,-2.3921,-2.3392,-2.3277,-2.2583,-2.1698,-2.1066,-2.0702,-2.0575,-2.0289,-2.0591,-2.0703,-2.0471,-2.0277,-1.9748,-1.9053,-1.8257,-1.7299,-1.649,-1.5984,-1.5789,-1.5627,-1.5093,-1.4282,-1.3846,-1.326,-1.2805,-1.345,-1.3828,-1.3921,-1.4845,-1.5474,-1.5714,-1.5859,-1.6185,-1.6883,-1.7142,-1.7419,-1.7733,-1.8383,-1.8959,-1.9199,-1.9639,-1.9803,-1.9767,-2.0342,-2.1135,-2.2178,-2.1976,-2.1584,-2.1244,-2.1023,-2.0681,-2.0041,-1.9796,-1.958,-1.9237,-1.9566,-1.9782,-1.9606,-1.8834,-1.8117,-1.8163,-1.8186,-1.7677,-1.7003,-1.6651,-1.6472,-1.5638,-1.511,-1.4433,-1.3399,-1.2448,-1.149,-1.0822,-1.0624,-1.0624,-1.0618,-1.0618,-1.0618,-1.0624,-1.0863,-1.1163,-1.2235,-1.3287,-1.4264,-1.5157,-1.5391,-1.541,-1.542,-1.5526,-1.541,-1.542,-1.542,-1.543,-1.5547,-1.5673,-1.5175,-2.5192,-2.5163,-2.5115,-2.5091,-2.5072,-2.5091,-2.5024,-2.4911,-2.4917,-2.4864,-2.4785,-2.47,-2.4607,-2.4512,-2.441,-2.4321,-2.4209,-2.419,-2.3816,-2.3147,-2.2522,-2.1898,-2.1243,-2.0616,-2.0128,-2.0078,-1.9889,-1.9737,-1.9713,-1.9782,-1.9464,-1.8948,-1.8426,-1.7853,-1.7352,-1.7049,-1.6563,-1.6165,-1.6135,-1.577,-1.4827,-1.4382,-1.3983,-1.3631,-1.3983,-1.4186,-1.4532,-1.5089,-1.5628,-1.5977,-1.607,-1.626,-1.6906,-1.716,-1.7527,-1.7942,-1.8317,-1.8571,-1.8885,-1.9217,-1.9479,-1.9743,-2.007,-2.0516,-2.1087,-2.1213,-2.1181,-2.0781,-2.0731,-2.0519,-2.0249,-2.0123,-1.9849,-1.9419,-1.9165,-1.9116,-1.9277,-1.8647,-1.8357,-1.8368,-1.8214,-1.7773,-1.6912,-1.6741,-1.6234,-1.5658,-1.5439,-1.4628,-1.3777,-1.2866,-1.1989,-1.1253,-1.0674,-1.0611,-1.0618,-1.0618,-1.0658,-1.0665,-1.0749,-1.0975,-1.1817,-1.2972,-1.3965,-1.4805,-1.5177,-1.543,-1.5469,-1.5469,-1.542,-1.542,-1.542,-1.537,-1.5415,-1.5397,-1.4905,-2.4967,-2.4962,-2.4836,-2.4804,-2.4818,-2.4804,-2.4818,-2.4775,-2.4775,-2.4746,-2.467,-2.4526,-2.4408,-2.4391,-2.4173,-2.4132,-2.4074,-2.3996,-2.3671,-2.2863,-2.1938,-2.1118,-2.0975,-1.9743,-1.9214,-1.9029,-1.8405,-1.8299,-1.8426,-1.8313,-1.8131,-1.8025,-1.7612,-1.7378,-1.7362,-1.7473,-1.7073,-1.6413,-1.6721,-1.6316,-1.54,-1.4756,-1.4469,-1.4369,-1.435,-1.4746,-1.5099,-1.541,-1.5671,-1.6312,-1.6116,-1.6513,-1.744,-1.7445,-1.7726,-1.8351,-1.8249,-1.8284,-1.8618,-1.8655,-1.906,-1.9574,-1.9959,-2.0066,-2.0076,-2.0538,-2.086,-2.0795,-2.0454,-2.0569,-2.0617,-2.0703,-2.0358,-1.9778,-1.8884,-1.8846,-1.8701,-1.8558,-1.8508,-1.8747,-1.8253,-1.7615,-1.702,-1.6556,-1.6197,-1.5593,-1.5352,-1.4874,-1.4204,-1.3511,-1.2517,-1.1549,-1.1024,-1.0604,-1.0611,-1.0618,-1.0678,-1.0719,-1.0759,-1.0944,-1.1607,-1.2615,-1.358,-1.4392,-1.4932,-1.5371,-1.5615,-1.5566,-1.5498,-1.5525,-1.5648,-1.528,-1.5003,-1.5051,-1.4769,-2.4842,-2.4842,-2.4818,-2.4804,-2.4804,-2.4804,-2.47,-2.4543,-2.4543,-2.4405,-2.4321,-2.4247,-2.4097,-2.3862,-2.3819,-2.3671,-2.35,-2.3455,-2.3165,-2.2703,-2.1576,-2.1055,-2.0682,-1.9513,-1.8916,-1.8741,-1.8341,-1.8076,-1.8046,-1.7918,-1.7866,-1.7464,-1.7419,-1.7297,-1.7409,-1.7806,-1.7581,-1.6893,-1.7165,-1.6706,-1.5698,-1.5235,-1.5059,-1.5079,-1.5059,-1.5167,-1.5352,-1.542,-1.5468,-1.5628,-1.578,-1.6192,-1.6863,-1.6832,-1.7103,-1.7662,-1.7852,-1.7754,-1.7732,-1.7922,-1.8397,-1.9309,-1.9328,-1.9332,-1.9763,-2.0224,-2.0836,-2.1241,-2.1295,-2.0986,-2.0855,-2.1241,-2.0678,-1.9813,-2.0019,-2.0134,-1.9193,-1.9153,-1.9019,-1.8376,-1.8034,-1.7566,-1.6697,-1.6504,-1.6093,-1.5584,-1.5235,-1.4991,-1.4569,-1.4025,-1.339,-1.2428,-1.1085,-1.0669,-1.0611,-1.0645,-1.0719,-1.0742,-1.0795,-1.0873,-1.1475,-1.2203,-1.3169,-1.4079,-1.4874,-1.5243,-1.5463,-1.5865,-1.5792,-1.5842,-1.5654,-1.5133,-1.4737,-1.4746,-1.4449,-2.4654,-2.4657,-2.4543,-2.4528,-2.4528,-2.4493,-2.4355,-2.41,-2.375,-2.3672,-2.3632,-2.341,-2.3289,-2.3459,-2.3459,-2.3346,-2.3189,-2.3021,-2.278,-2.2289,-2.1442,-2.0878,-2.0366,-1.9317,-1.8496,-1.8419,-1.7706,-1.741,-1.7342,-1.7328,-1.7175,-1.7008,-1.7183,-1.7344,-1.7534,-1.8179,-1.8105,-1.7491,-1.7483,-1.7024,-1.6083,-1.5584,-1.542,-1.5303,-1.5069,-1.4951,-1.5352,-1.4991,-1.5118,-1.5293,-1.5528,-1.5894,-1.6548,-1.6699,-1.6979,-1.7482,-1.7517,-1.7467,-1.7424,-1.7418,-1.7666,-1.818,-1.8446,-1.9536,-2.0165,-2.07,-2.0946,-2.1552,-2.1584,-2.1332,-2.1011,-2.106,-2.0534,-1.9946,-2.0189,-2.0252,-1.9547,-1.9561,-1.9361,-1.8374,-1.7921,-1.7364,-1.6837,-1.6358,-1.5613,-1.4932,-1.5352,-1.5108,-1.4734,-1.4336,-1.4454,-1.35,-1.1636,-1.0677,-1.0584,-1.0672,-1.0708,-1.0808,-1.0922,-1.0929,-1.117,-1.1887,-1.2703,-1.3492,-1.4294,-1.4878,-1.5223,-1.5623,-1.554,-1.5095,-1.4668,-1.4544,-1.4305,-1.395,-1.3658,-2.4408,-2.4355,-2.4191,-2.4039,-2.3891,-2.3855,-2.368,-2.3346,-2.2806,-2.288,-2.3064,-2.2503,-2.2833,-2.3071,-2.3117,-2.3117,-2.2947,-2.2652,-2.2279,-2.1943,-2.1195,-2.0601,-1.9974,-1.891,-1.8052,-1.7867,-1.6925,-1.6471,-1.6391,-1.6281,-1.6262,-1.6417,-1.6916,-1.733,-1.7668,-1.8407,-1.862,-1.799,-1.7682,-1.7079,-1.6255,-1.5642,-1.541,-1.5294,-1.4715,-1.4606,-1.4883,-1.4688,-1.451,-1.5177,-1.5352,-1.5748,-1.6206,-1.6624,-1.7164,-1.7603,-1.7294,-1.7142,-1.7352,-1.7316,-1.717,-1.6648,-1.7834,-1.9376,-2.0653,-2.107,-2.1355,-2.1654,-2.1821,-2.1625,-2.1167,-2.0948,-2.0505,-1.9965,-1.9786,-1.9798,-1.9748,-1.9687,-1.89,-1.8531,-1.7662,-1.6948,-1.6384,-1.5864,-1.504,-1.451,-1.4982,-1.5118,-1.4684,-1.4699,-1.48,-1.4082,-1.2143,-1.0802,-1.064,-1.0581,-1.0688,-1.0895,-1.1022,-1.1082,-1.1109,-1.1703,-1.2385,-1.2829,-1.3487,-1.4266,-1.4519,-1.4453,-1.4254,-1.3866,-1.3926,-1.4066,-1.3693,-1.3123,-1.2961,-2.4095,-2.384,-2.3816,-2.3289,-2.2543,-2.2468,-2.2482,-2.2345,-2.2256,-2.2567,-2.3065,-2.3047,-2.2845,-2.2943,-2.2832,-2.2669,-2.2375,-2.2022,-2.1757,-2.1519,-2.083,-2.023,-1.9549,-1.8646,-1.7894,-1.7203,-1.633,-1.5804,-1.5656,-1.5283,-1.5445,-1.5796,-1.6315,-1.6973,-1.7867,-1.8621,-1.8685,-1.8223,-1.7743,-1.6912,-1.6036,-1.5584,-1.542,-1.5294,-1.4529,-1.4282,-1.4341,-1.4323,-1.4264,-1.4451,-1.505,-1.541,-1.5588,-1.5571,-1.6089,-1.6706,-1.6396,-1.6308,-1.709,-1.732,-1.7024,-1.699,-1.7823,-1.8995,-2.0069,-2.0735,-2.1284,-2.1932,-2.2192,-2.203,-2.0944,-2.0743,-2.0471,-1.9991,-1.9798,-1.9747,-1.953,-1.8875,-1.8201,-1.7907,-1.7157,-1.6482,-1.5979,-1.54,-1.4746,-1.4323,-1.4442,-1.4382,-1.3974,-1.4492,-1.5219,-1.4063,-1.2501,-1.1396,-1.0577,-1.0624,-1.0661,-1.0949,-1.1122,-1.1289,-1.1383,-1.168,-1.2121,-1.237,-1.3108,-1.4028,-1.4032,-1.353,-1.3621,-1.3739,-1.3698,-1.363,-1.3338,-1.3041,-1.2871,-2.3518,-2.2887,-2.2887,-2.2589,-2.2158,-2.21,-2.2011,-2.185,-2.185,-2.1965,-2.2121,-2.2175,-2.2358,-2.2422,-2.2248,-2.1965,-2.1628,-2.1415,-2.1165,-2.0878,-2.0467,-1.9884,-1.9259,-1.8444,-1.7867,-1.7037,-1.5928,-1.5355,-1.5522,-1.5005,-1.4967,-1.5456,-1.6007,-1.6709,-1.7435,-1.7953,-1.8337,-1.8132,-1.7512,-1.6775,-1.6077,-1.572,-1.542,-1.5108,-1.4332,-1.3855,-1.4094,-1.3726,-1.3786,-1.4264,-1.4991,-1.5294,-1.5339,-1.5199,-1.531,-1.5813,-1.5518,-1.5657,-1.6623,-1.6895,-1.6998,-1.7665,-1.8251,-1.9076,-1.9953,-2.0609,-2.101,-2.1675,-2.1713,-2.1541,-2.0997,-2.0573,-2.0144,-1.9901,-1.9811,-1.9579,-1.9036,-1.8147,-1.7609,-1.7224,-1.6786,-1.6218,-1.5575,-1.4991,-1.4392,-1.4145,-1.4085,-1.3657,-1.3235,-1.4107,-1.5055,-1.4013,-1.2546,-1.1471,-1.0678,-1.0692,-1.0688,-1.0949,-1.1202,-1.1363,-1.1536,-1.171,-1.1722,-1.1773,-1.2639,-1.3545,-1.3279,-1.276,-1.3162,-1.3504,-1.3223,-1.2983,-1.3026,-1.2969,-1.2885,-2.3057,-2.22,-2.2041,-2.1877,-2.1691,-2.1515,-2.1354,-2.1295,-2.1253,-2.131,-2.1299,-2.1339,-2.1647,-2.1874,-2.1658,-2.1274,-2.0991,-2.0959,-2.0682,-2.0366,-2.0024,-1.9528,-1.8826,-1.8171,-1.7585,-1.6854,-1.5576,-1.4971,-1.5097,-1.4534,-1.4637,-1.5097,-1.569,-1.6309,-1.686,-1.7469,-1.7843,-1.7757,-1.7188,-1.6648,-1.6374,-1.5836,-1.542,-1.5235,-1.3855,-1.3373,-1.3726,-1.3122,-1.3235,-1.3846,-1.4628,-1.5225,-1.5284,-1.501,-1.4865,-1.4903,-1.4833,-1.5409,-1.6091,-1.6812,-1.7533,-1.8634,-1.8659,-1.9453,-2.0143,-2.04,-2.0447,-2.1075,-2.1161,-2.0822,-2.0662,-2.0195,-1.9798,-1.9604,-1.9629,-1.9433,-1.8555,-1.7632,-1.6725,-1.6404,-1.6285,-1.5982,-1.543,-1.4746,-1.4154,-1.3606,-1.3485,-1.3045,-1.2781,-1.3644,-1.4223,-1.3584,-1.2534,-1.1368,-1.0813,-1.0786,-1.0795,-1.0955,-1.1202,-1.1403,-1.1577,-1.1744,-1.1653,-1.1654,-1.169,-1.2367,-1.2192,-1.2312,-1.2673,-1.2771,-1.2439,-1.2466,-1.2791,-1.2954,-1.295,-2.3017,-2.2563,-2.192,-2.1125,-2.0279,-1.9692,-1.9702,-2.0196,-2.0255,-2.072,-2.1275,-2.146,-2.1439,-2.1389,-2.099,-2.0847,-2.0797,-2.055,-2.0348,-2.0143,-1.9543,-1.8902,-1.821,-1.7666,-1.7229,-1.6612,-1.5421,-1.4801,-1.466,-1.3852,-1.3741,-1.4465,-1.5133,-1.5751,-1.6579,-1.7038,-1.7645,-1.7509,-1.6871,-1.6218,-1.571,-1.5468,-1.542,-1.4991,-1.3965,-1.3061,-1.3183,-1.2573,-1.2443,-1.3122,-1.3906,-1.4688,-1.5158,-1.501,-1.458,-1.4526,-1.4759,-1.5386,-1.6137,-1.6838,-1.782,-1.8955,-1.943,-1.9698,-2.0016,-2.0395,-2.0377,-1.994,-2.0409,-2.051,-2.0182,-1.9939,-1.9488,-1.9174,-1.9052,-1.8935,-1.8285,-1.6978,-1.6073,-1.6135,-1.6108,-1.5861,-1.5448,-1.4662,-1.3974,-1.3433,-1.2895,-1.2428,-1.2266,-1.3027,-1.35,-1.2925,-1.2621,-1.1577,-1.0922,-1.0895,-1.0922,-1.1015,-1.1269,-1.149,-1.165,-1.183,-1.1964,-1.1957,-1.188,-1.1807,-1.2058,-1.2184,-1.2258,-1.2351,-1.2418,-1.2538,-1.2761,-1.2929,-1.3073,-2.1759,-2.1417,-2.114,-2.0577,-1.9951,-1.9596,-1.9411,-1.9454,-1.9815,-1.9992,-2.017,-2.0546,-2.0718,-2.0715,-2.0503,-2.0353,-2.0227,-2.0035,-1.9965,-1.9808,-1.9192,-1.8612,-1.8092,-1.7544,-1.7034,-1.6411,-1.57,-1.5028,-1.4554,-1.3903,-1.3635,-1.4198,-1.471,-1.5259,-1.6085,-1.6244,-1.6332,-1.6222,-1.6019,-1.5758,-1.5468,-1.542,-1.542,-1.5352,-1.3855,-1.313,-1.2826,-1.2266,-1.195,-1.2565,-1.3416,-1.4332,-1.4728,-1.4917,-1.4951,-1.458,-1.4968,-1.5355,-1.5644,-1.6398,-1.741,-1.8513,-1.9226,-1.9793,-1.9861,-2.0003,-2.0156,-1.9901,-2.0055,-2.0055,-1.9888,-1.9793,-1.9364,-1.8905,-1.8232,-1.7865,-1.7378,-1.6425,-1.5596,-1.5819,-1.5894,-1.5548,-1.5157,-1.454,-1.3727,-1.2916,-1.2353,-1.1855,-1.1638,-1.1875,-1.2254,-1.2333,-1.2116,-1.1789,-1.131,-1.1082,-1.1069,-1.1189,-1.149,-1.1683,-1.1784,-1.1924,-1.2058,-1.2158,-1.2138,-1.2111,-1.2118,-1.2184,-1.2318,-1.2438,-1.2627,-1.2759,-1.2979,-1.3247,-1.3474,-2.0716,-2.0235,-2.0306,-2.0094,-1.9649,-1.9459,-1.9103,-1.8747,-1.919,-1.9183,-1.9035,-1.942,-1.9841,-2.0104,-2.0124,-1.9899,-1.953,-1.953,-1.9406,-1.9169,-1.8765,-1.8249,-1.7787,-1.7312,-1.6866,-1.6509,-1.5864,-1.5365,-1.4888,-1.4366,-1.4066,-1.4165,-1.4606,-1.5074,-1.5341,-1.5517,-1.5604,-1.5604,-1.5536,-1.5468,-1.542,-1.542,-1.542,-1.4932,-1.4025,-1.3009,-1.2887,-1.1965,-1.1469,-1.2212,-1.281,-1.3674,-1.4497,-1.4855,-1.4907,-1.479,-1.5153,-1.5263,-1.5416,-1.5848,-1.6492,-1.7544,-1.8705,-1.9543,-1.8967,-1.919,-1.95,-1.9436,-1.9475,-1.9579,-1.9733,-1.9648,-1.8994,-1.8101,-1.7082,-1.6701,-1.6337,-1.594,-1.5562,-1.5561,-1.5515,-1.516,-1.4771,-1.4346,-1.3506,-1.2585,-1.1931,-1.1377,-1.1376,-1.1416,-1.1695,-1.206,-1.2102,-1.1956,-1.1634,-1.1376,-1.1329,-1.1369,-1.167,-1.1817,-1.1884,-1.2011,-1.2158,-1.2238,-1.2278,-1.2271,-1.2211,-1.2291,-1.2378,-1.2532,-1.2719,-1.3046,-1.332,-1.3581,-1.3768,-2.0416,-1.9514,-1.9766,-1.9507,-1.8901,-1.8243,-1.7987,-1.796,-1.8031,-1.8216,-1.8361,-1.872,-1.9204,-1.9566,-1.9615,-1.9427,-1.8968,-1.8968,-1.8727,-1.8263,-1.7706,-1.7544,-1.7271,-1.6993,-1.6552,-1.6423,-1.5908,-1.558,-1.5402,-1.4928,-1.4538,-1.426,-1.4661,-1.5039,-1.5283,-1.542,-1.542,-1.542,-1.542,-1.542,-1.542,-1.542,-1.542,-1.505,-1.3965,-1.3009,-1.2879,-1.1593,-1.1115,-1.1872,-1.2212,-1.3017,-1.4156,-1.4497,-1.455,-1.4954,-1.5195,-1.5251,-1.5269,-1.5751,-1.6465,-1.7376,-1.817,-1.8709,-1.7804,-1.8139,-1.8457,-1.8715,-1.8768,-1.9032,-1.9178,-1.9073,-1.8511,-1.7556,-1.6708,-1.6311,-1.6168,-1.6292,-1.5862,-1.5513,-1.4996,-1.4457,-1.4274,-1.3785,-1.3301,-1.2366,-1.2037,-1.1536,-1.1647,-1.1726,-1.1866,-1.2071,-1.2237,-1.2157,-1.1928,-1.1757,-1.171,-1.1683,-1.1844,-1.1904,-1.1924,-1.2071,-1.2238,-1.2198,-1.2211,-1.2265,-1.2338,-1.2499,-1.2607,-1.2741,-1.2893,-1.326,-1.3554,-1.3794,-1.3928,-1.9445,-1.8212,-1.7817,-1.7829,-1.813,-1.7854,-1.7516,-1.7193,-1.7147,-1.721,-1.7409,-1.826,-1.8649,-1.8701,-1.9038,-1.893,-1.8458,-1.8419,-1.8263,-1.8027,-1.7626,-1.7353,-1.7105,-1.6795,-1.6522,-1.6337,-1.5864,-1.5342,-1.5006,-1.5092,-1.4717,-1.4483,-1.4844,-1.5176,-1.5391,-1.542,-1.542,-1.542,-1.542,-1.542,-1.542,-1.542,-1.542,-1.5294,-1.3846,-1.2907,-1.2395,-1.1274,-1.1052,-1.1178,-1.1531,-1.2528,-1.3519,-1.3846,-1.4427,-1.4984,-1.5284,-1.5283,-1.5205,-1.5648,-1.6114,-1.6726,-1.7065,-1.7024,-1.6697,-1.6796,-1.7203,-1.7607,-1.8004,-1.8274,-1.8221,-1.8363,-1.8092,-1.7116,-1.6481,-1.6118,-1.6023,-1.6201,-1.5629,-1.5002,-1.4142,-1.3398,-1.3309,-1.3186,-1.2728,-1.2199,-1.1968,-1.177,-1.1872,-1.1919,-1.2085,-1.2138,-1.2278,-1.2218,-1.1991,-1.2004,-1.2058,-1.2037,-1.2017,-1.1965,-1.1913,-1.2151,-1.2265,-1.2204,-1.2158,-1.2297,-1.241,-1.2722,-1.2878,-1.3024,-1.3206,-1.3507,-1.3774,-1.3995,-1.4075,-1.8332,-1.7079,-1.6278,-1.6384,-1.6998,-1.7045,-1.6679,-1.612,-1.6018,-1.6193,-1.6427,-1.748,-1.7954,-1.7927,-1.8351,-1.8366,-1.7987,-1.7867,-1.776,-1.7476,-1.7188,-1.7063,-1.6866,-1.6527,-1.6151,-1.6107,-1.5644,-1.5084,-1.5006,-1.5074,-1.4956,-1.4918,-1.5084,-1.5322,-1.541,-1.542,-1.542,-1.542,-1.542,-1.542,-1.542,-1.542,-1.5177,-1.4932,-1.3666,-1.274,-1.2043,-1.1149,-1.0681,-1.08,-1.1163,-1.1695,-1.2419,-1.3201,-1.4145,-1.4815,-1.5235,-1.5352,-1.541,-1.5478,-1.571,-1.6192,-1.5928,-1.6017,-1.6028,-1.5848,-1.6283,-1.7081,-1.7246,-1.7368,-1.7446,-1.7778,-1.7597,-1.6749,-1.6688,-1.6369,-1.6191,-1.6178,-1.5195,-1.4312,-1.3474,-1.2708,-1.2736,-1.2732,-1.257,-1.2247,-1.2175,-1.2037,-1.2124,-1.2145,-1.2171,-1.2278,-1.2298,-1.2191,-1.2064,-1.2118,-1.2171,-1.2171,-1.2085,-1.1832,-1.187,-1.1935,-1.1639,-1.1081,-1.1222,-1.1992,-1.2477,-1.2725,-1.3008,-1.33,-1.3547,-1.3788,-1.3874,-1.4062,-1.4162,-1.7073,-1.6198,-1.5588,-1.5424,-1.5547,-1.5547,-1.5259,-1.4844,-1.477,-1.5063,-1.5688,-1.6306,-1.687,-1.7311,-1.7868,-1.7814,-1.7422,-1.7312,-1.7146,-1.6795,-1.6765,-1.6595,-1.6355,-1.6083,-1.582,-1.5499,-1.5152,-1.4949,-1.5165,-1.506,-1.5185,-1.5344,-1.5342,-1.542,-1.542,-1.542,-1.542,-1.542,-1.542,-1.542,-1.5488,-1.541,-1.4874,-1.4267,-1.3373,-1.2443,-1.1603,-1.1031,-1.0618,-1.0681,-1.0681,-1.1226,-1.195,-1.2626,-1.3425,-1.4273,-1.4991,-1.5294,-1.541,-1.541,-1.5536,-1.5652,-1.5467,-1.5593,-1.5507,-1.5477,-1.5668,-1.6472,-1.6528,-1.6832,-1.7151,-1.7356,-1.6922,-1.6745,-1.665,-1.6484,-1.6271,-1.5375,-1.4271,-1.3799,-1.3042,-1.2298,-1.2372,-1.2378,-1.2378,-1.2265,-1.2291,-1.2305,-1.2305,-1.2305,-1.2305,-1.2305,-1.2305,-1.2265,-1.2184,-1.2245,-1.2285,-1.2285,-1.205,-1.1687,-1.1273,-1.101,-1.0553,-0.9949,-1.0642,-1.1707,-1.2308,-1.2763,-1.3205,-1.3647,-1.3834,-1.4021,-1.4075,-1.4142,-1.4262,-1.4511,-1.4206,-1.4013,-1.3946,-1.4044,-1.461,-1.4713,-1.4515,-1.4543,-1.4846,-1.5407,-1.6034,-1.6372,-1.6779,-1.7197,-1.7312,-1.6879,-1.6752,-1.6552,-1.6565,-1.6479,-1.6534,-1.6293,-1.582,-1.5555,-1.5377,-1.496,-1.4532,-1.466,-1.4841,-1.4935,-1.5104,-1.5288,-1.5439,-1.542,-1.542,-1.542,-1.542,-1.5439,-1.5518,-1.5702,-1.5053,-1.4354,-1.3857,-1.2821,-1.1927,-1.1203,-1.071,-1.0618,-1.0618,-1.0618,-1.0843,-1.1301,-1.1843,-1.287,-1.3786,-1.4569,-1.4874,-1.5177,-1.542,-1.542,-1.542,-1.542,-1.542,-1.542,-1.542,-1.5584,-1.5768,-1.5914,-1.6236,-1.6414,-1.6536,-1.6327,-1.652,-1.6408,-1.6169,-1.5719,-1.4279,-1.3206,-1.3267,-1.2762,-1.2405,-1.2305,-1.2305,-1.2305,-1.2305,-1.2305,-1.2305,-1.2305,-1.2305,-1.2305,-1.2305,-1.2305,-1.2305,-1.2311,-1.2358,-1.2378,-1.2371,-1.18,-1.1162,-1.0755,-1.0275,-0.9792,-0.9306,-1.0342,-1.1414,-1.2202,-1.3009,-1.3629,-1.4001,-1.4095,-1.4108,-1.4088,-1.4215,-1.4416,-1.3205,-1.3208,-1.3221,-1.3196,-1.3288,-1.3802,-1.4052,-1.4092,-1.4266,-1.4553,-1.4994,-1.5701,-1.611,-1.6282,-1.6654,-1.6909,-1.6522,-1.6522,-1.6522,-1.6479,-1.6238,-1.6151,-1.592,-1.5433,-1.5017,-1.4912,-1.4577,-1.4157,-1.4591,-1.473,-1.4939,-1.5094,-1.4984,-1.5018,-1.5112,-1.5276,-1.5097,-1.4902,-1.4723,-1.4912,-1.4789,-1.4329,-1.3691,-1.3034,-1.2212,-1.1432,-1.085,-1.0564,-1.0618,-1.0618,-1.0604,-1.0577,-1.085,-1.1403,-1.232,-1.3114,-1.3726,-1.4145,-1.4688,-1.5322,-1.5341,-1.541,-1.54,-1.542,-1.542,-1.542,-1.542,-1.5498,-1.5557,-1.5841,-1.6096,-1.6143,-1.6427,-1.6603,-1.6318,-1.6081,-1.5323,-1.3916,-1.2753,-1.2755,-1.2776,-1.2458,-1.2305,-1.2305,-1.2305,-1.2305,-1.2305,-1.2311,-1.2318,-1.2311,-1.2311,-1.2311,-1.2325,-1.2338,-1.2385,-1.2465,-1.2472,-1.2458,-1.1715,-1.0825,-1.0164,-0.9691,-0.9161,-0.88,-0.959,-1.0669,-1.2254,-1.3239,-1.3425,-1.3861,-1.4208,-1.4182,-1.4108,-1.4309,-1.4583,-1.321,-1.3198,-1.3198,-1.3151,-1.3163,-1.3151,-1.3198,-1.327,-1.3856,-1.4145,-1.4284,-1.5374,-1.5815,-1.5913,-1.6351,-1.6509,-1.6423,-1.6436,-1.6392,-1.6207,-1.582,-1.5688,-1.5231,-1.456,-1.4453,-1.4234,-1.4094,-1.4184,-1.4687,-1.4909,-1.5106,-1.5032,-1.4632,-1.4454,-1.4549,-1.4729,-1.4488,-1.4233,-1.4136,-1.4226,-1.406,-1.3529,-1.2971,-1.2351,-1.1769,-1.1226,-1.078,-1.0611,-1.0618,-1.0618,-1.0618,-1.0618,-1.0863,-1.1351,-1.1648,-1.2074,-1.2687,-1.3476,-1.4034,-1.468,-1.5226,-1.5245,-1.5103,-1.5303,-1.5557,-1.5645,-1.5635,-1.5771,-1.5937,-1.6064,-1.6272,-1.6524,-1.6831,-1.6609,-1.6265,-1.5824,-1.511,-1.3962,-1.2767,-1.2437,-1.2398,-1.2305,-1.2305,-1.2305,-1.2136,-1.2305,-1.2325,-1.2304,-1.2297,-1.2311,-1.2318,-1.2325,-1.2345,-1.2371,-1.2452,-1.2619,-1.233,-1.2286,-1.154,-1.0649,-0.9873,-0.8946,-0.8328,-0.8044,-0.8634,-0.9798,-1.1582,-1.2466,-1.2839,-1.3286,-1.3548,-1.3825,-1.3601,-1.4375,-1.4721,-1.321,-1.3163,-1.2695,-1.2567,-1.2638,-1.2318,-1.2579,-1.3226,-1.3846,-1.4286,-1.4727,-1.5379,-1.5824,-1.6283,-1.6459,-1.6466,-1.6293,-1.6107,-1.592,-1.5644,-1.5231,-1.5062,-1.4709,-1.4197,-1.4121,-1.4204,-1.419,-1.4199,-1.476,-1.4995,-1.4811,-1.4483,-1.4145,-1.3769,-1.3625,-1.3852,-1.3762,-1.3761,-1.3667,-1.3653,-1.3443,-1.2959,-1.2451,-1.2045,-1.1347,-1.0925,-1.0688,-1.0581,-1.0581,-1.0575,-1.0568,-1.0561,-1.0618,-1.0863,-1.1108,-1.1834,-1.2512,-1.313,-1.3304,-1.3226,-1.3656,-1.4515,-1.432,-1.497,-1.5527,-1.5877,-1.5754,-1.5785,-1.5923,-1.6012,-1.6074,-1.6375,-1.6559,-1.6347,-1.5974,-1.5483,-1.4743,-1.3712,-1.2565,-1.189,-1.1929,-1.1776,-1.1845,-1.1964,-1.1846,-1.2136,-1.2284,-1.2153,-1.2315,-1.2276,-1.2296,-1.2315,-1.2048,-1.1967,-1.249,-1.2731,-1.2349,-1.1958,-1.1111,-1.0121,-0.9137,-0.8272,-0.7421,-0.7495,-0.8251,-0.9529,-1.0978,-1.1646,-1.2014,-1.2187,-1.2417,-1.2833,-1.3227,-1.3817,-1.4004,-1.2543,-1.2401,-1.2034,-1.1985,-1.2162,-1.192,-1.2186,-1.277,-1.3668,-1.4207,-1.4313,-1.5245,-1.5703,-1.5672,-1.5688,-1.57,-1.57,-1.5421,-1.5242,-1.5107,-1.4641,-1.4422,-1.4165,-1.3951,-1.3981,-1.4142,-1.4423,-1.4635,-1.4897,-1.4783,-1.4602,-1.4264,-1.3786,-1.3002,-1.2733,-1.2796,-1.2975,-1.308,-1.314,-1.3111,-1.2886,-1.2513,-1.2173,-1.1768,-1.0989,-1.0836,-1.0615,-1.0641,-1.058,-1.058,-1.0586,-1.073,-1.0808,-1.0887,-1.1177,-1.1799,-1.1933,-1.249,-1.2766,-1.2702,-1.302,-1.3268,-1.3372,-1.3922,-1.4371,-1.4716,-1.4978,-1.5222,-1.5568,-1.5785,-1.586,-1.5931,-1.598,-1.5965,-1.561,-1.5178,-1.4244,-1.3294,-1.2385,-1.162,-1.1228,-1.1093,-1.1141,-1.1264,-1.126,-1.1088,-1.1206,-1.1564,-1.1914,-1.2266,-1.2317,-1.2293,-1.1784,-1.1444,-1.1963,-1.2092,-1.1652,-1.1029,-1.0247,-0.9279,-0.84,-0.7924,-0.7408,-0.7578,-0.8009,-0.9212,-1.0433,-1.0695,-1.1015,-1.1166,-1.1379,-1.162,-1.1951,-1.24,-1.2352,-1.1645,-1.1384,-1.1289,-1.1439,-1.1664,-1.1627,-1.1627,-1.1875,-1.319,-1.3662,-1.3595,-1.4806,-1.5159,-1.5039,-1.4971,-1.4926,-1.4926,-1.4789,-1.4652,-1.4617,-1.4003,-1.3763,-1.38,-1.3651,-1.3775,-1.4102,-1.4482,-1.4758,-1.4868,-1.4543,-1.4003,-1.4001,-1.276,-1.2168,-1.2415,-1.2046,-1.2158,-1.2569,-1.2532,-1.2476,-1.2155,-1.1898,-1.1686,-1.1223,-1.1002,-1.0942,-1.0795,-1.0698,-1.0652,-1.0652,-1.0764,-1.1009,-1.1102,-1.1162,-1.1504,-1.1593,-1.1528,-1.1758,-1.2218,-1.2388,-1.1868,-1.2126,-1.2491,-1.2983,-1.339,-1.4114,-1.462,-1.4932,-1.5281,-1.5359,-1.5455,-1.5141,-1.501,-1.4791,-1.4433,-1.4152,-1.3697,-1.2485,-1.1,-1.0401,-1.0247,-1.0084,-1.0283,-1.0488,-1.0521,-1.0098,-1.0124,-1.0701,-1.1295,-1.1872,-1.2192,-1.2195,-1.1517,-1.0911,-1.0374,-1.0495,-1.0502,-0.9955,-0.9366,-0.8789,-0.8053,-0.7755,-0.757,-0.7723,-0.7875,-0.8607,-0.954,-0.992,-1.0227,-1.0233,-1.0423,-1.0496,-1.0714,-1.0938,-1.0798,-1.1752,-1.1656,-1.1239,-1.0933,-1.0649,-1.0659,-1.0697,-1.0787,-1.1894,-1.2733,-1.3298,-1.4041,-1.4563,-1.4549,-1.4525,-1.4525,-1.4525,-1.4154,-1.405,-1.3826,-1.342,-1.3419,-1.3521,-1.3486,-1.3618,-1.3931,-1.4317,-1.4554,-1.4346,-1.3761,-1.3099,-1.2735,-1.2082,-1.2079,-1.2158,-1.1717,-1.1846,-1.2278,-1.2285,-1.2178,-1.1964,-1.1844,-1.1677,-1.1423,-1.1296,-1.1276,-1.1129,-1.1027,-1.1093,-1.1167,-1.1329,-1.1438,-1.1403,-1.1349,-1.1397,-1.1519,-1.1309,-1.1526,-1.1744,-1.2033,-1.1771,-1.1587,-1.1948,-1.2189,-1.2721,-1.3761,-1.4396,-1.4669,-1.48,-1.4841,-1.4757,-1.4339,-1.4057,-1.3695,-1.3375,-1.3312,-1.3161,-1.1437,-0.964,-0.9394,-0.9223,-0.9195,-0.9389,-0.9509,-0.969,-0.97,-0.9776,-1.0065,-1.0579,-1.1144,-1.1897,-1.1863,-1.1161,-1.0445,-0.953,-0.9074,-0.9298,-0.9302,-0.886,-0.8273,-0.7771,-0.756,-0.7441,-0.7479,-0.772,-0.839,-0.8889,-0.9399,-0.9594,-0.9468,-0.9563,-0.9739,-0.9375,-0.943,-0.9249,-1.1153,-1.1105,-1.0802,-1.0534,-1.0322,-1.0322,-1.0322,-1.044,-1.1135,-1.1851,-1.2542,-1.3271,-1.3747,-1.3935,-1.3884,-1.3978,-1.3884,-1.3552,-1.342,-1.3248,-1.3173,-1.3244,-1.3287,-1.3337,-1.3459,-1.3679,-1.3768,-1.3803,-1.3554,-1.3068,-1.2465,-1.2195,-1.2,-1.1859,-1.183,-1.1813,-1.1932,-1.2285,-1.2305,-1.2204,-1.2044,-1.2017,-1.1911,-1.171,-1.1617,-1.1577,-1.1427,-1.1365,-1.1381,-1.1523,-1.1744,-1.1659,-1.1577,-1.155,-1.161,-1.1617,-1.1554,-1.144,-1.175,-1.181,-1.1857,-1.1892,-1.1893,-1.231,-1.2324,-1.3128,-1.3199,-1.3417,-1.3425,-1.3461,-1.3542,-1.3257,-1.3312,-1.3145,-1.3168,-1.3131,-1.2033,-1.029,-0.9322,-0.9062,-0.8582,-0.7943,-0.8074,-0.8163,-0.8264,-0.8284,-0.8497,-0.8694,-0.9253,-0.9909,-1.08,-1.1136,-1.0229,-0.9289,-0.8251,-0.8041,-0.8301,-0.8285,-0.8347,-0.8005,-0.7622,-0.7451,-0.7387,-0.7537,-0.7616,-0.7725,-0.8317,-0.8798,-0.8781,-0.8641,-0.8744,-0.9056,-0.8572,-0.8377,-0.8623,-1.0361,-1.0322,-1.0322,-1.0322,-1.0322,-1.0322,-1.0371,-1.0469,-1.0793,-1.1243,-1.1846,-1.2652,-1.2862,-1.2946,-1.2891,-1.2891,-1.2978,-1.3113,-1.3027,-1.2959,-1.2821,-1.3008,-1.3057,-1.305,-1.3197,-1.3061,-1.2924,-1.2879,-1.283,-1.231,-1.1973,-1.197,-1.1857,-1.1637,-1.183,-1.1872,-1.2005,-1.2245,-1.2305,-1.2305,-1.2298,-1.2305,-1.2131,-1.1991,-1.1897,-1.1777,-1.1633,-1.166,-1.1657,-1.1742,-1.1998,-1.1872,-1.1837,-1.183,-1.1884,-1.1917,-1.1839,-1.1945,-1.2151,-1.2191,-1.2231,-1.2278,-1.2311,-1.2318,-1.2325,-1.2432,-1.2506,-1.252,-1.2526,-1.2553,-1.2635,-1.2756,-1.2885,-1.2936,-1.3001,-1.2862,-1.1192,-0.9461,-0.8868,-0.8512,-0.7934,-0.7111,-0.708,-0.7162,-0.7105,-0.7132,-0.7132,-0.7112,-0.7351,-0.8032,-0.8784,-0.907,-0.8595,-0.7716,-0.7169,-0.7411,-0.783,-0.7789,-0.7771,-0.7632,-0.7533,-0.7499,-0.7519,-0.7614,-0.7699,-0.7767,-0.7851,-0.8227,-0.81,-0.8065,-0.8341,-0.8649,-0.8727,-0.853,-0.8645,-1.0322,-1.0322,-1.0322,-1.0283,-1.0283,-1.0293,-1.0469,-1.0771,-1.0838,-1.1348,-1.1898,-1.2214,-1.2508,-1.2891,-1.2891,-1.2891,-1.2881,-1.2842,-1.2891,-1.29,-1.2512,-1.2684,-1.277,-1.2646,-1.2789,-1.2506,-1.202,-1.1618,-1.1996,-1.1616,-1.141,-1.156,-1.1908,-1.1917,-1.2151,-1.2138,-1.2138,-1.2305,-1.2305,-1.2305,-1.2305,-1.2305,-1.2291,-1.2231,-1.2218,-1.2184,-1.2164,-1.2184,-1.2131,-1.2164,-1.2251,-1.2191,-1.2144,-1.2098,-1.2144,-1.2144,-1.2078,-1.2118,-1.2291,-1.2432,-1.2452,-1.2297,-1.2317,-1.2432,-1.2485,-1.2688,-1.2701,-1.2748,-1.2761,-1.2768,-1.2856,-1.3057,-1.3126,-1.3081,-1.3098,-1.2304,-1.1089,-0.9114,-0.7729,-0.7591,-0.7462,-0.7071,-0.7078,-0.7122,-0.7122,-0.7139,-0.7139,-0.7129,-0.7071,-0.7153,-0.7153,-0.7207,-0.7255,-0.7197,-0.716,-0.7278,-0.7531,-0.7475,-0.7448,-0.758,-0.7634,-0.759,-0.7634,-0.7753,-0.7801,-0.7848,-0.7936,-0.8001,-0.8092,-0.8153,-0.8211,-0.8419,-0.8506,-0.8659,-0.8757]}]]